<?xml version="1.0" encoding="UTF-8" standalone="no" ?>
<gpx xmlns="http://www.topografix.com/GPX/1/1" xmlns:xsi="http://www.w3.org/2001/XMLSchema-instance" xsi:schemaLocation="http://www.topografix.com/GPX/1/1 http://www.topografix.com/GPX/1/1/gpx.xsd" version="1.1" creator="VisuGPX - https://www.visugpx.com">
  <metadata>
    <name>hussigny godbrange</name>
    <desc><![CDATA[terrain gras et beaucoup d'immense ornière. Beau parcours ..................]]></desc>
  </metadata>
  <trk>
    <name><![CDATA[2018-05-05 12:13:33]]></name>
    <trkseg>
      <trkpt lat="49.49094" lon="5.85984">
        <ele>421.15</ele>
        <time>2018-05-05T07:10:08Z</time>
      </trkpt>
      <trkpt lat="49.49094" lon="5.85983">
        <ele>420.84</ele>
        <time>2018-05-05T07:10:23Z</time>
      </trkpt>
      <trkpt lat="49.49093" lon="5.85996">
        <ele>420.36</ele>
        <time>2018-05-05T07:10:29Z</time>
      </trkpt>
      <trkpt lat="49.49094" lon="5.86002">
        <ele>420.08</ele>
        <time>2018-05-05T07:10:31Z</time>
      </trkpt>
      <trkpt lat="49.49104" lon="5.86021">
        <ele>420.24</ele>
        <time>2018-05-05T07:10:39Z</time>
      </trkpt>
      <trkpt lat="49.49133" lon="5.86039">
        <ele>419.85</ele>
        <time>2018-05-05T07:10:50Z</time>
      </trkpt>
      <trkpt lat="49.49166" lon="5.86054">
        <ele>418.51</ele>
        <time>2018-05-05T07:11:00Z</time>
      </trkpt>
      <trkpt lat="49.49199" lon="5.8607">
        <ele>417.33</ele>
        <time>2018-05-05T07:11:08Z</time>
      </trkpt>
      <trkpt lat="49.49219" lon="5.8608">
        <ele>416.49</ele>
        <time>2018-05-05T07:11:13Z</time>
      </trkpt>
      <trkpt lat="49.49228" lon="5.86083">
        <ele>416.17</ele>
        <time>2018-05-05T07:11:15Z</time>
      </trkpt>
      <trkpt lat="49.49266" lon="5.86106">
        <ele>414.24</ele>
        <time>2018-05-05T07:11:24Z</time>
      </trkpt>
      <trkpt lat="49.49267" lon="5.8611">
        <ele>414.39</ele>
        <time>2018-05-05T07:11:25Z</time>
      </trkpt>
      <trkpt lat="49.49267" lon="5.86113">
        <ele>414.54</ele>
        <time>2018-05-05T07:11:26Z</time>
      </trkpt>
      <trkpt lat="49.49266" lon="5.86117">
        <ele>414.85</ele>
        <time>2018-05-05T07:11:27Z</time>
      </trkpt>
      <trkpt lat="49.49265" lon="5.8612">
        <ele>414.87</ele>
        <time>2018-05-05T07:11:28Z</time>
      </trkpt>
      <trkpt lat="49.49264" lon="5.86122">
        <ele>414.88</ele>
        <time>2018-05-05T07:11:29Z</time>
      </trkpt>
      <trkpt lat="49.49264" lon="5.86125">
        <ele>414.45</ele>
        <time>2018-05-05T07:11:30Z</time>
      </trkpt>
      <trkpt lat="49.49265" lon="5.86125">
        <ele>413.92</ele>
        <time>2018-05-05T07:11:31Z</time>
      </trkpt>
      <trkpt lat="49.49268" lon="5.86124">
        <ele>413.94</ele>
        <time>2018-05-05T07:11:32Z</time>
      </trkpt>
      <trkpt lat="49.4927" lon="5.86124">
        <ele>413.8</ele>
        <time>2018-05-05T07:11:33Z</time>
      </trkpt>
      <trkpt lat="49.49286" lon="5.86124">
        <ele>412.39</ele>
        <time>2018-05-05T07:11:38Z</time>
      </trkpt>
      <trkpt lat="49.49313" lon="5.86138">
        <ele>412.34</ele>
        <time>2018-05-05T07:11:46Z</time>
      </trkpt>
      <trkpt lat="49.49322" lon="5.86145">
        <ele>412.24</ele>
        <time>2018-05-05T07:11:50Z</time>
      </trkpt>
      <trkpt lat="49.4932" lon="5.86148">
        <ele>411.47</ele>
        <time>2018-05-05T07:11:51Z</time>
      </trkpt>
      <trkpt lat="49.49318" lon="5.86148">
        <ele>410.82</ele>
        <time>2018-05-05T07:11:52Z</time>
      </trkpt>
      <trkpt lat="49.49314" lon="5.86144">
        <ele>410.38</ele>
        <time>2018-05-05T07:11:54Z</time>
      </trkpt>
      <trkpt lat="49.49311" lon="5.86142">
        <ele>410.34</ele>
        <time>2018-05-05T07:11:55Z</time>
      </trkpt>
      <trkpt lat="49.49288" lon="5.8612">
        <ele>410.26</ele>
        <time>2018-05-05T07:12:03Z</time>
      </trkpt>
      <trkpt lat="49.49279" lon="5.86116">
        <ele>410.53</ele>
        <time>2018-05-05T07:12:06Z</time>
      </trkpt>
      <trkpt lat="49.49277" lon="5.86119">
        <ele>410.79</ele>
        <time>2018-05-05T07:12:07Z</time>
      </trkpt>
      <trkpt lat="49.49276" lon="5.86123">
        <ele>410.87</ele>
        <time>2018-05-05T07:12:08Z</time>
      </trkpt>
      <trkpt lat="49.49276" lon="5.86128">
        <ele>410.97</ele>
        <time>2018-05-05T07:12:09Z</time>
      </trkpt>
      <trkpt lat="49.49277" lon="5.86133">
        <ele>410.98</ele>
        <time>2018-05-05T07:12:10Z</time>
      </trkpt>
      <trkpt lat="49.49278" lon="5.86138">
        <ele>411.09</ele>
        <time>2018-05-05T07:12:11Z</time>
      </trkpt>
      <trkpt lat="49.49279" lon="5.86143">
        <ele>410.97</ele>
        <time>2018-05-05T07:12:12Z</time>
      </trkpt>
      <trkpt lat="49.49281" lon="5.86147">
        <ele>411.03</ele>
        <time>2018-05-05T07:12:13Z</time>
      </trkpt>
      <trkpt lat="49.49296" lon="5.86188">
        <ele>411.37</ele>
        <time>2018-05-05T07:12:22Z</time>
      </trkpt>
      <trkpt lat="49.4931" lon="5.86235">
        <ele>410.98</ele>
        <time>2018-05-05T07:12:31Z</time>
      </trkpt>
      <trkpt lat="49.49326" lon="5.86289">
        <ele>411.44</ele>
        <time>2018-05-05T07:12:41Z</time>
      </trkpt>
      <trkpt lat="49.49341" lon="5.86332">
        <ele>411.99</ele>
        <time>2018-05-05T07:12:50Z</time>
      </trkpt>
      <trkpt lat="49.49361" lon="5.86383">
        <ele>413.56</ele>
        <time>2018-05-05T07:13:01Z</time>
      </trkpt>
      <trkpt lat="49.4937" lon="5.86412">
        <ele>414.66</ele>
        <time>2018-05-05T07:13:07Z</time>
      </trkpt>
      <trkpt lat="49.49376" lon="5.86443">
        <ele>415.69</ele>
        <time>2018-05-05T07:13:15Z</time>
      </trkpt>
      <trkpt lat="49.49374" lon="5.86445">
        <ele>415.89</ele>
        <time>2018-05-05T07:13:16Z</time>
      </trkpt>
      <trkpt lat="49.49371" lon="5.86447">
        <ele>415.3</ele>
        <time>2018-05-05T07:13:17Z</time>
      </trkpt>
      <trkpt lat="49.49347" lon="5.86467">
        <ele>415.68</ele>
        <time>2018-05-05T07:13:25Z</time>
      </trkpt>
      <trkpt lat="49.49324" lon="5.86488">
        <ele>415.57</ele>
        <time>2018-05-05T07:13:33Z</time>
      </trkpt>
      <trkpt lat="49.49316" lon="5.865">
        <ele>416.27</ele>
        <time>2018-05-05T07:13:37Z</time>
      </trkpt>
      <trkpt lat="49.49317" lon="5.86504">
        <ele>416.56</ele>
        <time>2018-05-05T07:13:38Z</time>
      </trkpt>
      <trkpt lat="49.49318" lon="5.86508">
        <ele>415.96</ele>
        <time>2018-05-05T07:13:39Z</time>
      </trkpt>
      <trkpt lat="49.4932" lon="5.86512">
        <ele>415.42</ele>
        <time>2018-05-05T07:13:40Z</time>
      </trkpt>
      <trkpt lat="49.49322" lon="5.86515">
        <ele>415.25</ele>
        <time>2018-05-05T07:13:41Z</time>
      </trkpt>
      <trkpt lat="49.49325" lon="5.86519">
        <ele>415.03</ele>
        <time>2018-05-05T07:13:42Z</time>
      </trkpt>
      <trkpt lat="49.49328" lon="5.86523">
        <ele>414.93</ele>
        <time>2018-05-05T07:13:43Z</time>
      </trkpt>
      <trkpt lat="49.49332" lon="5.86526">
        <ele>414.87</ele>
        <time>2018-05-05T07:13:44Z</time>
      </trkpt>
      <trkpt lat="49.49338" lon="5.86534">
        <ele>414.69</ele>
        <time>2018-05-05T07:13:46Z</time>
      </trkpt>
      <trkpt lat="49.49341" lon="5.8654">
        <ele>414.67</ele>
        <time>2018-05-05T07:13:47Z</time>
      </trkpt>
      <trkpt lat="49.49359" lon="5.86578">
        <ele>413.59</ele>
        <time>2018-05-05T07:13:53Z</time>
      </trkpt>
      <trkpt lat="49.49363" lon="5.86583">
        <ele>412.87</ele>
        <time>2018-05-05T07:13:54Z</time>
      </trkpt>
      <trkpt lat="49.49368" lon="5.86588">
        <ele>412.19</ele>
        <time>2018-05-05T07:13:55Z</time>
      </trkpt>
      <trkpt lat="49.49412" lon="5.86629">
        <ele>407.36</ele>
        <time>2018-05-05T07:14:03Z</time>
      </trkpt>
      <trkpt lat="49.49441" lon="5.86654">
        <ele>403.48</ele>
        <time>2018-05-05T07:14:09Z</time>
      </trkpt>
      <trkpt lat="49.49444" lon="5.86659">
        <ele>402.95</ele>
        <time>2018-05-05T07:14:10Z</time>
      </trkpt>
      <trkpt lat="49.49446" lon="5.86664">
        <ele>402.38</ele>
        <time>2018-05-05T07:14:11Z</time>
      </trkpt>
      <trkpt lat="49.49447" lon="5.86669">
        <ele>401.93</ele>
        <time>2018-05-05T07:14:12Z</time>
      </trkpt>
      <trkpt lat="49.49447" lon="5.86676">
        <ele>401.95</ele>
        <time>2018-05-05T07:14:13Z</time>
      </trkpt>
      <trkpt lat="49.49447" lon="5.86682">
        <ele>402.08</ele>
        <time>2018-05-05T07:14:14Z</time>
      </trkpt>
      <trkpt lat="49.49447" lon="5.86687">
        <ele>401.81</ele>
        <time>2018-05-05T07:14:15Z</time>
      </trkpt>
      <trkpt lat="49.49449" lon="5.8669">
        <ele>401.54</ele>
        <time>2018-05-05T07:14:16Z</time>
      </trkpt>
      <trkpt lat="49.49451" lon="5.86691">
        <ele>400.58</ele>
        <time>2018-05-05T07:14:17Z</time>
      </trkpt>
      <trkpt lat="49.49455" lon="5.86691">
        <ele>399.91</ele>
        <time>2018-05-05T07:14:18Z</time>
      </trkpt>
      <trkpt lat="49.49458" lon="5.86689">
        <ele>399.51</ele>
        <time>2018-05-05T07:14:19Z</time>
      </trkpt>
      <trkpt lat="49.49461" lon="5.86687">
        <ele>399.23</ele>
        <time>2018-05-05T07:14:20Z</time>
      </trkpt>
      <trkpt lat="49.49463" lon="5.86687">
        <ele>399.12</ele>
        <time>2018-05-05T07:14:21Z</time>
      </trkpt>
      <trkpt lat="49.49476" lon="5.86686">
        <ele>399.26</ele>
        <time>2018-05-05T07:14:26Z</time>
      </trkpt>
      <trkpt lat="49.49483" lon="5.86687">
        <ele>399.14</ele>
        <time>2018-05-05T07:14:28Z</time>
      </trkpt>
      <trkpt lat="49.49487" lon="5.86686">
        <ele>399.04</ele>
        <time>2018-05-05T07:14:29Z</time>
      </trkpt>
      <trkpt lat="49.49509" lon="5.86679">
        <ele>399.09</ele>
        <time>2018-05-05T07:14:35Z</time>
      </trkpt>
      <trkpt lat="49.49507" lon="5.86676">
        <ele>398.77</ele>
        <time>2018-05-05T07:14:36Z</time>
      </trkpt>
      <trkpt lat="49.495" lon="5.86676">
        <ele>398.58</ele>
        <time>2018-05-05T07:14:39Z</time>
      </trkpt>
      <trkpt lat="49.49498" lon="5.86677">
        <ele>398.59</ele>
        <time>2018-05-05T07:14:40Z</time>
      </trkpt>
      <trkpt lat="49.49495" lon="5.86678">
        <ele>398.67</ele>
        <time>2018-05-05T07:14:41Z</time>
      </trkpt>
      <trkpt lat="49.49473" lon="5.86679">
        <ele>398.08</ele>
        <time>2018-05-05T07:14:48Z</time>
      </trkpt>
      <trkpt lat="49.49455" lon="5.8667">
        <ele>400.61</ele>
        <time>2018-05-05T07:14:53Z</time>
      </trkpt>
      <trkpt lat="49.49452" lon="5.86673">
        <ele>401.15</ele>
        <time>2018-05-05T07:14:54Z</time>
      </trkpt>
      <trkpt lat="49.49449" lon="5.86677">
        <ele>401.29</ele>
        <time>2018-05-05T07:14:55Z</time>
      </trkpt>
      <trkpt lat="49.49447" lon="5.86681">
        <ele>401.63</ele>
        <time>2018-05-05T07:14:56Z</time>
      </trkpt>
      <trkpt lat="49.49445" lon="5.86685">
        <ele>401.42</ele>
        <time>2018-05-05T07:14:57Z</time>
      </trkpt>
      <trkpt lat="49.49444" lon="5.8669">
        <ele>401.49</ele>
        <time>2018-05-05T07:14:58Z</time>
      </trkpt>
      <trkpt lat="49.49442" lon="5.86695">
        <ele>401.75</ele>
        <time>2018-05-05T07:14:59Z</time>
      </trkpt>
      <trkpt lat="49.49438" lon="5.86705">
        <ele>402.86</ele>
        <time>2018-05-05T07:15:02Z</time>
      </trkpt>
      <trkpt lat="49.49439" lon="5.86708">
        <ele>402.96</ele>
        <time>2018-05-05T07:15:03Z</time>
      </trkpt>
      <trkpt lat="49.4944" lon="5.8671">
        <ele>402.95</ele>
        <time>2018-05-05T07:15:04Z</time>
      </trkpt>
      <trkpt lat="49.49442" lon="5.8671">
        <ele>403.1</ele>
        <time>2018-05-05T07:15:05Z</time>
      </trkpt>
      <trkpt lat="49.49444" lon="5.86709">
        <ele>403.03</ele>
        <time>2018-05-05T07:15:06Z</time>
      </trkpt>
      <trkpt lat="49.49446" lon="5.86707">
        <ele>403</ele>
        <time>2018-05-05T07:15:07Z</time>
      </trkpt>
      <trkpt lat="49.49447" lon="5.86704">
        <ele>402.91</ele>
        <time>2018-05-05T07:15:08Z</time>
      </trkpt>
      <trkpt lat="49.49448" lon="5.86701">
        <ele>402.76</ele>
        <time>2018-05-05T07:15:09Z</time>
      </trkpt>
      <trkpt lat="49.49449" lon="5.86697">
        <ele>402.11</ele>
        <time>2018-05-05T07:15:10Z</time>
      </trkpt>
      <trkpt lat="49.49452" lon="5.86695">
        <ele>401.88</ele>
        <time>2018-05-05T07:15:11Z</time>
      </trkpt>
      <trkpt lat="49.49454" lon="5.86692">
        <ele>401.54</ele>
        <time>2018-05-05T07:15:12Z</time>
      </trkpt>
      <trkpt lat="49.49457" lon="5.8669">
        <ele>401.43</ele>
        <time>2018-05-05T07:15:13Z</time>
      </trkpt>
      <trkpt lat="49.49459" lon="5.86689">
        <ele>401.21</ele>
        <time>2018-05-05T07:15:14Z</time>
      </trkpt>
      <trkpt lat="49.49469" lon="5.86685">
        <ele>400.35</ele>
        <time>2018-05-05T07:15:20Z</time>
      </trkpt>
      <trkpt lat="49.49486" lon="5.86685">
        <ele>399.07</ele>
        <time>2018-05-05T07:15:28Z</time>
      </trkpt>
      <trkpt lat="49.49496" lon="5.86681">
        <ele>399.28</ele>
        <time>2018-05-05T07:15:34Z</time>
      </trkpt>
      <trkpt lat="49.49491" lon="5.86685">
        <ele>399.26</ele>
        <time>2018-05-05T07:15:40Z</time>
      </trkpt>
      <trkpt lat="49.49489" lon="5.86685">
        <ele>399.87</ele>
        <time>2018-05-05T07:15:44Z</time>
      </trkpt>
      <trkpt lat="49.49482" lon="5.86685">
        <ele>400.93</ele>
        <time>2018-05-05T07:15:54Z</time>
      </trkpt>
      <trkpt lat="49.49477" lon="5.86689">
        <ele>401.16</ele>
        <time>2018-05-05T07:16:00Z</time>
      </trkpt>
      <trkpt lat="49.49478" lon="5.86692">
        <ele>400.65</ele>
        <time>2018-05-05T07:16:06Z</time>
      </trkpt>
      <trkpt lat="49.49483" lon="5.86693">
        <ele>398.66</ele>
        <time>2018-05-05T07:16:59Z</time>
      </trkpt>
      <trkpt lat="49.49486" lon="5.86695">
        <ele>398.03</ele>
        <time>2018-05-05T07:17:00Z</time>
      </trkpt>
      <trkpt lat="49.49488" lon="5.86696">
        <ele>397.54</ele>
        <time>2018-05-05T07:17:01Z</time>
      </trkpt>
      <trkpt lat="49.49498" lon="5.86704">
        <ele>394.01</ele>
        <time>2018-05-05T07:17:06Z</time>
      </trkpt>
      <trkpt lat="49.49501" lon="5.8671">
        <ele>393.12</ele>
        <time>2018-05-05T07:17:08Z</time>
      </trkpt>
      <trkpt lat="49.49499" lon="5.86724">
        <ele>391.55</ele>
        <time>2018-05-05T07:17:11Z</time>
      </trkpt>
      <trkpt lat="49.49494" lon="5.86752">
        <ele>389.31</ele>
        <time>2018-05-05T07:17:18Z</time>
      </trkpt>
      <trkpt lat="49.4949" lon="5.86775">
        <ele>388.31</ele>
        <time>2018-05-05T07:17:24Z</time>
      </trkpt>
      <trkpt lat="49.49489" lon="5.86789">
        <ele>388.79</ele>
        <time>2018-05-05T07:17:28Z</time>
      </trkpt>
      <trkpt lat="49.4949" lon="5.86793">
        <ele>388.91</ele>
        <time>2018-05-05T07:17:29Z</time>
      </trkpt>
      <trkpt lat="49.49491" lon="5.86796">
        <ele>389.12</ele>
        <time>2018-05-05T07:17:30Z</time>
      </trkpt>
      <trkpt lat="49.49491" lon="5.86799">
        <ele>389.25</ele>
        <time>2018-05-05T07:17:31Z</time>
      </trkpt>
      <trkpt lat="49.4949" lon="5.86803">
        <ele>389.23</ele>
        <time>2018-05-05T07:17:32Z</time>
      </trkpt>
      <trkpt lat="49.4949" lon="5.86806">
        <ele>389.41</ele>
        <time>2018-05-05T07:17:33Z</time>
      </trkpt>
      <trkpt lat="49.4949" lon="5.86809">
        <ele>389.54</ele>
        <time>2018-05-05T07:17:34Z</time>
      </trkpt>
      <trkpt lat="49.4949" lon="5.86811">
        <ele>389.55</ele>
        <time>2018-05-05T07:17:35Z</time>
      </trkpt>
      <trkpt lat="49.49491" lon="5.86814">
        <ele>389.29</ele>
        <time>2018-05-05T07:17:36Z</time>
      </trkpt>
      <trkpt lat="49.49494" lon="5.86817">
        <ele>390.14</ele>
        <time>2018-05-05T07:17:41Z</time>
      </trkpt>
      <trkpt lat="49.49501" lon="5.868">
        <ele>389.47</ele>
        <time>2018-05-05T07:17:49Z</time>
      </trkpt>
      <trkpt lat="49.49503" lon="5.86793">
        <ele>388.94</ele>
        <time>2018-05-05T07:17:50Z</time>
      </trkpt>
      <trkpt lat="49.49506" lon="5.86778">
        <ele>388.01</ele>
        <time>2018-05-05T07:17:52Z</time>
      </trkpt>
      <trkpt lat="49.49509" lon="5.8677">
        <ele>387.04</ele>
        <time>2018-05-05T07:17:53Z</time>
      </trkpt>
      <trkpt lat="49.49512" lon="5.86763">
        <ele>386.57</ele>
        <time>2018-05-05T07:17:54Z</time>
      </trkpt>
      <trkpt lat="49.49516" lon="5.86758">
        <ele>385.56</ele>
        <time>2018-05-05T07:17:55Z</time>
      </trkpt>
      <trkpt lat="49.49523" lon="5.86755">
        <ele>384.9</ele>
        <time>2018-05-05T07:17:56Z</time>
      </trkpt>
      <trkpt lat="49.49529" lon="5.86756">
        <ele>383.82</ele>
        <time>2018-05-05T07:17:57Z</time>
      </trkpt>
      <trkpt lat="49.49535" lon="5.86759">
        <ele>382.96</ele>
        <time>2018-05-05T07:17:58Z</time>
      </trkpt>
      <trkpt lat="49.4954" lon="5.86764">
        <ele>382.62</ele>
        <time>2018-05-05T07:17:59Z</time>
      </trkpt>
      <trkpt lat="49.49579" lon="5.86797">
        <ele>379.52</ele>
        <time>2018-05-05T07:18:05Z</time>
      </trkpt>
      <trkpt lat="49.49631" lon="5.86822">
        <ele>376.09</ele>
        <time>2018-05-05T07:18:11Z</time>
      </trkpt>
      <trkpt lat="49.49686" lon="5.86841">
        <ele>371.6</ele>
        <time>2018-05-05T07:18:17Z</time>
      </trkpt>
      <trkpt lat="49.49695" lon="5.8684">
        <ele>370.89</ele>
        <time>2018-05-05T07:18:18Z</time>
      </trkpt>
      <trkpt lat="49.49704" lon="5.86836">
        <ele>370.25</ele>
        <time>2018-05-05T07:18:19Z</time>
      </trkpt>
      <trkpt lat="49.49712" lon="5.8683">
        <ele>369.63</ele>
        <time>2018-05-05T07:18:20Z</time>
      </trkpt>
      <trkpt lat="49.49721" lon="5.86823">
        <ele>369.01</ele>
        <time>2018-05-05T07:18:21Z</time>
      </trkpt>
      <trkpt lat="49.49729" lon="5.86814">
        <ele>368.43</ele>
        <time>2018-05-05T07:18:22Z</time>
      </trkpt>
      <trkpt lat="49.49737" lon="5.86804">
        <ele>367.8</ele>
        <time>2018-05-05T07:18:23Z</time>
      </trkpt>
      <trkpt lat="49.49744" lon="5.86794">
        <ele>367.2</ele>
        <time>2018-05-05T07:18:24Z</time>
      </trkpt>
      <trkpt lat="49.49751" lon="5.86783">
        <ele>366.67</ele>
        <time>2018-05-05T07:18:25Z</time>
      </trkpt>
      <trkpt lat="49.49758" lon="5.86774">
        <ele>366.1</ele>
        <time>2018-05-05T07:18:26Z</time>
      </trkpt>
      <trkpt lat="49.49766" lon="5.86765">
        <ele>365.57</ele>
        <time>2018-05-05T07:18:27Z</time>
      </trkpt>
      <trkpt lat="49.49779" lon="5.86751">
        <ele>364.45</ele>
        <time>2018-05-05T07:18:29Z</time>
      </trkpt>
      <trkpt lat="49.49784" lon="5.86742">
        <ele>363.99</ele>
        <time>2018-05-05T07:18:30Z</time>
      </trkpt>
      <trkpt lat="49.49787" lon="5.86732">
        <ele>363.57</ele>
        <time>2018-05-05T07:18:31Z</time>
      </trkpt>
      <trkpt lat="49.49789" lon="5.86724">
        <ele>363.23</ele>
        <time>2018-05-05T07:18:32Z</time>
      </trkpt>
      <trkpt lat="49.49791" lon="5.86717">
        <ele>362.85</ele>
        <time>2018-05-05T07:18:33Z</time>
      </trkpt>
      <trkpt lat="49.49791" lon="5.86707">
        <ele>362.42</ele>
        <time>2018-05-05T07:18:37Z</time>
      </trkpt>
      <trkpt lat="49.4979" lon="5.86709">
        <ele>362.6</ele>
        <time>2018-05-05T07:18:38Z</time>
      </trkpt>
      <trkpt lat="49.49785" lon="5.86724">
        <ele>363.21</ele>
        <time>2018-05-05T07:18:43Z</time>
      </trkpt>
      <trkpt lat="49.49776" lon="5.86748">
        <ele>365.2</ele>
        <time>2018-05-05T07:18:51Z</time>
      </trkpt>
      <trkpt lat="49.49772" lon="5.86751">
        <ele>365.98</ele>
        <time>2018-05-05T07:18:53Z</time>
      </trkpt>
      <trkpt lat="49.4977" lon="5.86751">
        <ele>366.42</ele>
        <time>2018-05-05T07:18:54Z</time>
      </trkpt>
      <trkpt lat="49.49768" lon="5.86751">
        <ele>366.86</ele>
        <time>2018-05-05T07:18:55Z</time>
      </trkpt>
      <trkpt lat="49.49767" lon="5.8675">
        <ele>367.26</ele>
        <time>2018-05-05T07:18:56Z</time>
      </trkpt>
      <trkpt lat="49.49766" lon="5.86748">
        <ele>367.67</ele>
        <time>2018-05-05T07:18:57Z</time>
      </trkpt>
      <trkpt lat="49.49765" lon="5.86745">
        <ele>368.01</ele>
        <time>2018-05-05T07:18:58Z</time>
      </trkpt>
      <trkpt lat="49.49765" lon="5.86742">
        <ele>368.46</ele>
        <time>2018-05-05T07:18:59Z</time>
      </trkpt>
      <trkpt lat="49.49766" lon="5.86739">
        <ele>368.94</ele>
        <time>2018-05-05T07:19:00Z</time>
      </trkpt>
      <trkpt lat="49.49767" lon="5.86736">
        <ele>369.49</ele>
        <time>2018-05-05T07:19:01Z</time>
      </trkpt>
      <trkpt lat="49.49767" lon="5.86734">
        <ele>370.03</ele>
        <time>2018-05-05T07:19:02Z</time>
      </trkpt>
      <trkpt lat="49.49769" lon="5.86731">
        <ele>373.74</ele>
        <time>2018-05-05T07:19:10Z</time>
      </trkpt>
      <trkpt lat="49.49772" lon="5.86733">
        <ele>376.92</ele>
        <time>2018-05-05T07:19:20Z</time>
      </trkpt>
      <trkpt lat="49.49774" lon="5.86732">
        <ele>378.73</ele>
        <time>2018-05-05T07:19:24Z</time>
      </trkpt>
      <trkpt lat="49.49772" lon="5.86739">
        <ele>379.84</ele>
        <time>2018-05-05T07:19:31Z</time>
      </trkpt>
      <trkpt lat="49.49761" lon="5.8678">
        <ele>382.65</ele>
        <time>2018-05-05T07:19:38Z</time>
      </trkpt>
      <trkpt lat="49.49749" lon="5.86806">
        <ele>386.58</ele>
        <time>2018-05-05T07:19:45Z</time>
      </trkpt>
      <trkpt lat="49.49725" lon="5.86823">
        <ele>387.27</ele>
        <time>2018-05-05T07:19:52Z</time>
      </trkpt>
      <trkpt lat="49.49694" lon="5.86832">
        <ele>388.8</ele>
        <time>2018-05-05T07:20:01Z</time>
      </trkpt>
      <trkpt lat="49.49678" lon="5.86846">
        <ele>388.14</ele>
        <time>2018-05-05T07:20:07Z</time>
      </trkpt>
      <trkpt lat="49.49677" lon="5.86861">
        <ele>387.47</ele>
        <time>2018-05-05T07:20:12Z</time>
      </trkpt>
      <trkpt lat="49.49675" lon="5.86863">
        <ele>387.32</ele>
        <time>2018-05-05T07:20:13Z</time>
      </trkpt>
      <trkpt lat="49.49674" lon="5.86865">
        <ele>387.28</ele>
        <time>2018-05-05T07:20:14Z</time>
      </trkpt>
      <trkpt lat="49.49672" lon="5.86867">
        <ele>386.93</ele>
        <time>2018-05-05T07:20:15Z</time>
      </trkpt>
      <trkpt lat="49.49669" lon="5.86871">
        <ele>386.7</ele>
        <time>2018-05-05T07:20:16Z</time>
      </trkpt>
      <trkpt lat="49.49662" lon="5.86878">
        <ele>385.61</ele>
        <time>2018-05-05T07:20:18Z</time>
      </trkpt>
      <trkpt lat="49.49651" lon="5.86888">
        <ele>384.38</ele>
        <time>2018-05-05T07:20:21Z</time>
      </trkpt>
      <trkpt lat="49.49641" lon="5.86909">
        <ele>382.46</ele>
        <time>2018-05-05T07:20:25Z</time>
      </trkpt>
      <trkpt lat="49.49635" lon="5.86933">
        <ele>380.21</ele>
        <time>2018-05-05T07:20:30Z</time>
      </trkpt>
      <trkpt lat="49.49647" lon="5.86952">
        <ele>378.07</ele>
        <time>2018-05-05T07:20:35Z</time>
      </trkpt>
      <trkpt lat="49.49679" lon="5.86985">
        <ele>371.53</ele>
        <time>2018-05-05T07:20:45Z</time>
      </trkpt>
      <trkpt lat="49.49702" lon="5.87014">
        <ele>367.75</ele>
        <time>2018-05-05T07:20:53Z</time>
      </trkpt>
      <trkpt lat="49.49704" lon="5.87038">
        <ele>366.72</ele>
        <time>2018-05-05T07:20:58Z</time>
      </trkpt>
      <trkpt lat="49.49705" lon="5.87046">
        <ele>366.42</ele>
        <time>2018-05-05T07:21:01Z</time>
      </trkpt>
      <trkpt lat="49.49699" lon="5.87061">
        <ele>365.78</ele>
        <time>2018-05-05T07:21:07Z</time>
      </trkpt>
      <trkpt lat="49.49694" lon="5.87072">
        <ele>365.82</ele>
        <time>2018-05-05T07:21:11Z</time>
      </trkpt>
      <trkpt lat="49.49692" lon="5.87084">
        <ele>366.28</ele>
        <time>2018-05-05T07:21:18Z</time>
      </trkpt>
      <trkpt lat="49.49682" lon="5.87102">
        <ele>365.44</ele>
        <time>2018-05-05T07:21:24Z</time>
      </trkpt>
      <trkpt lat="49.49673" lon="5.87119">
        <ele>365.21</ele>
        <time>2018-05-05T07:21:30Z</time>
      </trkpt>
      <trkpt lat="49.49671" lon="5.87121">
        <ele>365.11</ele>
        <time>2018-05-05T07:21:31Z</time>
      </trkpt>
      <trkpt lat="49.49661" lon="5.87141">
        <ele>365.02</ele>
        <time>2018-05-05T07:21:38Z</time>
      </trkpt>
      <trkpt lat="49.49658" lon="5.87152">
        <ele>364.33</ele>
        <time>2018-05-05T07:21:43Z</time>
      </trkpt>
      <trkpt lat="49.49647" lon="5.87166">
        <ele>363.74</ele>
        <time>2018-05-05T07:21:52Z</time>
      </trkpt>
      <trkpt lat="49.49634" lon="5.87182">
        <ele>364.15</ele>
        <time>2018-05-05T07:22:00Z</time>
      </trkpt>
      <trkpt lat="49.49622" lon="5.87195">
        <ele>366.77</ele>
        <time>2018-05-05T07:22:08Z</time>
      </trkpt>
      <trkpt lat="49.49611" lon="5.87203">
        <ele>369.72</ele>
        <time>2018-05-05T07:22:16Z</time>
      </trkpt>
      <trkpt lat="49.49602" lon="5.87214">
        <ele>371.32</ele>
        <time>2018-05-05T07:22:24Z</time>
      </trkpt>
      <trkpt lat="49.49591" lon="5.87221">
        <ele>372.03</ele>
        <time>2018-05-05T07:22:33Z</time>
      </trkpt>
      <trkpt lat="49.49588" lon="5.87222">
        <ele>371.97</ele>
        <time>2018-05-05T07:22:36Z</time>
      </trkpt>
      <trkpt lat="49.49586" lon="5.87225">
        <ele>371.99</ele>
        <time>2018-05-05T07:22:38Z</time>
      </trkpt>
      <trkpt lat="49.4958" lon="5.87248">
        <ele>371.74</ele>
        <time>2018-05-05T07:22:47Z</time>
      </trkpt>
      <trkpt lat="49.49573" lon="5.8727">
        <ele>371.45</ele>
        <time>2018-05-05T07:22:56Z</time>
      </trkpt>
      <trkpt lat="49.49569" lon="5.87299">
        <ele>370.61</ele>
        <time>2018-05-05T07:23:06Z</time>
      </trkpt>
      <trkpt lat="49.49565" lon="5.87333">
        <ele>370.87</ele>
        <time>2018-05-05T07:23:16Z</time>
      </trkpt>
      <trkpt lat="49.49561" lon="5.87356">
        <ele>371.59</ele>
        <time>2018-05-05T07:23:24Z</time>
      </trkpt>
      <trkpt lat="49.49556" lon="5.87378">
        <ele>371.21</ele>
        <time>2018-05-05T07:23:32Z</time>
      </trkpt>
      <trkpt lat="49.49551" lon="5.874">
        <ele>371.26</ele>
        <time>2018-05-05T07:23:39Z</time>
      </trkpt>
      <trkpt lat="49.4955" lon="5.87428">
        <ele>371.25</ele>
        <time>2018-05-05T07:23:49Z</time>
      </trkpt>
      <trkpt lat="49.49556" lon="5.87457">
        <ele>370.79</ele>
        <time>2018-05-05T07:23:57Z</time>
      </trkpt>
      <trkpt lat="49.49572" lon="5.87513">
        <ele>370.33</ele>
        <time>2018-05-05T07:24:10Z</time>
      </trkpt>
      <trkpt lat="49.49584" lon="5.87539">
        <ele>370.26</ele>
        <time>2018-05-05T07:24:17Z</time>
      </trkpt>
      <trkpt lat="49.49609" lon="5.87555">
        <ele>369.23</ele>
        <time>2018-05-05T07:24:25Z</time>
      </trkpt>
      <trkpt lat="49.49622" lon="5.87544">
        <ele>369.01</ele>
        <time>2018-05-05T07:24:30Z</time>
      </trkpt>
      <trkpt lat="49.49628" lon="5.87534">
        <ele>368.62</ele>
        <time>2018-05-05T07:24:36Z</time>
      </trkpt>
      <trkpt lat="49.49628" lon="5.87533">
        <ele>368.49</ele>
        <time>2018-05-05T07:24:39Z</time>
      </trkpt>
      <trkpt lat="49.49626" lon="5.87524">
        <ele>368.4</ele>
        <time>2018-05-05T07:24:45Z</time>
      </trkpt>
      <trkpt lat="49.49626" lon="5.8752">
        <ele>368.41</ele>
        <time>2018-05-05T07:24:47Z</time>
      </trkpt>
      <trkpt lat="49.49626" lon="5.87507">
        <ele>368.43</ele>
        <time>2018-05-05T07:24:52Z</time>
      </trkpt>
      <trkpt lat="49.49624" lon="5.87477">
        <ele>368.97</ele>
        <time>2018-05-05T07:25:03Z</time>
      </trkpt>
      <trkpt lat="49.49622" lon="5.87449">
        <ele>369.09</ele>
        <time>2018-05-05T07:25:13Z</time>
      </trkpt>
      <trkpt lat="49.49619" lon="5.87419">
        <ele>369.2</ele>
        <time>2018-05-05T07:25:24Z</time>
      </trkpt>
      <trkpt lat="49.49616" lon="5.8739">
        <ele>368.96</ele>
        <time>2018-05-05T07:25:35Z</time>
      </trkpt>
      <trkpt lat="49.49621" lon="5.87356">
        <ele>367.51</ele>
        <time>2018-05-05T07:25:43Z</time>
      </trkpt>
      <trkpt lat="49.49634" lon="5.8734">
        <ele>365.69</ele>
        <time>2018-05-05T07:25:49Z</time>
      </trkpt>
      <trkpt lat="49.49657" lon="5.87304">
        <ele>361.55</ele>
        <time>2018-05-05T07:25:57Z</time>
      </trkpt>
      <trkpt lat="49.49683" lon="5.87253">
        <ele>357.15</ele>
        <time>2018-05-05T07:26:05Z</time>
      </trkpt>
      <trkpt lat="49.49702" lon="5.87196">
        <ele>354.65</ele>
        <time>2018-05-05T07:26:12Z</time>
      </trkpt>
      <trkpt lat="49.49706" lon="5.87184">
        <ele>354.09</ele>
        <time>2018-05-05T07:26:14Z</time>
      </trkpt>
      <trkpt lat="49.49707" lon="5.87177">
        <ele>353.79</ele>
        <time>2018-05-05T07:26:15Z</time>
      </trkpt>
      <trkpt lat="49.4971" lon="5.87171">
        <ele>353.51</ele>
        <time>2018-05-05T07:26:16Z</time>
      </trkpt>
      <trkpt lat="49.49727" lon="5.87132">
        <ele>352.33</ele>
        <time>2018-05-05T07:26:23Z</time>
      </trkpt>
      <trkpt lat="49.4974" lon="5.87121">
        <ele>352.13</ele>
        <time>2018-05-05T07:26:28Z</time>
      </trkpt>
      <trkpt lat="49.49746" lon="5.87126">
        <ele>352.12</ele>
        <time>2018-05-05T07:26:31Z</time>
      </trkpt>
      <trkpt lat="49.49746" lon="5.87131">
        <ele>352.09</ele>
        <time>2018-05-05T07:26:33Z</time>
      </trkpt>
      <trkpt lat="49.49745" lon="5.87134">
        <ele>352.15</ele>
        <time>2018-05-05T07:26:34Z</time>
      </trkpt>
      <trkpt lat="49.49744" lon="5.87138">
        <ele>352.2</ele>
        <time>2018-05-05T07:26:35Z</time>
      </trkpt>
      <trkpt lat="49.49743" lon="5.87141">
        <ele>352.19</ele>
        <time>2018-05-05T07:26:36Z</time>
      </trkpt>
      <trkpt lat="49.49741" lon="5.87144">
        <ele>352.19</ele>
        <time>2018-05-05T07:26:37Z</time>
      </trkpt>
      <trkpt lat="49.4974" lon="5.87147">
        <ele>352.1</ele>
        <time>2018-05-05T07:26:38Z</time>
      </trkpt>
      <trkpt lat="49.49738" lon="5.87165">
        <ele>351.49</ele>
        <time>2018-05-05T07:26:44Z</time>
      </trkpt>
      <trkpt lat="49.49739" lon="5.87167">
        <ele>351.2</ele>
        <time>2018-05-05T07:26:45Z</time>
      </trkpt>
      <trkpt lat="49.4974" lon="5.87169">
        <ele>350.81</ele>
        <time>2018-05-05T07:26:46Z</time>
      </trkpt>
      <trkpt lat="49.49741" lon="5.87172">
        <ele>350.45</ele>
        <time>2018-05-05T07:26:47Z</time>
      </trkpt>
      <trkpt lat="49.49741" lon="5.87174">
        <ele>350.38</ele>
        <time>2018-05-05T07:26:48Z</time>
      </trkpt>
      <trkpt lat="49.4974" lon="5.87176">
        <ele>350.3</ele>
        <time>2018-05-05T07:26:49Z</time>
      </trkpt>
      <trkpt lat="49.49739" lon="5.87179">
        <ele>350.11</ele>
        <time>2018-05-05T07:26:50Z</time>
      </trkpt>
      <trkpt lat="49.49739" lon="5.87181">
        <ele>349.91</ele>
        <time>2018-05-05T07:26:51Z</time>
      </trkpt>
      <trkpt lat="49.49738" lon="5.87184">
        <ele>349.78</ele>
        <time>2018-05-05T07:26:52Z</time>
      </trkpt>
      <trkpt lat="49.49736" lon="5.87186">
        <ele>349.66</ele>
        <time>2018-05-05T07:26:53Z</time>
      </trkpt>
      <trkpt lat="49.49731" lon="5.87202">
        <ele>348.54</ele>
        <time>2018-05-05T07:26:58Z</time>
      </trkpt>
      <trkpt lat="49.49723" lon="5.87227">
        <ele>346.59</ele>
        <time>2018-05-05T07:27:05Z</time>
      </trkpt>
      <trkpt lat="49.4972" lon="5.87237">
        <ele>345.69</ele>
        <time>2018-05-05T07:27:08Z</time>
      </trkpt>
      <trkpt lat="49.49719" lon="5.8724">
        <ele>345.46</ele>
        <time>2018-05-05T07:27:09Z</time>
      </trkpt>
      <trkpt lat="49.49718" lon="5.87243">
        <ele>345.1</ele>
        <time>2018-05-05T07:27:10Z</time>
      </trkpt>
      <trkpt lat="49.49717" lon="5.87246">
        <ele>345.02</ele>
        <time>2018-05-05T07:27:11Z</time>
      </trkpt>
      <trkpt lat="49.49716" lon="5.87249">
        <ele>344.97</ele>
        <time>2018-05-05T07:27:12Z</time>
      </trkpt>
      <trkpt lat="49.49715" lon="5.87252">
        <ele>344.94</ele>
        <time>2018-05-05T07:27:13Z</time>
      </trkpt>
      <trkpt lat="49.49713" lon="5.87255">
        <ele>344.61</ele>
        <time>2018-05-05T07:27:14Z</time>
      </trkpt>
      <trkpt lat="49.49713" lon="5.87258">
        <ele>344.14</ele>
        <time>2018-05-05T07:27:15Z</time>
      </trkpt>
      <trkpt lat="49.49712" lon="5.87261">
        <ele>343.89</ele>
        <time>2018-05-05T07:27:16Z</time>
      </trkpt>
      <trkpt lat="49.49711" lon="5.87264">
        <ele>344.01</ele>
        <time>2018-05-05T07:27:17Z</time>
      </trkpt>
      <trkpt lat="49.4971" lon="5.87266">
        <ele>343.95</ele>
        <time>2018-05-05T07:27:18Z</time>
      </trkpt>
      <trkpt lat="49.49704" lon="5.87285">
        <ele>343.72</ele>
        <time>2018-05-05T07:27:24Z</time>
      </trkpt>
      <trkpt lat="49.49698" lon="5.87307">
        <ele>342.99</ele>
        <time>2018-05-05T07:27:31Z</time>
      </trkpt>
      <trkpt lat="49.49697" lon="5.87314">
        <ele>343.11</ele>
        <time>2018-05-05T07:27:33Z</time>
      </trkpt>
      <trkpt lat="49.49696" lon="5.87319">
        <ele>343.28</ele>
        <time>2018-05-05T07:27:34Z</time>
      </trkpt>
      <trkpt lat="49.49695" lon="5.87324">
        <ele>343.38</ele>
        <time>2018-05-05T07:27:35Z</time>
      </trkpt>
      <trkpt lat="49.49695" lon="5.87335">
        <ele>345.37</ele>
        <time>2018-05-05T07:27:41Z</time>
      </trkpt>
      <trkpt lat="49.49698" lon="5.87345">
        <ele>349.53</ele>
        <time>2018-05-05T07:27:54Z</time>
      </trkpt>
      <trkpt lat="49.49703" lon="5.87351">
        <ele>349.96</ele>
        <time>2018-05-05T07:27:57Z</time>
      </trkpt>
      <trkpt lat="49.49706" lon="5.8735">
        <ele>351.28</ele>
        <time>2018-05-05T07:28:02Z</time>
      </trkpt>
      <trkpt lat="49.49709" lon="5.87351">
        <ele>352.9</ele>
        <time>2018-05-05T07:28:08Z</time>
      </trkpt>
      <trkpt lat="49.49721" lon="5.87373">
        <ele>357</ele>
        <time>2018-05-05T07:28:23Z</time>
      </trkpt>
      <trkpt lat="49.4973" lon="5.87391">
        <ele>357.65</ele>
        <time>2018-05-05T07:28:31Z</time>
      </trkpt>
      <trkpt lat="49.49732" lon="5.874">
        <ele>357.67</ele>
        <time>2018-05-05T07:28:34Z</time>
      </trkpt>
      <trkpt lat="49.49743" lon="5.87433">
        <ele>358.92</ele>
        <time>2018-05-05T07:28:46Z</time>
      </trkpt>
      <trkpt lat="49.49746" lon="5.87453">
        <ele>361.47</ele>
        <time>2018-05-05T07:28:53Z</time>
      </trkpt>
      <trkpt lat="49.49746" lon="5.87462">
        <ele>362.36</ele>
        <time>2018-05-05T07:28:56Z</time>
      </trkpt>
      <trkpt lat="49.49739" lon="5.87484">
        <ele>360.89</ele>
        <time>2018-05-05T07:29:03Z</time>
      </trkpt>
      <trkpt lat="49.49738" lon="5.8749">
        <ele>361.07</ele>
        <time>2018-05-05T07:29:05Z</time>
      </trkpt>
      <trkpt lat="49.49734" lon="5.87513">
        <ele>360.62</ele>
        <time>2018-05-05T07:29:12Z</time>
      </trkpt>
      <trkpt lat="49.49726" lon="5.87533">
        <ele>360.64</ele>
        <time>2018-05-05T07:29:18Z</time>
      </trkpt>
      <trkpt lat="49.49714" lon="5.87546">
        <ele>359.78</ele>
        <time>2018-05-05T07:29:25Z</time>
      </trkpt>
      <trkpt lat="49.49701" lon="5.87556">
        <ele>359.53</ele>
        <time>2018-05-05T07:29:31Z</time>
      </trkpt>
      <trkpt lat="49.49699" lon="5.87558">
        <ele>359.63</ele>
        <time>2018-05-05T07:29:32Z</time>
      </trkpt>
      <trkpt lat="49.49696" lon="5.87581">
        <ele>361.93</ele>
        <time>2018-05-05T07:29:39Z</time>
      </trkpt>
      <trkpt lat="49.49696" lon="5.87592">
        <ele>362.3</ele>
        <time>2018-05-05T07:29:43Z</time>
      </trkpt>
      <trkpt lat="49.49697" lon="5.87595">
        <ele>362.64</ele>
        <time>2018-05-05T07:29:44Z</time>
      </trkpt>
      <trkpt lat="49.49698" lon="5.87597">
        <ele>362.93</ele>
        <time>2018-05-05T07:29:45Z</time>
      </trkpt>
      <trkpt lat="49.49706" lon="5.87626">
        <ele>363.04</ele>
        <time>2018-05-05T07:29:54Z</time>
      </trkpt>
      <trkpt lat="49.49711" lon="5.87645">
        <ele>362.5</ele>
        <time>2018-05-05T07:30:01Z</time>
      </trkpt>
      <trkpt lat="49.49714" lon="5.87655">
        <ele>362.93</ele>
        <time>2018-05-05T07:30:05Z</time>
      </trkpt>
      <trkpt lat="49.49714" lon="5.87658">
        <ele>363.02</ele>
        <time>2018-05-05T07:30:06Z</time>
      </trkpt>
      <trkpt lat="49.49721" lon="5.87677">
        <ele>363.15</ele>
        <time>2018-05-05T07:30:12Z</time>
      </trkpt>
      <trkpt lat="49.49725" lon="5.87688">
        <ele>363.62</ele>
        <time>2018-05-05T07:30:16Z</time>
      </trkpt>
      <trkpt lat="49.49726" lon="5.87691">
        <ele>363.71</ele>
        <time>2018-05-05T07:30:17Z</time>
      </trkpt>
      <trkpt lat="49.49728" lon="5.87695">
        <ele>363.63</ele>
        <time>2018-05-05T07:30:18Z</time>
      </trkpt>
      <trkpt lat="49.49729" lon="5.87699">
        <ele>363.51</ele>
        <time>2018-05-05T07:30:19Z</time>
      </trkpt>
      <trkpt lat="49.4973" lon="5.87703">
        <ele>363.42</ele>
        <time>2018-05-05T07:30:20Z</time>
      </trkpt>
      <trkpt lat="49.49738" lon="5.87723">
        <ele>363.67</ele>
        <time>2018-05-05T07:30:26Z</time>
      </trkpt>
      <trkpt lat="49.49745" lon="5.87737">
        <ele>363.74</ele>
        <time>2018-05-05T07:30:31Z</time>
      </trkpt>
      <trkpt lat="49.49751" lon="5.87754">
        <ele>364.09</ele>
        <time>2018-05-05T07:30:37Z</time>
      </trkpt>
      <trkpt lat="49.49754" lon="5.8776">
        <ele>363.66</ele>
        <time>2018-05-05T07:30:39Z</time>
      </trkpt>
      <trkpt lat="49.49754" lon="5.87762">
        <ele>363.93</ele>
        <time>2018-05-05T07:30:40Z</time>
      </trkpt>
      <trkpt lat="49.49756" lon="5.87764">
        <ele>364.29</ele>
        <time>2018-05-05T07:30:41Z</time>
      </trkpt>
      <trkpt lat="49.49757" lon="5.87767">
        <ele>364.66</ele>
        <time>2018-05-05T07:30:42Z</time>
      </trkpt>
      <trkpt lat="49.49758" lon="5.8777">
        <ele>364.87</ele>
        <time>2018-05-05T07:30:43Z</time>
      </trkpt>
      <trkpt lat="49.49759" lon="5.87773">
        <ele>364.89</ele>
        <time>2018-05-05T07:30:44Z</time>
      </trkpt>
      <trkpt lat="49.4976" lon="5.87775">
        <ele>364.93</ele>
        <time>2018-05-05T07:30:45Z</time>
      </trkpt>
      <trkpt lat="49.49761" lon="5.87778">
        <ele>365.39</ele>
        <time>2018-05-05T07:30:46Z</time>
      </trkpt>
      <trkpt lat="49.49763" lon="5.87781">
        <ele>365.48</ele>
        <time>2018-05-05T07:30:47Z</time>
      </trkpt>
      <trkpt lat="49.49766" lon="5.8779">
        <ele>365.78</ele>
        <time>2018-05-05T07:30:50Z</time>
      </trkpt>
      <trkpt lat="49.49774" lon="5.87813">
        <ele>366.09</ele>
        <time>2018-05-05T07:30:57Z</time>
      </trkpt>
      <trkpt lat="49.49775" lon="5.87816">
        <ele>365.96</ele>
        <time>2018-05-05T07:30:58Z</time>
      </trkpt>
      <trkpt lat="49.49776" lon="5.87819">
        <ele>365.72</ele>
        <time>2018-05-05T07:30:59Z</time>
      </trkpt>
      <trkpt lat="49.49777" lon="5.87824">
        <ele>366.02</ele>
        <time>2018-05-05T07:31:01Z</time>
      </trkpt>
      <trkpt lat="49.49778" lon="5.87826">
        <ele>366.47</ele>
        <time>2018-05-05T07:31:02Z</time>
      </trkpt>
      <trkpt lat="49.4978" lon="5.87829">
        <ele>366.84</ele>
        <time>2018-05-05T07:31:03Z</time>
      </trkpt>
      <trkpt lat="49.49781" lon="5.87832">
        <ele>367.06</ele>
        <time>2018-05-05T07:31:04Z</time>
      </trkpt>
      <trkpt lat="49.49782" lon="5.87834">
        <ele>367.86</ele>
        <time>2018-05-05T07:31:05Z</time>
      </trkpt>
      <trkpt lat="49.49784" lon="5.87837">
        <ele>367.97</ele>
        <time>2018-05-05T07:31:06Z</time>
      </trkpt>
      <trkpt lat="49.49784" lon="5.87839">
        <ele>368.17</ele>
        <time>2018-05-05T07:31:07Z</time>
      </trkpt>
      <trkpt lat="49.49785" lon="5.87842">
        <ele>368.38</ele>
        <time>2018-05-05T07:31:08Z</time>
      </trkpt>
      <trkpt lat="49.49787" lon="5.87844">
        <ele>368.78</ele>
        <time>2018-05-05T07:31:09Z</time>
      </trkpt>
      <trkpt lat="49.49788" lon="5.87846">
        <ele>369.21</ele>
        <time>2018-05-05T07:31:10Z</time>
      </trkpt>
      <trkpt lat="49.49789" lon="5.87849">
        <ele>369.68</ele>
        <time>2018-05-05T07:31:11Z</time>
      </trkpt>
      <trkpt lat="49.4979" lon="5.87851">
        <ele>370.13</ele>
        <time>2018-05-05T07:31:12Z</time>
      </trkpt>
      <trkpt lat="49.49798" lon="5.87861">
        <ele>372.35</ele>
        <time>2018-05-05T07:31:18Z</time>
      </trkpt>
      <trkpt lat="49.49799" lon="5.87864">
        <ele>372.93</ele>
        <time>2018-05-05T07:31:19Z</time>
      </trkpt>
      <trkpt lat="49.49802" lon="5.87867">
        <ele>373.19</ele>
        <time>2018-05-05T07:31:20Z</time>
      </trkpt>
      <trkpt lat="49.49807" lon="5.87874">
        <ele>373.4</ele>
        <time>2018-05-05T07:31:23Z</time>
      </trkpt>
      <trkpt lat="49.49811" lon="5.87893">
        <ele>375.28</ele>
        <time>2018-05-05T07:31:31Z</time>
      </trkpt>
      <trkpt lat="49.49815" lon="5.87899">
        <ele>375.43</ele>
        <time>2018-05-05T07:31:34Z</time>
      </trkpt>
      <trkpt lat="49.49819" lon="5.87909">
        <ele>374.86</ele>
        <time>2018-05-05T07:31:38Z</time>
      </trkpt>
      <trkpt lat="49.49821" lon="5.87914">
        <ele>374.81</ele>
        <time>2018-05-05T07:31:40Z</time>
      </trkpt>
      <trkpt lat="49.49824" lon="5.87919">
        <ele>374.64</ele>
        <time>2018-05-05T07:31:42Z</time>
      </trkpt>
      <trkpt lat="49.49828" lon="5.87937">
        <ele>374.67</ele>
        <time>2018-05-05T07:31:47Z</time>
      </trkpt>
      <trkpt lat="49.49832" lon="5.87954">
        <ele>374.47</ele>
        <time>2018-05-05T07:31:51Z</time>
      </trkpt>
      <trkpt lat="49.49832" lon="5.87959">
        <ele>374.2</ele>
        <time>2018-05-05T07:31:52Z</time>
      </trkpt>
      <trkpt lat="49.49833" lon="5.87963">
        <ele>374.03</ele>
        <time>2018-05-05T07:31:53Z</time>
      </trkpt>
      <trkpt lat="49.49833" lon="5.87975">
        <ele>373.22</ele>
        <time>2018-05-05T07:31:56Z</time>
      </trkpt>
      <trkpt lat="49.49833" lon="5.8798">
        <ele>373.08</ele>
        <time>2018-05-05T07:31:58Z</time>
      </trkpt>
      <trkpt lat="49.49834" lon="5.87996">
        <ele>371.72</ele>
        <time>2018-05-05T07:32:04Z</time>
      </trkpt>
      <trkpt lat="49.49835" lon="5.87998">
        <ele>371.3</ele>
        <time>2018-05-05T07:32:05Z</time>
      </trkpt>
      <trkpt lat="49.49835" lon="5.88001">
        <ele>371.16</ele>
        <time>2018-05-05T07:32:06Z</time>
      </trkpt>
      <trkpt lat="49.49835" lon="5.88004">
        <ele>371.02</ele>
        <time>2018-05-05T07:32:07Z</time>
      </trkpt>
      <trkpt lat="49.49835" lon="5.88007">
        <ele>370.59</ele>
        <time>2018-05-05T07:32:08Z</time>
      </trkpt>
      <trkpt lat="49.49835" lon="5.88011">
        <ele>370.55</ele>
        <time>2018-05-05T07:32:09Z</time>
      </trkpt>
      <trkpt lat="49.49835" lon="5.88013">
        <ele>370.57</ele>
        <time>2018-05-05T07:32:10Z</time>
      </trkpt>
      <trkpt lat="49.49835" lon="5.88016">
        <ele>370.44</ele>
        <time>2018-05-05T07:32:11Z</time>
      </trkpt>
      <trkpt lat="49.49836" lon="5.88018">
        <ele>370.54</ele>
        <time>2018-05-05T07:32:12Z</time>
      </trkpt>
      <trkpt lat="49.49837" lon="5.8802">
        <ele>370.46</ele>
        <time>2018-05-05T07:32:13Z</time>
      </trkpt>
      <trkpt lat="49.49838" lon="5.88023">
        <ele>370.35</ele>
        <time>2018-05-05T07:32:14Z</time>
      </trkpt>
      <trkpt lat="49.49841" lon="5.88035">
        <ele>369.84</ele>
        <time>2018-05-05T07:32:19Z</time>
      </trkpt>
      <trkpt lat="49.49841" lon="5.88042">
        <ele>369.41</ele>
        <time>2018-05-05T07:32:22Z</time>
      </trkpt>
      <trkpt lat="49.49841" lon="5.88045">
        <ele>369.26</ele>
        <time>2018-05-05T07:32:23Z</time>
      </trkpt>
      <trkpt lat="49.49842" lon="5.88048">
        <ele>368.95</ele>
        <time>2018-05-05T07:32:24Z</time>
      </trkpt>
      <trkpt lat="49.49842" lon="5.88051">
        <ele>368.81</ele>
        <time>2018-05-05T07:32:25Z</time>
      </trkpt>
      <trkpt lat="49.49843" lon="5.88054">
        <ele>368.69</ele>
        <time>2018-05-05T07:32:26Z</time>
      </trkpt>
      <trkpt lat="49.49843" lon="5.88057">
        <ele>368.67</ele>
        <time>2018-05-05T07:32:27Z</time>
      </trkpt>
      <trkpt lat="49.49844" lon="5.88059">
        <ele>368.5</ele>
        <time>2018-05-05T07:32:28Z</time>
      </trkpt>
      <trkpt lat="49.49844" lon="5.88062">
        <ele>368.42</ele>
        <time>2018-05-05T07:32:29Z</time>
      </trkpt>
      <trkpt lat="49.49845" lon="5.88065">
        <ele>368.11</ele>
        <time>2018-05-05T07:32:30Z</time>
      </trkpt>
      <trkpt lat="49.49845" lon="5.88068">
        <ele>368.25</ele>
        <time>2018-05-05T07:32:31Z</time>
      </trkpt>
      <trkpt lat="49.49845" lon="5.8807">
        <ele>368.21</ele>
        <time>2018-05-05T07:32:32Z</time>
      </trkpt>
      <trkpt lat="49.49846" lon="5.88073">
        <ele>368.28</ele>
        <time>2018-05-05T07:32:33Z</time>
      </trkpt>
      <trkpt lat="49.49846" lon="5.88075">
        <ele>368.2</ele>
        <time>2018-05-05T07:32:34Z</time>
      </trkpt>
      <trkpt lat="49.49846" lon="5.88078">
        <ele>367.69</ele>
        <time>2018-05-05T07:32:35Z</time>
      </trkpt>
      <trkpt lat="49.49846" lon="5.88081">
        <ele>367.72</ele>
        <time>2018-05-05T07:32:36Z</time>
      </trkpt>
      <trkpt lat="49.49847" lon="5.88085">
        <ele>367.62</ele>
        <time>2018-05-05T07:32:37Z</time>
      </trkpt>
      <trkpt lat="49.49847" lon="5.88088">
        <ele>367.75</ele>
        <time>2018-05-05T07:32:38Z</time>
      </trkpt>
      <trkpt lat="49.49847" lon="5.88091">
        <ele>367.58</ele>
        <time>2018-05-05T07:32:39Z</time>
      </trkpt>
      <trkpt lat="49.49847" lon="5.88097">
        <ele>367.13</ele>
        <time>2018-05-05T07:32:41Z</time>
      </trkpt>
      <trkpt lat="49.49847" lon="5.881">
        <ele>367.23</ele>
        <time>2018-05-05T07:32:42Z</time>
      </trkpt>
      <trkpt lat="49.49848" lon="5.88102">
        <ele>367.23</ele>
        <time>2018-05-05T07:32:43Z</time>
      </trkpt>
      <trkpt lat="49.49849" lon="5.88106">
        <ele>367.27</ele>
        <time>2018-05-05T07:32:44Z</time>
      </trkpt>
      <trkpt lat="49.49849" lon="5.88109">
        <ele>367.13</ele>
        <time>2018-05-05T07:32:45Z</time>
      </trkpt>
      <trkpt lat="49.4985" lon="5.88112">
        <ele>367.06</ele>
        <time>2018-05-05T07:32:46Z</time>
      </trkpt>
      <trkpt lat="49.49853" lon="5.88131">
        <ele>367.02</ele>
        <time>2018-05-05T07:32:52Z</time>
      </trkpt>
      <trkpt lat="49.49853" lon="5.88134">
        <ele>366.83</ele>
        <time>2018-05-05T07:32:53Z</time>
      </trkpt>
      <trkpt lat="49.49853" lon="5.88137">
        <ele>366.61</ele>
        <time>2018-05-05T07:32:54Z</time>
      </trkpt>
      <trkpt lat="49.49852" lon="5.88142">
        <ele>366.1</ele>
        <time>2018-05-05T07:32:56Z</time>
      </trkpt>
      <trkpt lat="49.49853" lon="5.88145">
        <ele>366.09</ele>
        <time>2018-05-05T07:32:57Z</time>
      </trkpt>
      <trkpt lat="49.49854" lon="5.88148">
        <ele>366.22</ele>
        <time>2018-05-05T07:32:58Z</time>
      </trkpt>
      <trkpt lat="49.49855" lon="5.8815">
        <ele>366.12</ele>
        <time>2018-05-05T07:32:59Z</time>
      </trkpt>
      <trkpt lat="49.49856" lon="5.88153">
        <ele>366.03</ele>
        <time>2018-05-05T07:33:00Z</time>
      </trkpt>
      <trkpt lat="49.49856" lon="5.88155">
        <ele>365.95</ele>
        <time>2018-05-05T07:33:01Z</time>
      </trkpt>
      <trkpt lat="49.49857" lon="5.88169">
        <ele>365.74</ele>
        <time>2018-05-05T07:33:08Z</time>
      </trkpt>
      <trkpt lat="49.49856" lon="5.88177">
        <ele>365.8</ele>
        <time>2018-05-05T07:33:12Z</time>
      </trkpt>
      <trkpt lat="49.49855" lon="5.88197">
        <ele>366.21</ele>
        <time>2018-05-05T07:33:21Z</time>
      </trkpt>
      <trkpt lat="49.49857" lon="5.8821">
        <ele>366.4</ele>
        <time>2018-05-05T07:33:25Z</time>
      </trkpt>
      <trkpt lat="49.49858" lon="5.88213">
        <ele>366.56</ele>
        <time>2018-05-05T07:33:26Z</time>
      </trkpt>
      <trkpt lat="49.49859" lon="5.88231">
        <ele>368.32</ele>
        <time>2018-05-05T07:33:33Z</time>
      </trkpt>
      <trkpt lat="49.49858" lon="5.88241">
        <ele>369.44</ele>
        <time>2018-05-05T07:33:37Z</time>
      </trkpt>
      <trkpt lat="49.49858" lon="5.88244">
        <ele>369.69</ele>
        <time>2018-05-05T07:33:38Z</time>
      </trkpt>
      <trkpt lat="49.49859" lon="5.88246">
        <ele>369.75</ele>
        <time>2018-05-05T07:33:39Z</time>
      </trkpt>
      <trkpt lat="49.49859" lon="5.88249">
        <ele>369.91</ele>
        <time>2018-05-05T07:33:40Z</time>
      </trkpt>
      <trkpt lat="49.4986" lon="5.88253">
        <ele>370.02</ele>
        <time>2018-05-05T07:33:41Z</time>
      </trkpt>
      <trkpt lat="49.49862" lon="5.88268">
        <ele>370.68</ele>
        <time>2018-05-05T07:33:46Z</time>
      </trkpt>
      <trkpt lat="49.49862" lon="5.88271">
        <ele>370.78</ele>
        <time>2018-05-05T07:33:47Z</time>
      </trkpt>
      <trkpt lat="49.49861" lon="5.88277">
        <ele>371.23</ele>
        <time>2018-05-05T07:33:49Z</time>
      </trkpt>
      <trkpt lat="49.4986" lon="5.8828">
        <ele>371.68</ele>
        <time>2018-05-05T07:33:50Z</time>
      </trkpt>
      <trkpt lat="49.4986" lon="5.88282">
        <ele>371.88</ele>
        <time>2018-05-05T07:33:51Z</time>
      </trkpt>
      <trkpt lat="49.4986" lon="5.88284">
        <ele>372.15</ele>
        <time>2018-05-05T07:33:52Z</time>
      </trkpt>
      <trkpt lat="49.4986" lon="5.88287">
        <ele>372.46</ele>
        <time>2018-05-05T07:33:53Z</time>
      </trkpt>
      <trkpt lat="49.49861" lon="5.88289">
        <ele>372.84</ele>
        <time>2018-05-05T07:33:54Z</time>
      </trkpt>
      <trkpt lat="49.4986" lon="5.88293">
        <ele>372.89</ele>
        <time>2018-05-05T07:33:55Z</time>
      </trkpt>
      <trkpt lat="49.4986" lon="5.88298">
        <ele>372.85</ele>
        <time>2018-05-05T07:33:56Z</time>
      </trkpt>
      <trkpt lat="49.49861" lon="5.88302">
        <ele>373.04</ele>
        <time>2018-05-05T07:33:57Z</time>
      </trkpt>
      <trkpt lat="49.49863" lon="5.88311">
        <ele>373.49</ele>
        <time>2018-05-05T07:34:00Z</time>
      </trkpt>
      <trkpt lat="49.49862" lon="5.88315">
        <ele>373.4</ele>
        <time>2018-05-05T07:34:01Z</time>
      </trkpt>
      <trkpt lat="49.4986" lon="5.88334">
        <ele>373.39</ele>
        <time>2018-05-05T07:34:07Z</time>
      </trkpt>
      <trkpt lat="49.49863" lon="5.88344">
        <ele>374.02</ele>
        <time>2018-05-05T07:34:11Z</time>
      </trkpt>
      <trkpt lat="49.49863" lon="5.88347">
        <ele>374.21</ele>
        <time>2018-05-05T07:34:12Z</time>
      </trkpt>
      <trkpt lat="49.49864" lon="5.88354">
        <ele>374.54</ele>
        <time>2018-05-05T07:34:15Z</time>
      </trkpt>
      <trkpt lat="49.49864" lon="5.88357">
        <ele>374.56</ele>
        <time>2018-05-05T07:34:16Z</time>
      </trkpt>
      <trkpt lat="49.49863" lon="5.8836">
        <ele>374.62</ele>
        <time>2018-05-05T07:34:17Z</time>
      </trkpt>
      <trkpt lat="49.49862" lon="5.88362">
        <ele>374.73</ele>
        <time>2018-05-05T07:34:18Z</time>
      </trkpt>
      <trkpt lat="49.49862" lon="5.88364">
        <ele>374.77</ele>
        <time>2018-05-05T07:34:19Z</time>
      </trkpt>
      <trkpt lat="49.49862" lon="5.88366">
        <ele>374.71</ele>
        <time>2018-05-05T07:34:20Z</time>
      </trkpt>
      <trkpt lat="49.49863" lon="5.88369">
        <ele>374.9</ele>
        <time>2018-05-05T07:34:21Z</time>
      </trkpt>
      <trkpt lat="49.49864" lon="5.88386">
        <ele>374.29</ele>
        <time>2018-05-05T07:34:26Z</time>
      </trkpt>
      <trkpt lat="49.49861" lon="5.88402">
        <ele>372.75</ele>
        <time>2018-05-05T07:34:31Z</time>
      </trkpt>
      <trkpt lat="49.49852" lon="5.88411">
        <ele>373.17</ele>
        <time>2018-05-05T07:34:38Z</time>
      </trkpt>
      <trkpt lat="49.4985" lon="5.8841">
        <ele>373.19</ele>
        <time>2018-05-05T07:34:40Z</time>
      </trkpt>
      <trkpt lat="49.49848" lon="5.8841">
        <ele>373.17</ele>
        <time>2018-05-05T07:34:41Z</time>
      </trkpt>
      <trkpt lat="49.49847" lon="5.8841">
        <ele>372.91</ele>
        <time>2018-05-05T07:34:42Z</time>
      </trkpt>
      <trkpt lat="49.49845" lon="5.88409">
        <ele>372.45</ele>
        <time>2018-05-05T07:34:43Z</time>
      </trkpt>
      <trkpt lat="49.49844" lon="5.88409">
        <ele>372.21</ele>
        <time>2018-05-05T07:34:44Z</time>
      </trkpt>
      <trkpt lat="49.49833" lon="5.8841">
        <ele>371.3</ele>
        <time>2018-05-05T07:34:50Z</time>
      </trkpt>
      <trkpt lat="49.49821" lon="5.88411">
        <ele>371.12</ele>
        <time>2018-05-05T07:34:58Z</time>
      </trkpt>
      <trkpt lat="49.49814" lon="5.88414">
        <ele>371.27</ele>
        <time>2018-05-05T07:35:04Z</time>
      </trkpt>
      <trkpt lat="49.49813" lon="5.88416">
        <ele>371.11</ele>
        <time>2018-05-05T07:35:05Z</time>
      </trkpt>
      <trkpt lat="49.49811" lon="5.88418">
        <ele>371.05</ele>
        <time>2018-05-05T07:35:06Z</time>
      </trkpt>
      <trkpt lat="49.4981" lon="5.8842">
        <ele>370.95</ele>
        <time>2018-05-05T07:35:07Z</time>
      </trkpt>
      <trkpt lat="49.49809" lon="5.88422">
        <ele>370.91</ele>
        <time>2018-05-05T07:35:08Z</time>
      </trkpt>
      <trkpt lat="49.49808" lon="5.88424">
        <ele>370.9</ele>
        <time>2018-05-05T07:35:09Z</time>
      </trkpt>
      <trkpt lat="49.49806" lon="5.88426">
        <ele>370.86</ele>
        <time>2018-05-05T07:35:10Z</time>
      </trkpt>
      <trkpt lat="49.49805" lon="5.88427">
        <ele>370.82</ele>
        <time>2018-05-05T07:35:11Z</time>
      </trkpt>
      <trkpt lat="49.49804" lon="5.88429">
        <ele>370.75</ele>
        <time>2018-05-05T07:35:12Z</time>
      </trkpt>
      <trkpt lat="49.49803" lon="5.88431">
        <ele>370.73</ele>
        <time>2018-05-05T07:35:13Z</time>
      </trkpt>
      <trkpt lat="49.49801" lon="5.88432">
        <ele>370.73</ele>
        <time>2018-05-05T07:35:14Z</time>
      </trkpt>
      <trkpt lat="49.498" lon="5.88434">
        <ele>370.64</ele>
        <time>2018-05-05T07:35:15Z</time>
      </trkpt>
      <trkpt lat="49.49798" lon="5.88436">
        <ele>370.54</ele>
        <time>2018-05-05T07:35:16Z</time>
      </trkpt>
      <trkpt lat="49.49798" lon="5.88438">
        <ele>370.63</ele>
        <time>2018-05-05T07:35:17Z</time>
      </trkpt>
      <trkpt lat="49.49797" lon="5.88441">
        <ele>370.63</ele>
        <time>2018-05-05T07:35:18Z</time>
      </trkpt>
      <trkpt lat="49.49796" lon="5.88444">
        <ele>370.61</ele>
        <time>2018-05-05T07:35:19Z</time>
      </trkpt>
      <trkpt lat="49.49795" lon="5.88447">
        <ele>370.61</ele>
        <time>2018-05-05T07:35:20Z</time>
      </trkpt>
      <trkpt lat="49.49794" lon="5.8845">
        <ele>370.53</ele>
        <time>2018-05-05T07:35:21Z</time>
      </trkpt>
      <trkpt lat="49.49793" lon="5.88452">
        <ele>370.33</ele>
        <time>2018-05-05T07:35:22Z</time>
      </trkpt>
      <trkpt lat="49.49792" lon="5.88454">
        <ele>370.25</ele>
        <time>2018-05-05T07:35:23Z</time>
      </trkpt>
      <trkpt lat="49.4979" lon="5.88455">
        <ele>370.14</ele>
        <time>2018-05-05T07:35:24Z</time>
      </trkpt>
      <trkpt lat="49.49789" lon="5.88457">
        <ele>370.02</ele>
        <time>2018-05-05T07:35:25Z</time>
      </trkpt>
      <trkpt lat="49.49788" lon="5.88459">
        <ele>369.89</ele>
        <time>2018-05-05T07:35:26Z</time>
      </trkpt>
      <trkpt lat="49.49786" lon="5.88462">
        <ele>369.73</ele>
        <time>2018-05-05T07:35:27Z</time>
      </trkpt>
      <trkpt lat="49.49777" lon="5.88477">
        <ele>368.46</ele>
        <time>2018-05-05T07:35:33Z</time>
      </trkpt>
      <trkpt lat="49.49772" lon="5.88486">
        <ele>367.95</ele>
        <time>2018-05-05T07:35:37Z</time>
      </trkpt>
      <trkpt lat="49.49771" lon="5.88488">
        <ele>367.89</ele>
        <time>2018-05-05T07:35:38Z</time>
      </trkpt>
      <trkpt lat="49.49767" lon="5.88505">
        <ele>367.44</ele>
        <time>2018-05-05T07:35:45Z</time>
      </trkpt>
      <trkpt lat="49.49764" lon="5.88513">
        <ele>368.06</ele>
        <time>2018-05-05T07:35:48Z</time>
      </trkpt>
      <trkpt lat="49.49762" lon="5.88515">
        <ele>368.26</ele>
        <time>2018-05-05T07:35:49Z</time>
      </trkpt>
      <trkpt lat="49.49762" lon="5.88518">
        <ele>368.48</ele>
        <time>2018-05-05T07:35:50Z</time>
      </trkpt>
      <trkpt lat="49.49761" lon="5.8852">
        <ele>368.63</ele>
        <time>2018-05-05T07:35:51Z</time>
      </trkpt>
      <trkpt lat="49.4976" lon="5.88523">
        <ele>369.12</ele>
        <time>2018-05-05T07:35:52Z</time>
      </trkpt>
      <trkpt lat="49.49753" lon="5.88542">
        <ele>371.31</ele>
        <time>2018-05-05T07:36:00Z</time>
      </trkpt>
      <trkpt lat="49.4974" lon="5.88562">
        <ele>374.82</ele>
        <time>2018-05-05T07:36:10Z</time>
      </trkpt>
      <trkpt lat="49.49729" lon="5.88578">
        <ele>378.68</ele>
        <time>2018-05-05T07:36:18Z</time>
      </trkpt>
      <trkpt lat="49.49716" lon="5.88595">
        <ele>383.21</ele>
        <time>2018-05-05T07:36:27Z</time>
      </trkpt>
      <trkpt lat="49.49702" lon="5.88609">
        <ele>388.29</ele>
        <time>2018-05-05T07:36:36Z</time>
      </trkpt>
      <trkpt lat="49.49689" lon="5.88622">
        <ele>391.84</ele>
        <time>2018-05-05T07:36:44Z</time>
      </trkpt>
      <trkpt lat="49.49676" lon="5.88626">
        <ele>393.47</ele>
        <time>2018-05-05T07:36:50Z</time>
      </trkpt>
      <trkpt lat="49.49663" lon="5.88634">
        <ele>396.05</ele>
        <time>2018-05-05T07:36:58Z</time>
      </trkpt>
      <trkpt lat="49.49649" lon="5.88644">
        <ele>397.94</ele>
        <time>2018-05-05T07:37:05Z</time>
      </trkpt>
      <trkpt lat="49.49636" lon="5.88654">
        <ele>399.34</ele>
        <time>2018-05-05T07:37:14Z</time>
      </trkpt>
      <trkpt lat="49.49621" lon="5.88665">
        <ele>399.82</ele>
        <time>2018-05-05T07:37:24Z</time>
      </trkpt>
      <trkpt lat="49.49608" lon="5.88675">
        <ele>400.21</ele>
        <time>2018-05-05T07:37:31Z</time>
      </trkpt>
      <trkpt lat="49.49589" lon="5.88688">
        <ele>400.51</ele>
        <time>2018-05-05T07:37:39Z</time>
      </trkpt>
      <trkpt lat="49.49575" lon="5.88701">
        <ele>399.56</ele>
        <time>2018-05-05T07:37:47Z</time>
      </trkpt>
      <trkpt lat="49.49563" lon="5.8871">
        <ele>399.43</ele>
        <time>2018-05-05T07:37:54Z</time>
      </trkpt>
      <trkpt lat="49.49549" lon="5.88721">
        <ele>400.4</ele>
        <time>2018-05-05T07:38:01Z</time>
      </trkpt>
      <trkpt lat="49.49535" lon="5.88733">
        <ele>399.35</ele>
        <time>2018-05-05T07:38:07Z</time>
      </trkpt>
      <trkpt lat="49.4952" lon="5.88745">
        <ele>397.77</ele>
        <time>2018-05-05T07:38:15Z</time>
      </trkpt>
      <trkpt lat="49.49518" lon="5.88746">
        <ele>397.2</ele>
        <time>2018-05-05T07:38:16Z</time>
      </trkpt>
      <trkpt lat="49.49516" lon="5.88747">
        <ele>396.53</ele>
        <time>2018-05-05T07:38:17Z</time>
      </trkpt>
      <trkpt lat="49.49514" lon="5.88748">
        <ele>396.15</ele>
        <time>2018-05-05T07:38:18Z</time>
      </trkpt>
      <trkpt lat="49.49512" lon="5.88749">
        <ele>396.13</ele>
        <time>2018-05-05T07:38:19Z</time>
      </trkpt>
      <trkpt lat="49.49511" lon="5.8875">
        <ele>396.33</ele>
        <time>2018-05-05T07:38:20Z</time>
      </trkpt>
      <trkpt lat="49.49497" lon="5.88757">
        <ele>396.15</ele>
        <time>2018-05-05T07:38:28Z</time>
      </trkpt>
      <trkpt lat="49.49476" lon="5.88767">
        <ele>395.16</ele>
        <time>2018-05-05T07:38:37Z</time>
      </trkpt>
      <trkpt lat="49.4946" lon="5.88778">
        <ele>394.97</ele>
        <time>2018-05-05T07:38:46Z</time>
      </trkpt>
      <trkpt lat="49.49443" lon="5.88789">
        <ele>394.8</ele>
        <time>2018-05-05T07:38:55Z</time>
      </trkpt>
      <trkpt lat="49.4943" lon="5.88796">
        <ele>395.85</ele>
        <time>2018-05-05T07:39:03Z</time>
      </trkpt>
      <trkpt lat="49.4942" lon="5.88801">
        <ele>397.03</ele>
        <time>2018-05-05T07:39:10Z</time>
      </trkpt>
      <trkpt lat="49.4941" lon="5.88806">
        <ele>398.55</ele>
        <time>2018-05-05T07:39:17Z</time>
      </trkpt>
      <trkpt lat="49.49398" lon="5.88807">
        <ele>400.26</ele>
        <time>2018-05-05T07:39:24Z</time>
      </trkpt>
      <trkpt lat="49.49392" lon="5.88809">
        <ele>400.71</ele>
        <time>2018-05-05T07:39:28Z</time>
      </trkpt>
      <trkpt lat="49.49391" lon="5.88808">
        <ele>400.79</ele>
        <time>2018-05-05T07:39:29Z</time>
      </trkpt>
      <trkpt lat="49.4939" lon="5.88807">
        <ele>400.9</ele>
        <time>2018-05-05T07:39:30Z</time>
      </trkpt>
      <trkpt lat="49.49389" lon="5.88806">
        <ele>401.07</ele>
        <time>2018-05-05T07:39:31Z</time>
      </trkpt>
      <trkpt lat="49.49388" lon="5.88805">
        <ele>401.21</ele>
        <time>2018-05-05T07:39:32Z</time>
      </trkpt>
      <trkpt lat="49.49387" lon="5.88804">
        <ele>401.25</ele>
        <time>2018-05-05T07:39:33Z</time>
      </trkpt>
      <trkpt lat="49.49386" lon="5.88803">
        <ele>401.22</ele>
        <time>2018-05-05T07:39:34Z</time>
      </trkpt>
      <trkpt lat="49.49385" lon="5.88802">
        <ele>401.19</ele>
        <time>2018-05-05T07:39:35Z</time>
      </trkpt>
      <trkpt lat="49.49373" lon="5.88787">
        <ele>400.74</ele>
        <time>2018-05-05T07:39:42Z</time>
      </trkpt>
      <trkpt lat="49.49372" lon="5.88781">
        <ele>400.78</ele>
        <time>2018-05-05T07:39:44Z</time>
      </trkpt>
      <trkpt lat="49.49372" lon="5.88773">
        <ele>400.4</ele>
        <time>2018-05-05T07:39:47Z</time>
      </trkpt>
      <trkpt lat="49.49372" lon="5.88771">
        <ele>400.24</ele>
        <time>2018-05-05T07:39:48Z</time>
      </trkpt>
      <trkpt lat="49.49372" lon="5.8877">
        <ele>399.97</ele>
        <time>2018-05-05T07:39:49Z</time>
      </trkpt>
      <trkpt lat="49.49372" lon="5.88768">
        <ele>399.82</ele>
        <time>2018-05-05T07:39:50Z</time>
      </trkpt>
      <trkpt lat="49.49372" lon="5.88766">
        <ele>399.72</ele>
        <time>2018-05-05T07:39:51Z</time>
      </trkpt>
      <trkpt lat="49.49372" lon="5.88763">
        <ele>399.54</ele>
        <time>2018-05-05T07:39:52Z</time>
      </trkpt>
      <trkpt lat="49.49371" lon="5.88761">
        <ele>399.39</ele>
        <time>2018-05-05T07:39:53Z</time>
      </trkpt>
      <trkpt lat="49.49371" lon="5.88755">
        <ele>398.83</ele>
        <time>2018-05-05T07:39:55Z</time>
      </trkpt>
      <trkpt lat="49.49367" lon="5.88741">
        <ele>398.57</ele>
        <time>2018-05-05T07:40:01Z</time>
      </trkpt>
      <trkpt lat="49.49366" lon="5.88739">
        <ele>398.53</ele>
        <time>2018-05-05T07:40:02Z</time>
      </trkpt>
      <trkpt lat="49.49365" lon="5.88738">
        <ele>398.32</ele>
        <time>2018-05-05T07:40:03Z</time>
      </trkpt>
      <trkpt lat="49.49352" lon="5.88734">
        <ele>398.23</ele>
        <time>2018-05-05T07:40:11Z</time>
      </trkpt>
      <trkpt lat="49.49338" lon="5.88731">
        <ele>398.74</ele>
        <time>2018-05-05T07:40:19Z</time>
      </trkpt>
      <trkpt lat="49.49323" lon="5.88725">
        <ele>398.62</ele>
        <time>2018-05-05T07:40:28Z</time>
      </trkpt>
      <trkpt lat="49.49306" lon="5.88716">
        <ele>398.56</ele>
        <time>2018-05-05T07:40:36Z</time>
      </trkpt>
      <trkpt lat="49.49287" lon="5.88699">
        <ele>399.03</ele>
        <time>2018-05-05T07:40:44Z</time>
      </trkpt>
      <trkpt lat="49.49272" lon="5.88671">
        <ele>399.18</ele>
        <time>2018-05-05T07:40:53Z</time>
      </trkpt>
      <trkpt lat="49.4927" lon="5.88649">
        <ele>400.62</ele>
        <time>2018-05-05T07:41:00Z</time>
      </trkpt>
      <trkpt lat="49.49275" lon="5.88628">
        <ele>402.6</ele>
        <time>2018-05-05T07:41:08Z</time>
      </trkpt>
      <trkpt lat="49.49286" lon="5.88604">
        <ele>404.48</ele>
        <time>2018-05-05T07:41:19Z</time>
      </trkpt>
      <trkpt lat="49.49302" lon="5.88578">
        <ele>406.3</ele>
        <time>2018-05-05T07:41:32Z</time>
      </trkpt>
      <trkpt lat="49.49308" lon="5.88559">
        <ele>407.62</ele>
        <time>2018-05-05T07:41:40Z</time>
      </trkpt>
      <trkpt lat="49.49308" lon="5.88531">
        <ele>408.6</ele>
        <time>2018-05-05T07:41:50Z</time>
      </trkpt>
      <trkpt lat="49.49302" lon="5.88506">
        <ele>409.39</ele>
        <time>2018-05-05T07:41:59Z</time>
      </trkpt>
      <trkpt lat="49.49293" lon="5.88483">
        <ele>409.89</ele>
        <time>2018-05-05T07:42:08Z</time>
      </trkpt>
      <trkpt lat="49.49283" lon="5.88453">
        <ele>410.97</ele>
        <time>2018-05-05T07:42:18Z</time>
      </trkpt>
      <trkpt lat="49.49281" lon="5.88415">
        <ele>412.56</ele>
        <time>2018-05-05T07:42:29Z</time>
      </trkpt>
      <trkpt lat="49.49285" lon="5.8838">
        <ele>414.19</ele>
        <time>2018-05-05T07:42:40Z</time>
      </trkpt>
      <trkpt lat="49.49284" lon="5.88343">
        <ele>415.17</ele>
        <time>2018-05-05T07:42:52Z</time>
      </trkpt>
      <trkpt lat="49.49279" lon="5.8831">
        <ele>415.97</ele>
        <time>2018-05-05T07:43:03Z</time>
      </trkpt>
      <trkpt lat="49.49275" lon="5.88282">
        <ele>417</ele>
        <time>2018-05-05T07:43:12Z</time>
      </trkpt>
      <trkpt lat="49.4927" lon="5.88251">
        <ele>417.76</ele>
        <time>2018-05-05T07:43:22Z</time>
      </trkpt>
      <trkpt lat="49.49264" lon="5.88222">
        <ele>418.55</ele>
        <time>2018-05-05T07:43:32Z</time>
      </trkpt>
      <trkpt lat="49.49256" lon="5.8819">
        <ele>419.14</ele>
        <time>2018-05-05T07:43:42Z</time>
      </trkpt>
      <trkpt lat="49.49251" lon="5.88151">
        <ele>419.77</ele>
        <time>2018-05-05T07:43:52Z</time>
      </trkpt>
      <trkpt lat="49.49249" lon="5.88121">
        <ele>419.79</ele>
        <time>2018-05-05T07:44:00Z</time>
      </trkpt>
      <trkpt lat="49.49239" lon="5.88097">
        <ele>420.28</ele>
        <time>2018-05-05T07:44:09Z</time>
      </trkpt>
      <trkpt lat="49.49237" lon="5.88097">
        <ele>420.29</ele>
        <time>2018-05-05T07:44:10Z</time>
      </trkpt>
      <trkpt lat="49.49232" lon="5.88103">
        <ele>420.79</ele>
        <time>2018-05-05T07:44:16Z</time>
      </trkpt>
      <trkpt lat="49.49232" lon="5.88103">
        <ele>420.91</ele>
        <time>2018-05-05T07:44:17Z</time>
      </trkpt>
      <trkpt lat="49.4922" lon="5.88101">
        <ele>421.94</ele>
        <time>2018-05-05T07:44:27Z</time>
      </trkpt>
      <trkpt lat="49.49219" lon="5.88101">
        <ele>421.98</ele>
        <time>2018-05-05T07:44:28Z</time>
      </trkpt>
      <trkpt lat="49.49217" lon="5.881">
        <ele>422</ele>
        <time>2018-05-05T07:44:29Z</time>
      </trkpt>
      <trkpt lat="49.49215" lon="5.88098">
        <ele>422</ele>
        <time>2018-05-05T07:44:30Z</time>
      </trkpt>
      <trkpt lat="49.49214" lon="5.88096">
        <ele>421.91</ele>
        <time>2018-05-05T07:44:31Z</time>
      </trkpt>
      <trkpt lat="49.49213" lon="5.88092">
        <ele>421.73</ele>
        <time>2018-05-05T07:44:32Z</time>
      </trkpt>
      <trkpt lat="49.49209" lon="5.88066">
        <ele>420.76</ele>
        <time>2018-05-05T07:44:39Z</time>
      </trkpt>
      <trkpt lat="49.49202" lon="5.88027">
        <ele>420.39</ele>
        <time>2018-05-05T07:44:47Z</time>
      </trkpt>
      <trkpt lat="49.49194" lon="5.87988">
        <ele>419.87</ele>
        <time>2018-05-05T07:44:55Z</time>
      </trkpt>
      <trkpt lat="49.49182" lon="5.87955">
        <ele>419.04</ele>
        <time>2018-05-05T07:45:02Z</time>
      </trkpt>
      <trkpt lat="49.49159" lon="5.87931">
        <ele>419.37</ele>
        <time>2018-05-05T07:45:11Z</time>
      </trkpt>
      <trkpt lat="49.49135" lon="5.8791">
        <ele>419.76</ele>
        <time>2018-05-05T07:45:20Z</time>
      </trkpt>
      <trkpt lat="49.4911" lon="5.87888">
        <ele>420.79</ele>
        <time>2018-05-05T07:45:31Z</time>
      </trkpt>
      <trkpt lat="49.49106" lon="5.87886">
        <ele>421.11</ele>
        <time>2018-05-05T07:45:34Z</time>
      </trkpt>
      <trkpt lat="49.49104" lon="5.87888">
        <ele>421.2</ele>
        <time>2018-05-05T07:45:35Z</time>
      </trkpt>
      <trkpt lat="49.49102" lon="5.8789">
        <ele>421.19</ele>
        <time>2018-05-05T07:45:36Z</time>
      </trkpt>
      <trkpt lat="49.4909" lon="5.87915">
        <ele>421.4</ele>
        <time>2018-05-05T07:45:43Z</time>
      </trkpt>
      <trkpt lat="49.49072" lon="5.87954">
        <ele>421.76</ele>
        <time>2018-05-05T07:45:53Z</time>
      </trkpt>
      <trkpt lat="49.49069" lon="5.87954">
        <ele>421.84</ele>
        <time>2018-05-05T07:45:54Z</time>
      </trkpt>
      <trkpt lat="49.49066" lon="5.87952">
        <ele>421.76</ele>
        <time>2018-05-05T07:45:55Z</time>
      </trkpt>
      <trkpt lat="49.49063" lon="5.8795">
        <ele>421.67</ele>
        <time>2018-05-05T07:45:56Z</time>
      </trkpt>
      <trkpt lat="49.4906" lon="5.87947">
        <ele>421.51</ele>
        <time>2018-05-05T07:45:57Z</time>
      </trkpt>
      <trkpt lat="49.49036" lon="5.87927">
        <ele>421.63</ele>
        <time>2018-05-05T07:46:05Z</time>
      </trkpt>
      <trkpt lat="49.49022" lon="5.87911">
        <ele>422.31</ele>
        <time>2018-05-05T07:46:11Z</time>
      </trkpt>
      <trkpt lat="49.49008" lon="5.87892">
        <ele>421.77</ele>
        <time>2018-05-05T07:46:17Z</time>
      </trkpt>
      <trkpt lat="49.48985" lon="5.87875">
        <ele>422.63</ele>
        <time>2018-05-05T07:46:25Z</time>
      </trkpt>
      <trkpt lat="49.48968" lon="5.87862">
        <ele>423.9</ele>
        <time>2018-05-05T07:46:31Z</time>
      </trkpt>
      <trkpt lat="49.48943" lon="5.87843">
        <ele>423.95</ele>
        <time>2018-05-05T07:46:40Z</time>
      </trkpt>
      <trkpt lat="49.48914" lon="5.87821">
        <ele>423.97</ele>
        <time>2018-05-05T07:46:50Z</time>
      </trkpt>
      <trkpt lat="49.48891" lon="5.87803">
        <ele>424.67</ele>
        <time>2018-05-05T07:46:58Z</time>
      </trkpt>
      <trkpt lat="49.48865" lon="5.87782">
        <ele>424.83</ele>
        <time>2018-05-05T07:47:07Z</time>
      </trkpt>
      <trkpt lat="49.48844" lon="5.87763">
        <ele>423.8</ele>
        <time>2018-05-05T07:47:15Z</time>
      </trkpt>
      <trkpt lat="49.48842" lon="5.87759">
        <ele>423.93</ele>
        <time>2018-05-05T07:47:16Z</time>
      </trkpt>
      <trkpt lat="49.48842" lon="5.87754">
        <ele>424.42</ele>
        <time>2018-05-05T07:47:17Z</time>
      </trkpt>
      <trkpt lat="49.48843" lon="5.8775">
        <ele>424.27</ele>
        <time>2018-05-05T07:47:18Z</time>
      </trkpt>
      <trkpt lat="49.48844" lon="5.87746">
        <ele>424.78</ele>
        <time>2018-05-05T07:47:19Z</time>
      </trkpt>
      <trkpt lat="49.48846" lon="5.87743">
        <ele>425.01</ele>
        <time>2018-05-05T07:47:20Z</time>
      </trkpt>
      <trkpt lat="49.48863" lon="5.87708">
        <ele>424.36</ele>
        <time>2018-05-05T07:47:31Z</time>
      </trkpt>
      <trkpt lat="49.48872" lon="5.87689">
        <ele>425.74</ele>
        <time>2018-05-05T07:47:37Z</time>
      </trkpt>
      <trkpt lat="49.48877" lon="5.87674">
        <ele>425.38</ele>
        <time>2018-05-05T07:47:42Z</time>
      </trkpt>
      <trkpt lat="49.48876" lon="5.87671">
        <ele>425.12</ele>
        <time>2018-05-05T07:47:43Z</time>
      </trkpt>
      <trkpt lat="49.48874" lon="5.87665">
        <ele>425.05</ele>
        <time>2018-05-05T07:47:46Z</time>
      </trkpt>
      <trkpt lat="49.48863" lon="5.87645">
        <ele>425.19</ele>
        <time>2018-05-05T07:47:54Z</time>
      </trkpt>
      <trkpt lat="49.48857" lon="5.87624">
        <ele>424.77</ele>
        <time>2018-05-05T07:48:01Z</time>
      </trkpt>
      <trkpt lat="49.48849" lon="5.87605">
        <ele>424.94</ele>
        <time>2018-05-05T07:48:07Z</time>
      </trkpt>
      <trkpt lat="49.48832" lon="5.87607">
        <ele>424.99</ele>
        <time>2018-05-05T07:48:15Z</time>
      </trkpt>
      <trkpt lat="49.48825" lon="5.87609">
        <ele>424.96</ele>
        <time>2018-05-05T07:48:18Z</time>
      </trkpt>
      <trkpt lat="49.48793" lon="5.87614">
        <ele>425.88</ele>
        <time>2018-05-05T07:48:30Z</time>
      </trkpt>
      <trkpt lat="49.48773" lon="5.87616">
        <ele>426.16</ele>
        <time>2018-05-05T07:48:39Z</time>
      </trkpt>
      <trkpt lat="49.48748" lon="5.87617">
        <ele>426</ele>
        <time>2018-05-05T07:48:50Z</time>
      </trkpt>
      <trkpt lat="49.48718" lon="5.8762">
        <ele>425.3</ele>
        <time>2018-05-05T07:49:00Z</time>
      </trkpt>
      <trkpt lat="49.48673" lon="5.87622">
        <ele>423.9</ele>
        <time>2018-05-05T07:49:11Z</time>
      </trkpt>
      <trkpt lat="49.48618" lon="5.87619">
        <ele>421.4</ele>
        <time>2018-05-05T07:49:22Z</time>
      </trkpt>
      <trkpt lat="49.48577" lon="5.87618">
        <ele>419.52</ele>
        <time>2018-05-05T07:49:30Z</time>
      </trkpt>
      <trkpt lat="49.48552" lon="5.87617">
        <ele>418.57</ele>
        <time>2018-05-05T07:49:38Z</time>
      </trkpt>
      <trkpt lat="49.48548" lon="5.87613">
        <ele>418.56</ele>
        <time>2018-05-05T07:49:40Z</time>
      </trkpt>
      <trkpt lat="49.4855" lon="5.87598">
        <ele>418.01</ele>
        <time>2018-05-05T07:49:47Z</time>
      </trkpt>
      <trkpt lat="49.48549" lon="5.87578">
        <ele>417.18</ele>
        <time>2018-05-05T07:49:55Z</time>
      </trkpt>
      <trkpt lat="49.4855" lon="5.87575">
        <ele>416.95</ele>
        <time>2018-05-05T07:49:56Z</time>
      </trkpt>
      <trkpt lat="49.48556" lon="5.87552">
        <ele>414.49</ele>
        <time>2018-05-05T07:50:04Z</time>
      </trkpt>
      <trkpt lat="49.48557" lon="5.87539">
        <ele>413.8</ele>
        <time>2018-05-05T07:50:09Z</time>
      </trkpt>
      <trkpt lat="49.4856" lon="5.87515">
        <ele>412.29</ele>
        <time>2018-05-05T07:50:15Z</time>
      </trkpt>
      <trkpt lat="49.48555" lon="5.87492">
        <ele>410.96</ele>
        <time>2018-05-05T07:50:22Z</time>
      </trkpt>
      <trkpt lat="49.48555" lon="5.87488">
        <ele>410.67</ele>
        <time>2018-05-05T07:50:23Z</time>
      </trkpt>
      <trkpt lat="49.48553" lon="5.87482">
        <ele>410.65</ele>
        <time>2018-05-05T07:50:25Z</time>
      </trkpt>
      <trkpt lat="49.48545" lon="5.87483">
        <ele>412.12</ele>
        <time>2018-05-05T07:50:30Z</time>
      </trkpt>
      <trkpt lat="49.48532" lon="5.87494">
        <ele>413.29</ele>
        <time>2018-05-05T07:50:38Z</time>
      </trkpt>
      <trkpt lat="49.48515" lon="5.87511">
        <ele>415.58</ele>
        <time>2018-05-05T07:50:46Z</time>
      </trkpt>
      <trkpt lat="49.48505" lon="5.87526">
        <ele>418.02</ele>
        <time>2018-05-05T07:50:52Z</time>
      </trkpt>
      <trkpt lat="49.48493" lon="5.87538">
        <ele>419.61</ele>
        <time>2018-05-05T07:50:58Z</time>
      </trkpt>
      <trkpt lat="49.48481" lon="5.87554">
        <ele>420.48</ele>
        <time>2018-05-05T07:51:04Z</time>
      </trkpt>
      <trkpt lat="49.48475" lon="5.87563">
        <ele>421.7</ele>
        <time>2018-05-05T07:51:07Z</time>
      </trkpt>
      <trkpt lat="49.48468" lon="5.87569">
        <ele>423.46</ele>
        <time>2018-05-05T07:51:11Z</time>
      </trkpt>
      <trkpt lat="49.48448" lon="5.87583">
        <ele>427.14</ele>
        <time>2018-05-05T07:51:18Z</time>
      </trkpt>
      <trkpt lat="49.48432" lon="5.87601">
        <ele>428.1</ele>
        <time>2018-05-05T07:51:24Z</time>
      </trkpt>
      <trkpt lat="49.48427" lon="5.87608">
        <ele>427.21</ele>
        <time>2018-05-05T07:51:28Z</time>
      </trkpt>
      <trkpt lat="49.4842" lon="5.87629">
        <ele>428.65</ele>
        <time>2018-05-05T07:51:36Z</time>
      </trkpt>
      <trkpt lat="49.48415" lon="5.8764">
        <ele>430.84</ele>
        <time>2018-05-05T07:51:41Z</time>
      </trkpt>
      <trkpt lat="49.48409" lon="5.87649">
        <ele>433.05</ele>
        <time>2018-05-05T07:51:44Z</time>
      </trkpt>
      <trkpt lat="49.48407" lon="5.87668">
        <ele>434.65</ele>
        <time>2018-05-05T07:51:49Z</time>
      </trkpt>
      <trkpt lat="49.48401" lon="5.87679">
        <ele>436.6</ele>
        <time>2018-05-05T07:51:52Z</time>
      </trkpt>
      <trkpt lat="49.48391" lon="5.87695">
        <ele>436.35</ele>
        <time>2018-05-05T07:51:58Z</time>
      </trkpt>
      <trkpt lat="49.48389" lon="5.87697">
        <ele>436.46</ele>
        <time>2018-05-05T07:51:59Z</time>
      </trkpt>
      <trkpt lat="49.48384" lon="5.87709">
        <ele>437.4</ele>
        <time>2018-05-05T07:52:04Z</time>
      </trkpt>
      <trkpt lat="49.48382" lon="5.87719">
        <ele>439.59</ele>
        <time>2018-05-05T07:52:08Z</time>
      </trkpt>
      <trkpt lat="49.48377" lon="5.87725">
        <ele>440.4</ele>
        <time>2018-05-05T07:52:11Z</time>
      </trkpt>
      <trkpt lat="49.48373" lon="5.87749">
        <ele>442.74</ele>
        <time>2018-05-05T07:52:18Z</time>
      </trkpt>
      <trkpt lat="49.48374" lon="5.87756">
        <ele>442.9</ele>
        <time>2018-05-05T07:52:21Z</time>
      </trkpt>
      <trkpt lat="49.48376" lon="5.8778">
        <ele>443.87</ele>
        <time>2018-05-05T07:52:29Z</time>
      </trkpt>
      <trkpt lat="49.48378" lon="5.87804">
        <ele>445.06</ele>
        <time>2018-05-05T07:52:36Z</time>
      </trkpt>
      <trkpt lat="49.48377" lon="5.87821">
        <ele>447.56</ele>
        <time>2018-05-05T07:52:42Z</time>
      </trkpt>
      <trkpt lat="49.48379" lon="5.87844">
        <ele>449.31</ele>
        <time>2018-05-05T07:52:48Z</time>
      </trkpt>
      <trkpt lat="49.48382" lon="5.87869">
        <ele>451.08</ele>
        <time>2018-05-05T07:52:56Z</time>
      </trkpt>
      <trkpt lat="49.48382" lon="5.87889">
        <ele>450.86</ele>
        <time>2018-05-05T07:53:03Z</time>
      </trkpt>
      <trkpt lat="49.48382" lon="5.87893">
        <ele>451.13</ele>
        <time>2018-05-05T07:53:04Z</time>
      </trkpt>
      <trkpt lat="49.48382" lon="5.87917">
        <ele>452.52</ele>
        <time>2018-05-05T07:53:13Z</time>
      </trkpt>
      <trkpt lat="49.48376" lon="5.8795">
        <ele>451.12</ele>
        <time>2018-05-05T07:53:21Z</time>
      </trkpt>
      <trkpt lat="49.48375" lon="5.87963">
        <ele>450.77</ele>
        <time>2018-05-05T07:53:26Z</time>
      </trkpt>
      <trkpt lat="49.4838" lon="5.87983">
        <ele>451.14</ele>
        <time>2018-05-05T07:53:33Z</time>
      </trkpt>
      <trkpt lat="49.48374" lon="5.88002">
        <ele>448.75</ele>
        <time>2018-05-05T07:53:41Z</time>
      </trkpt>
      <trkpt lat="49.48373" lon="5.88004">
        <ele>448.9</ele>
        <time>2018-05-05T07:53:42Z</time>
      </trkpt>
      <trkpt lat="49.48352" lon="5.88019">
        <ele>445.66</ele>
        <time>2018-05-05T07:53:49Z</time>
      </trkpt>
      <trkpt lat="49.48341" lon="5.8803">
        <ele>444.96</ele>
        <time>2018-05-05T07:53:55Z</time>
      </trkpt>
      <trkpt lat="49.48331" lon="5.88029">
        <ele>444.58</ele>
        <time>2018-05-05T07:54:02Z</time>
      </trkpt>
      <trkpt lat="49.48329" lon="5.88027">
        <ele>444.24</ele>
        <time>2018-05-05T07:54:03Z</time>
      </trkpt>
      <trkpt lat="49.48316" lon="5.88011">
        <ele>443.64</ele>
        <time>2018-05-05T07:54:12Z</time>
      </trkpt>
      <trkpt lat="49.48316" lon="5.8801">
        <ele>443.71</ele>
        <time>2018-05-05T07:54:13Z</time>
      </trkpt>
      <trkpt lat="49.48304" lon="5.87996">
        <ele>445.82</ele>
        <time>2018-05-05T07:54:21Z</time>
      </trkpt>
      <trkpt lat="49.48291" lon="5.87973">
        <ele>447.99</ele>
        <time>2018-05-05T07:54:28Z</time>
      </trkpt>
      <trkpt lat="49.48277" lon="5.87952">
        <ele>449.17</ele>
        <time>2018-05-05T07:54:34Z</time>
      </trkpt>
      <trkpt lat="49.48254" lon="5.87918">
        <ele>452.09</ele>
        <time>2018-05-05T07:54:42Z</time>
      </trkpt>
      <trkpt lat="49.48238" lon="5.87897">
        <ele>452.17</ele>
        <time>2018-05-05T07:54:46Z</time>
      </trkpt>
      <trkpt lat="49.48215" lon="5.87877">
        <ele>447.24</ele>
        <time>2018-05-05T07:54:50Z</time>
      </trkpt>
      <trkpt lat="49.48192" lon="5.87843">
        <ele>441.57</ele>
        <time>2018-05-05T07:54:58Z</time>
      </trkpt>
      <trkpt lat="49.48177" lon="5.87818">
        <ele>438.53</ele>
        <time>2018-05-05T07:55:05Z</time>
      </trkpt>
      <trkpt lat="49.48159" lon="5.87793">
        <ele>437.79</ele>
        <time>2018-05-05T07:55:12Z</time>
      </trkpt>
      <trkpt lat="49.48133" lon="5.87758">
        <ele>435.23</ele>
        <time>2018-05-05T07:55:20Z</time>
      </trkpt>
      <trkpt lat="49.48114" lon="5.87739">
        <ele>434.18</ele>
        <time>2018-05-05T07:55:26Z</time>
      </trkpt>
      <trkpt lat="49.48099" lon="5.87718">
        <ele>433.79</ele>
        <time>2018-05-05T07:55:33Z</time>
      </trkpt>
      <trkpt lat="49.48084" lon="5.87695">
        <ele>431.84</ele>
        <time>2018-05-05T07:55:40Z</time>
      </trkpt>
      <trkpt lat="49.48068" lon="5.87673">
        <ele>432.2</ele>
        <time>2018-05-05T07:55:47Z</time>
      </trkpt>
      <trkpt lat="49.48051" lon="5.87651">
        <ele>433.28</ele>
        <time>2018-05-05T07:55:54Z</time>
      </trkpt>
      <trkpt lat="49.48038" lon="5.87637">
        <ele>431.98</ele>
        <time>2018-05-05T07:55:59Z</time>
      </trkpt>
      <trkpt lat="49.48023" lon="5.87618">
        <ele>432.16</ele>
        <time>2018-05-05T07:56:06Z</time>
      </trkpt>
      <trkpt lat="49.48009" lon="5.87605">
        <ele>433.63</ele>
        <time>2018-05-05T07:56:13Z</time>
      </trkpt>
      <trkpt lat="49.48003" lon="5.87605">
        <ele>434.62</ele>
        <time>2018-05-05T07:56:17Z</time>
      </trkpt>
      <trkpt lat="49.47991" lon="5.8762">
        <ele>438.33</ele>
        <time>2018-05-05T07:56:26Z</time>
      </trkpt>
      <trkpt lat="49.4798" lon="5.87635">
        <ele>441.71</ele>
        <time>2018-05-05T07:56:33Z</time>
      </trkpt>
      <trkpt lat="49.47971" lon="5.87653">
        <ele>444.47</ele>
        <time>2018-05-05T07:56:41Z</time>
      </trkpt>
      <trkpt lat="49.47964" lon="5.87666">
        <ele>447.32</ele>
        <time>2018-05-05T07:56:47Z</time>
      </trkpt>
      <trkpt lat="49.47958" lon="5.87675">
        <ele>449.78</ele>
        <time>2018-05-05T07:56:51Z</time>
      </trkpt>
      <trkpt lat="49.47944" lon="5.87705">
        <ele>452.64</ele>
        <time>2018-05-05T07:56:59Z</time>
      </trkpt>
      <trkpt lat="49.47933" lon="5.87727">
        <ele>454.32</ele>
        <time>2018-05-05T07:57:07Z</time>
      </trkpt>
      <trkpt lat="49.47921" lon="5.8775">
        <ele>454.71</ele>
        <time>2018-05-05T07:57:14Z</time>
      </trkpt>
      <trkpt lat="49.4791" lon="5.87785">
        <ele>457.02</ele>
        <time>2018-05-05T07:57:21Z</time>
      </trkpt>
      <trkpt lat="49.47899" lon="5.87811">
        <ele>458.1</ele>
        <time>2018-05-05T07:57:27Z</time>
      </trkpt>
      <trkpt lat="49.47886" lon="5.87824">
        <ele>456.64</ele>
        <time>2018-05-05T07:57:33Z</time>
      </trkpt>
      <trkpt lat="49.47865" lon="5.87828">
        <ele>455.23</ele>
        <time>2018-05-05T07:57:39Z</time>
      </trkpt>
      <trkpt lat="49.47846" lon="5.87833">
        <ele>453.63</ele>
        <time>2018-05-05T07:57:45Z</time>
      </trkpt>
      <trkpt lat="49.47823" lon="5.87834">
        <ele>449.64</ele>
        <time>2018-05-05T07:57:52Z</time>
      </trkpt>
      <trkpt lat="49.47804" lon="5.87836">
        <ele>447.88</ele>
        <time>2018-05-05T07:57:58Z</time>
      </trkpt>
      <trkpt lat="49.47796" lon="5.87841">
        <ele>447.51</ele>
        <time>2018-05-05T07:58:01Z</time>
      </trkpt>
      <trkpt lat="49.4779" lon="5.87834">
        <ele>447.36</ele>
        <time>2018-05-05T07:58:06Z</time>
      </trkpt>
      <trkpt lat="49.47783" lon="5.87839">
        <ele>447.66</ele>
        <time>2018-05-05T07:58:13Z</time>
      </trkpt>
      <trkpt lat="49.47781" lon="5.87844">
        <ele>447.82</ele>
        <time>2018-05-05T07:58:17Z</time>
      </trkpt>
      <trkpt lat="49.47765" lon="5.87859">
        <ele>446.26</ele>
        <time>2018-05-05T07:58:28Z</time>
      </trkpt>
      <trkpt lat="49.47746" lon="5.87881">
        <ele>446.1</ele>
        <time>2018-05-05T07:58:37Z</time>
      </trkpt>
      <trkpt lat="49.47732" lon="5.87895">
        <ele>445.16</ele>
        <time>2018-05-05T07:58:46Z</time>
      </trkpt>
      <trkpt lat="49.47717" lon="5.87909">
        <ele>445.18</ele>
        <time>2018-05-05T07:58:55Z</time>
      </trkpt>
      <trkpt lat="49.47696" lon="5.87922">
        <ele>445.19</ele>
        <time>2018-05-05T07:59:07Z</time>
      </trkpt>
      <trkpt lat="49.47683" lon="5.8793">
        <ele>445.37</ele>
        <time>2018-05-05T07:59:15Z</time>
      </trkpt>
      <trkpt lat="49.47673" lon="5.87936">
        <ele>444.94</ele>
        <time>2018-05-05T07:59:21Z</time>
      </trkpt>
      <trkpt lat="49.47664" lon="5.87945">
        <ele>443.63</ele>
        <time>2018-05-05T07:59:28Z</time>
      </trkpt>
      <trkpt lat="49.47653" lon="5.87955">
        <ele>441.83</ele>
        <time>2018-05-05T07:59:35Z</time>
      </trkpt>
      <trkpt lat="49.47651" lon="5.87956">
        <ele>441.19</ele>
        <time>2018-05-05T07:59:36Z</time>
      </trkpt>
      <trkpt lat="49.47636" lon="5.87967">
        <ele>437.86</ele>
        <time>2018-05-05T07:59:44Z</time>
      </trkpt>
      <trkpt lat="49.47618" lon="5.87982">
        <ele>436.03</ele>
        <time>2018-05-05T07:59:50Z</time>
      </trkpt>
      <trkpt lat="49.47603" lon="5.87997">
        <ele>435.34</ele>
        <time>2018-05-05T07:59:56Z</time>
      </trkpt>
      <trkpt lat="49.47591" lon="5.88009">
        <ele>435.69</ele>
        <time>2018-05-05T08:00:01Z</time>
      </trkpt>
      <trkpt lat="49.47572" lon="5.88034">
        <ele>435.37</ele>
        <time>2018-05-05T08:00:07Z</time>
      </trkpt>
      <trkpt lat="49.47562" lon="5.88044">
        <ele>435.38</ele>
        <time>2018-05-05T08:00:11Z</time>
      </trkpt>
      <trkpt lat="49.4756" lon="5.88046">
        <ele>435.41</ele>
        <time>2018-05-05T08:00:12Z</time>
      </trkpt>
      <trkpt lat="49.47554" lon="5.88055">
        <ele>436.14</ele>
        <time>2018-05-05T08:00:16Z</time>
      </trkpt>
      <trkpt lat="49.47546" lon="5.88046">
        <ele>435.91</ele>
        <time>2018-05-05T08:00:24Z</time>
      </trkpt>
      <trkpt lat="49.47542" lon="5.88036">
        <ele>435.69</ele>
        <time>2018-05-05T08:00:28Z</time>
      </trkpt>
      <trkpt lat="49.47531" lon="5.88018">
        <ele>434.82</ele>
        <time>2018-05-05T08:00:33Z</time>
      </trkpt>
      <trkpt lat="49.47518" lon="5.87999">
        <ele>432.78</ele>
        <time>2018-05-05T08:00:43Z</time>
      </trkpt>
      <trkpt lat="49.47506" lon="5.87979">
        <ele>431.31</ele>
        <time>2018-05-05T08:00:52Z</time>
      </trkpt>
      <trkpt lat="49.47494" lon="5.87948">
        <ele>429.45</ele>
        <time>2018-05-05T08:01:05Z</time>
      </trkpt>
      <trkpt lat="49.47486" lon="5.87924">
        <ele>428.28</ele>
        <time>2018-05-05T08:01:12Z</time>
      </trkpt>
      <trkpt lat="49.47476" lon="5.87905">
        <ele>428.28</ele>
        <time>2018-05-05T08:01:17Z</time>
      </trkpt>
      <trkpt lat="49.47462" lon="5.87877">
        <ele>426.39</ele>
        <time>2018-05-05T08:01:25Z</time>
      </trkpt>
      <trkpt lat="49.47452" lon="5.87863">
        <ele>424.88</ele>
        <time>2018-05-05T08:01:30Z</time>
      </trkpt>
      <trkpt lat="49.47437" lon="5.87825">
        <ele>423.24</ele>
        <time>2018-05-05T08:01:38Z</time>
      </trkpt>
      <trkpt lat="49.47427" lon="5.87807">
        <ele>422.2</ele>
        <time>2018-05-05T08:01:42Z</time>
      </trkpt>
      <trkpt lat="49.47412" lon="5.87777">
        <ele>419.66</ele>
        <time>2018-05-05T08:01:52Z</time>
      </trkpt>
      <trkpt lat="49.47411" lon="5.87756">
        <ele>417.31</ele>
        <time>2018-05-05T08:01:59Z</time>
      </trkpt>
      <trkpt lat="49.47408" lon="5.87741">
        <ele>416.3</ele>
        <time>2018-05-05T08:02:05Z</time>
      </trkpt>
      <trkpt lat="49.47407" lon="5.87738">
        <ele>415.98</ele>
        <time>2018-05-05T08:02:06Z</time>
      </trkpt>
      <trkpt lat="49.47403" lon="5.87709">
        <ele>414.96</ele>
        <time>2018-05-05T08:02:13Z</time>
      </trkpt>
      <trkpt lat="49.47398" lon="5.87694">
        <ele>414.46</ele>
        <time>2018-05-05T08:02:20Z</time>
      </trkpt>
      <trkpt lat="49.47397" lon="5.87692">
        <ele>414.34</ele>
        <time>2018-05-05T08:02:21Z</time>
      </trkpt>
      <trkpt lat="49.47395" lon="5.87681">
        <ele>414.3</ele>
        <time>2018-05-05T08:02:26Z</time>
      </trkpt>
      <trkpt lat="49.4739" lon="5.87662">
        <ele>413.38</ele>
        <time>2018-05-05T08:02:34Z</time>
      </trkpt>
      <trkpt lat="49.4738" lon="5.87642">
        <ele>412.47</ele>
        <time>2018-05-05T08:02:40Z</time>
      </trkpt>
      <trkpt lat="49.4737" lon="5.87623">
        <ele>412.5</ele>
        <time>2018-05-05T08:02:47Z</time>
      </trkpt>
      <trkpt lat="49.47352" lon="5.87616">
        <ele>411.53</ele>
        <time>2018-05-05T08:02:52Z</time>
      </trkpt>
      <trkpt lat="49.47347" lon="5.87612">
        <ele>411.13</ele>
        <time>2018-05-05T08:02:54Z</time>
      </trkpt>
      <trkpt lat="49.47332" lon="5.87592">
        <ele>409.4</ele>
        <time>2018-05-05T08:03:01Z</time>
      </trkpt>
      <trkpt lat="49.47322" lon="5.87593">
        <ele>409.52</ele>
        <time>2018-05-05T08:03:04Z</time>
      </trkpt>
      <trkpt lat="49.47305" lon="5.87595">
        <ele>409.92</ele>
        <time>2018-05-05T08:03:12Z</time>
      </trkpt>
      <trkpt lat="49.47294" lon="5.876">
        <ele>411.06</ele>
        <time>2018-05-05T08:03:16Z</time>
      </trkpt>
      <trkpt lat="49.4728" lon="5.87617">
        <ele>412.76</ele>
        <time>2018-05-05T08:03:21Z</time>
      </trkpt>
      <trkpt lat="49.47262" lon="5.87638">
        <ele>413.13</ele>
        <time>2018-05-05T08:03:28Z</time>
      </trkpt>
      <trkpt lat="49.47248" lon="5.87659">
        <ele>412.57</ele>
        <time>2018-05-05T08:03:33Z</time>
      </trkpt>
      <trkpt lat="49.47241" lon="5.87667">
        <ele>412.85</ele>
        <time>2018-05-05T08:03:36Z</time>
      </trkpt>
      <trkpt lat="49.47226" lon="5.87675">
        <ele>413.53</ele>
        <time>2018-05-05T08:03:41Z</time>
      </trkpt>
      <trkpt lat="49.47208" lon="5.87688">
        <ele>412.48</ele>
        <time>2018-05-05T08:03:47Z</time>
      </trkpt>
      <trkpt lat="49.47199" lon="5.87688">
        <ele>413.74</ele>
        <time>2018-05-05T08:03:51Z</time>
      </trkpt>
      <trkpt lat="49.47198" lon="5.87666">
        <ele>411.87</ele>
        <time>2018-05-05T08:03:59Z</time>
      </trkpt>
      <trkpt lat="49.47192" lon="5.87648">
        <ele>410.67</ele>
        <time>2018-05-05T08:04:06Z</time>
      </trkpt>
      <trkpt lat="49.47169" lon="5.87632">
        <ele>408.62</ele>
        <time>2018-05-05T08:04:15Z</time>
      </trkpt>
      <trkpt lat="49.47164" lon="5.87614">
        <ele>407.86</ele>
        <time>2018-05-05T08:04:21Z</time>
      </trkpt>
      <trkpt lat="49.47167" lon="5.87592">
        <ele>408.1</ele>
        <time>2018-05-05T08:04:27Z</time>
      </trkpt>
      <trkpt lat="49.47168" lon="5.87567">
        <ele>407.07</ele>
        <time>2018-05-05T08:04:33Z</time>
      </trkpt>
      <trkpt lat="49.47167" lon="5.87558">
        <ele>406.22</ele>
        <time>2018-05-05T08:04:37Z</time>
      </trkpt>
      <trkpt lat="49.47168" lon="5.87549">
        <ele>406.25</ele>
        <time>2018-05-05T08:04:44Z</time>
      </trkpt>
      <trkpt lat="49.4717" lon="5.87538">
        <ele>407.52</ele>
        <time>2018-05-05T08:04:53Z</time>
      </trkpt>
      <trkpt lat="49.47174" lon="5.87526">
        <ele>407.39</ele>
        <time>2018-05-05T08:05:00Z</time>
      </trkpt>
      <trkpt lat="49.47186" lon="5.87507">
        <ele>406.57</ele>
        <time>2018-05-05T08:05:04Z</time>
      </trkpt>
      <trkpt lat="49.47196" lon="5.87495">
        <ele>405.8</ele>
        <time>2018-05-05T08:05:07Z</time>
      </trkpt>
      <trkpt lat="49.47201" lon="5.87468">
        <ele>402.44</ele>
        <time>2018-05-05T08:05:14Z</time>
      </trkpt>
      <trkpt lat="49.472" lon="5.87446">
        <ele>398.67</ele>
        <time>2018-05-05T08:05:20Z</time>
      </trkpt>
      <trkpt lat="49.47202" lon="5.87429">
        <ele>396.11</ele>
        <time>2018-05-05T08:05:27Z</time>
      </trkpt>
      <trkpt lat="49.47208" lon="5.87421">
        <ele>395.27</ele>
        <time>2018-05-05T08:05:38Z</time>
      </trkpt>
      <trkpt lat="49.47211" lon="5.87407">
        <ele>395.22</ele>
        <time>2018-05-05T08:05:44Z</time>
      </trkpt>
      <trkpt lat="49.47205" lon="5.87398">
        <ele>394.97</ele>
        <time>2018-05-05T08:05:47Z</time>
      </trkpt>
      <trkpt lat="49.47204" lon="5.87383">
        <ele>395.51</ele>
        <time>2018-05-05T08:05:52Z</time>
      </trkpt>
      <trkpt lat="49.47205" lon="5.8737">
        <ele>394.99</ele>
        <time>2018-05-05T08:05:56Z</time>
      </trkpt>
      <trkpt lat="49.47193" lon="5.87351">
        <ele>392.39</ele>
        <time>2018-05-05T08:06:04Z</time>
      </trkpt>
      <trkpt lat="49.47188" lon="5.87344">
        <ele>390.9</ele>
        <time>2018-05-05T08:06:11Z</time>
      </trkpt>
      <trkpt lat="49.47187" lon="5.87344">
        <ele>390.55</ele>
        <time>2018-05-05T08:06:12Z</time>
      </trkpt>
      <trkpt lat="49.47184" lon="5.87321">
        <ele>383.39</ele>
        <time>2018-05-05T08:07:10Z</time>
      </trkpt>
      <trkpt lat="49.47184" lon="5.87318">
        <ele>383.27</ele>
        <time>2018-05-05T08:07:11Z</time>
      </trkpt>
      <trkpt lat="49.4718" lon="5.87298">
        <ele>381.48</ele>
        <time>2018-05-05T08:07:19Z</time>
      </trkpt>
      <trkpt lat="49.47174" lon="5.87278">
        <ele>379.37</ele>
        <time>2018-05-05T08:07:28Z</time>
      </trkpt>
      <trkpt lat="49.47171" lon="5.8727">
        <ele>378.43</ele>
        <time>2018-05-05T08:07:32Z</time>
      </trkpt>
      <trkpt lat="49.47165" lon="5.87262">
        <ele>377.19</ele>
        <time>2018-05-05T08:07:39Z</time>
      </trkpt>
      <trkpt lat="49.47145" lon="5.87255">
        <ele>375.53</ele>
        <time>2018-05-05T08:07:48Z</time>
      </trkpt>
      <trkpt lat="49.47144" lon="5.87254">
        <ele>375.49</ele>
        <time>2018-05-05T08:07:50Z</time>
      </trkpt>
      <trkpt lat="49.47047" lon="5.87227">
        <ele>372.73</ele>
        <time>2018-05-05T08:14:28Z</time>
      </trkpt>
      <trkpt lat="49.47043" lon="5.87228">
        <ele>372.07</ele>
        <time>2018-05-05T08:14:30Z</time>
      </trkpt>
      <trkpt lat="49.47024" lon="5.87228">
        <ele>368.49</ele>
        <time>2018-05-05T08:14:38Z</time>
      </trkpt>
      <trkpt lat="49.47008" lon="5.87233">
        <ele>365.37</ele>
        <time>2018-05-05T08:14:45Z</time>
      </trkpt>
      <trkpt lat="49.47004" lon="5.87236">
        <ele>364.35</ele>
        <time>2018-05-05T08:14:47Z</time>
      </trkpt>
      <trkpt lat="49.46981" lon="5.8724">
        <ele>359.75</ele>
        <time>2018-05-05T08:14:57Z</time>
      </trkpt>
      <trkpt lat="49.46969" lon="5.87244">
        <ele>357.76</ele>
        <time>2018-05-05T08:15:03Z</time>
      </trkpt>
      <trkpt lat="49.46954" lon="5.87252">
        <ele>356.46</ele>
        <time>2018-05-05T08:15:10Z</time>
      </trkpt>
      <trkpt lat="49.46939" lon="5.87255">
        <ele>353.65</ele>
        <time>2018-05-05T08:15:17Z</time>
      </trkpt>
      <trkpt lat="49.4692" lon="5.87263">
        <ele>350.33</ele>
        <time>2018-05-05T08:15:24Z</time>
      </trkpt>
      <trkpt lat="49.46909" lon="5.87267">
        <ele>349.85</ele>
        <time>2018-05-05T08:15:30Z</time>
      </trkpt>
      <trkpt lat="49.46889" lon="5.87272">
        <ele>348.99</ele>
        <time>2018-05-05T08:15:38Z</time>
      </trkpt>
      <trkpt lat="49.46873" lon="5.87269">
        <ele>345.71</ele>
        <time>2018-05-05T08:15:46Z</time>
      </trkpt>
      <trkpt lat="49.46858" lon="5.87265">
        <ele>344.39</ele>
        <time>2018-05-05T08:15:53Z</time>
      </trkpt>
      <trkpt lat="49.4685" lon="5.87256">
        <ele>341.61</ele>
        <time>2018-05-05T08:15:59Z</time>
      </trkpt>
      <trkpt lat="49.46838" lon="5.87239">
        <ele>338.03</ele>
        <time>2018-05-05T08:16:07Z</time>
      </trkpt>
      <trkpt lat="49.46834" lon="5.8723">
        <ele>337.21</ele>
        <time>2018-05-05T08:16:11Z</time>
      </trkpt>
      <trkpt lat="49.46826" lon="5.87221">
        <ele>336.01</ele>
        <time>2018-05-05T08:16:17Z</time>
      </trkpt>
      <trkpt lat="49.46812" lon="5.87206">
        <ele>335.87</ele>
        <time>2018-05-05T08:16:25Z</time>
      </trkpt>
      <trkpt lat="49.46815" lon="5.87204">
        <ele>338.76</ele>
        <time>2018-05-05T08:16:34Z</time>
      </trkpt>
      <trkpt lat="49.46803" lon="5.87176">
        <ele>370.18</ele>
        <time>2018-05-05T08:17:54Z</time>
      </trkpt>
      <trkpt lat="49.46788" lon="5.87173">
        <ele>378.91</ele>
        <time>2018-05-05T08:18:14Z</time>
      </trkpt>
      <trkpt lat="49.46797" lon="5.87175">
        <ele>382.04</ele>
        <time>2018-05-05T08:18:29Z</time>
      </trkpt>
      <trkpt lat="49.46802" lon="5.87178">
        <ele>385.19</ele>
        <time>2018-05-05T08:18:37Z</time>
      </trkpt>
      <trkpt lat="49.46817" lon="5.87179">
        <ele>393.58</ele>
        <time>2018-05-05T08:18:58Z</time>
      </trkpt>
      <trkpt lat="49.46719" lon="5.8709">
        <ele>398.28</ele>
        <time>2018-05-05T08:24:46Z</time>
      </trkpt>
      <trkpt lat="49.46695" lon="5.87086">
        <ele>399.81</ele>
        <time>2018-05-05T08:24:57Z</time>
      </trkpt>
      <trkpt lat="49.46694" lon="5.87086">
        <ele>400.04</ele>
        <time>2018-05-05T08:25:00Z</time>
      </trkpt>
      <trkpt lat="49.46685" lon="5.87084">
        <ele>401.23</ele>
        <time>2018-05-05T08:25:14Z</time>
      </trkpt>
      <trkpt lat="49.46675" lon="5.87078">
        <ele>403.03</ele>
        <time>2018-05-05T08:25:21Z</time>
      </trkpt>
      <trkpt lat="49.46657" lon="5.87075">
        <ele>404.98</ele>
        <time>2018-05-05T08:25:29Z</time>
      </trkpt>
      <trkpt lat="49.46649" lon="5.87078">
        <ele>406.34</ele>
        <time>2018-05-05T08:25:35Z</time>
      </trkpt>
      <trkpt lat="49.4664" lon="5.8708">
        <ele>407.76</ele>
        <time>2018-05-05T08:25:42Z</time>
      </trkpt>
      <trkpt lat="49.46631" lon="5.8708">
        <ele>408.64</ele>
        <time>2018-05-05T08:25:52Z</time>
      </trkpt>
      <trkpt lat="49.46626" lon="5.87079">
        <ele>407.77</ele>
        <time>2018-05-05T08:25:59Z</time>
      </trkpt>
      <trkpt lat="49.4653" lon="5.86869">
        <ele>424.96</ele>
        <time>2018-05-05T08:29:03Z</time>
      </trkpt>
      <trkpt lat="49.46525" lon="5.8685">
        <ele>426.45</ele>
        <time>2018-05-05T08:29:13Z</time>
      </trkpt>
      <trkpt lat="49.46522" lon="5.86833">
        <ele>428.06</ele>
        <time>2018-05-05T08:29:21Z</time>
      </trkpt>
      <trkpt lat="49.46516" lon="5.86808">
        <ele>427.72</ele>
        <time>2018-05-05T08:29:31Z</time>
      </trkpt>
      <trkpt lat="49.46514" lon="5.86795">
        <ele>427.79</ele>
        <time>2018-05-05T08:29:41Z</time>
      </trkpt>
      <trkpt lat="49.46513" lon="5.86791">
        <ele>427.45</ele>
        <time>2018-05-05T08:29:46Z</time>
      </trkpt>
      <trkpt lat="49.465" lon="5.86732">
        <ele>423.96</ele>
        <time>2018-05-05T08:30:35Z</time>
      </trkpt>
      <trkpt lat="49.465" lon="5.86728">
        <ele>423.49</ele>
        <time>2018-05-05T08:30:37Z</time>
      </trkpt>
      <trkpt lat="49.46495" lon="5.86716">
        <ele>422.46</ele>
        <time>2018-05-05T08:30:44Z</time>
      </trkpt>
      <trkpt lat="49.46494" lon="5.86713">
        <ele>422.42</ele>
        <time>2018-05-05T08:30:45Z</time>
      </trkpt>
      <trkpt lat="49.46495" lon="5.86699">
        <ele>421.21</ele>
        <time>2018-05-05T08:30:52Z</time>
      </trkpt>
      <trkpt lat="49.46501" lon="5.8668">
        <ele>421.99</ele>
        <time>2018-05-05T08:30:58Z</time>
      </trkpt>
      <trkpt lat="49.46504" lon="5.86672">
        <ele>422.07</ele>
        <time>2018-05-05T08:31:02Z</time>
      </trkpt>
      <trkpt lat="49.46506" lon="5.86671">
        <ele>420.53</ele>
        <time>2018-05-05T08:31:07Z</time>
      </trkpt>
      <trkpt lat="49.46511" lon="5.86677">
        <ele>419.22</ele>
        <time>2018-05-05T08:31:14Z</time>
      </trkpt>
      <trkpt lat="49.46519" lon="5.86689">
        <ele>417.3</ele>
        <time>2018-05-05T08:31:21Z</time>
      </trkpt>
      <trkpt lat="49.46529" lon="5.86711">
        <ele>415.12</ele>
        <time>2018-05-05T08:31:29Z</time>
      </trkpt>
      <trkpt lat="49.46537" lon="5.86728">
        <ele>413.44</ele>
        <time>2018-05-05T08:31:34Z</time>
      </trkpt>
      <trkpt lat="49.46551" lon="5.86753">
        <ele>411.84</ele>
        <time>2018-05-05T08:31:43Z</time>
      </trkpt>
      <trkpt lat="49.46565" lon="5.86776">
        <ele>410.52</ele>
        <time>2018-05-05T08:31:51Z</time>
      </trkpt>
      <trkpt lat="49.46566" lon="5.86778">
        <ele>410.48</ele>
        <time>2018-05-05T08:31:52Z</time>
      </trkpt>
      <trkpt lat="49.46586" lon="5.86781">
        <ele>409.62</ele>
        <time>2018-05-05T08:32:02Z</time>
      </trkpt>
      <trkpt lat="49.46601" lon="5.86782">
        <ele>409.65</ele>
        <time>2018-05-05T08:32:10Z</time>
      </trkpt>
      <trkpt lat="49.46618" lon="5.86784">
        <ele>410.08</ele>
        <time>2018-05-05T08:32:18Z</time>
      </trkpt>
      <trkpt lat="49.46638" lon="5.86784">
        <ele>409.95</ele>
        <time>2018-05-05T08:32:27Z</time>
      </trkpt>
      <trkpt lat="49.46662" lon="5.86784">
        <ele>410.28</ele>
        <time>2018-05-05T08:32:37Z</time>
      </trkpt>
      <trkpt lat="49.4668" lon="5.86783">
        <ele>408.98</ele>
        <time>2018-05-05T08:32:45Z</time>
      </trkpt>
      <trkpt lat="49.46695" lon="5.86785">
        <ele>408.46</ele>
        <time>2018-05-05T08:32:52Z</time>
      </trkpt>
      <trkpt lat="49.46718" lon="5.86789">
        <ele>407.26</ele>
        <time>2018-05-05T08:33:00Z</time>
      </trkpt>
      <trkpt lat="49.46745" lon="5.86793">
        <ele>405.17</ele>
        <time>2018-05-05T08:33:07Z</time>
      </trkpt>
      <trkpt lat="49.46765" lon="5.86794">
        <ele>405.37</ele>
        <time>2018-05-05T08:33:13Z</time>
      </trkpt>
      <trkpt lat="49.4679" lon="5.86797">
        <ele>406.11</ele>
        <time>2018-05-05T08:33:22Z</time>
      </trkpt>
      <trkpt lat="49.4681" lon="5.86798">
        <ele>407.28</ele>
        <time>2018-05-05T08:33:31Z</time>
      </trkpt>
      <trkpt lat="49.46818" lon="5.86795">
        <ele>407.43</ele>
        <time>2018-05-05T08:33:35Z</time>
      </trkpt>
      <trkpt lat="49.46826" lon="5.8677">
        <ele>408.19</ele>
        <time>2018-05-05T08:33:43Z</time>
      </trkpt>
      <trkpt lat="49.46828" lon="5.86764">
        <ele>408.04</ele>
        <time>2018-05-05T08:33:45Z</time>
      </trkpt>
      <trkpt lat="49.4684" lon="5.86733">
        <ele>409.06</ele>
        <time>2018-05-05T08:33:55Z</time>
      </trkpt>
      <trkpt lat="49.46852" lon="5.86706">
        <ele>408.53</ele>
        <time>2018-05-05T08:34:04Z</time>
      </trkpt>
      <trkpt lat="49.46863" lon="5.86676">
        <ele>409.49</ele>
        <time>2018-05-05T08:34:14Z</time>
      </trkpt>
      <trkpt lat="49.46875" lon="5.86646">
        <ele>410.94</ele>
        <time>2018-05-05T08:34:22Z</time>
      </trkpt>
      <trkpt lat="49.4689" lon="5.86617">
        <ele>411.89</ele>
        <time>2018-05-05T08:34:31Z</time>
      </trkpt>
      <trkpt lat="49.46904" lon="5.86595">
        <ele>412.42</ele>
        <time>2018-05-05T08:34:38Z</time>
      </trkpt>
      <trkpt lat="49.46923" lon="5.86564">
        <ele>412.2</ele>
        <time>2018-05-05T08:34:48Z</time>
      </trkpt>
      <trkpt lat="49.46943" lon="5.86533">
        <ele>410.3</ele>
        <time>2018-05-05T08:34:57Z</time>
      </trkpt>
      <trkpt lat="49.46946" lon="5.86529">
        <ele>409.88</ele>
        <time>2018-05-05T08:34:58Z</time>
      </trkpt>
      <trkpt lat="49.4697" lon="5.86485">
        <ele>408.19</ele>
        <time>2018-05-05T08:35:07Z</time>
      </trkpt>
      <trkpt lat="49.46985" lon="5.86461">
        <ele>406.67</ele>
        <time>2018-05-05T08:35:14Z</time>
      </trkpt>
      <trkpt lat="49.47007" lon="5.8643">
        <ele>404.06</ele>
        <time>2018-05-05T08:35:23Z</time>
      </trkpt>
      <trkpt lat="49.47023" lon="5.86407">
        <ele>402.42</ele>
        <time>2018-05-05T08:35:31Z</time>
      </trkpt>
      <trkpt lat="49.4704" lon="5.86394">
        <ele>399.83</ele>
        <time>2018-05-05T08:35:38Z</time>
      </trkpt>
      <trkpt lat="49.47046" lon="5.86391">
        <ele>398.56</ele>
        <time>2018-05-05T08:35:43Z</time>
      </trkpt>
      <trkpt lat="49.47047" lon="5.86391">
        <ele>398.98</ele>
        <time>2018-05-05T08:35:46Z</time>
      </trkpt>
      <trkpt lat="49.47062" lon="5.86399">
        <ele>399.05</ele>
        <time>2018-05-05T08:36:09Z</time>
      </trkpt>
      <trkpt lat="49.47075" lon="5.86416">
        <ele>397.4</ele>
        <time>2018-05-05T08:36:17Z</time>
      </trkpt>
      <trkpt lat="49.47084" lon="5.86426">
        <ele>396.09</ele>
        <time>2018-05-05T08:36:22Z</time>
      </trkpt>
      <trkpt lat="49.47095" lon="5.86449">
        <ele>391.97</ele>
        <time>2018-05-05T08:36:30Z</time>
      </trkpt>
      <trkpt lat="49.47106" lon="5.86473">
        <ele>387.63</ele>
        <time>2018-05-05T08:36:38Z</time>
      </trkpt>
      <trkpt lat="49.47122" lon="5.865">
        <ele>382.56</ele>
        <time>2018-05-05T08:36:47Z</time>
      </trkpt>
      <trkpt lat="49.4713" lon="5.86511">
        <ele>378.88</ele>
        <time>2018-05-05T08:36:52Z</time>
      </trkpt>
      <trkpt lat="49.47138" lon="5.86527">
        <ele>376.62</ele>
        <time>2018-05-05T08:36:58Z</time>
      </trkpt>
      <trkpt lat="49.47149" lon="5.86543">
        <ele>372.53</ele>
        <time>2018-05-05T08:37:05Z</time>
      </trkpt>
      <trkpt lat="49.4715" lon="5.86545">
        <ele>371.73</ele>
        <time>2018-05-05T08:37:06Z</time>
      </trkpt>
      <trkpt lat="49.47163" lon="5.86567">
        <ele>368.41</ele>
        <time>2018-05-05T08:37:14Z</time>
      </trkpt>
      <trkpt lat="49.47166" lon="5.86571">
        <ele>367.78</ele>
        <time>2018-05-05T08:37:15Z</time>
      </trkpt>
      <trkpt lat="49.4717" lon="5.8658">
        <ele>367.03</ele>
        <time>2018-05-05T08:37:22Z</time>
      </trkpt>
      <trkpt lat="49.47181" lon="5.86586">
        <ele>369.97</ele>
        <time>2018-05-05T08:37:35Z</time>
      </trkpt>
      <trkpt lat="49.47195" lon="5.86599">
        <ele>371.21</ele>
        <time>2018-05-05T08:37:43Z</time>
      </trkpt>
      <trkpt lat="49.47214" lon="5.86618">
        <ele>371.07</ele>
        <time>2018-05-05T08:37:50Z</time>
      </trkpt>
      <trkpt lat="49.47228" lon="5.86632">
        <ele>369.15</ele>
        <time>2018-05-05T08:37:56Z</time>
      </trkpt>
      <trkpt lat="49.47243" lon="5.86639">
        <ele>368.24</ele>
        <time>2018-05-05T08:38:01Z</time>
      </trkpt>
      <trkpt lat="49.47257" lon="5.86644">
        <ele>368.73</ele>
        <time>2018-05-05T08:38:06Z</time>
      </trkpt>
      <trkpt lat="49.47277" lon="5.86641">
        <ele>370.45</ele>
        <time>2018-05-05T08:38:14Z</time>
      </trkpt>
      <trkpt lat="49.47295" lon="5.86638">
        <ele>371.34</ele>
        <time>2018-05-05T08:38:20Z</time>
      </trkpt>
      <trkpt lat="49.47297" lon="5.86638">
        <ele>370.64</ele>
        <time>2018-05-05T08:38:21Z</time>
      </trkpt>
      <trkpt lat="49.47303" lon="5.86636">
        <ele>368.25</ele>
        <time>2018-05-05T08:38:24Z</time>
      </trkpt>
      <trkpt lat="49.47306" lon="5.86634">
        <ele>369.18</ele>
        <time>2018-05-05T08:38:25Z</time>
      </trkpt>
      <trkpt lat="49.47307" lon="5.86632">
        <ele>368.44</ele>
        <time>2018-05-05T08:38:26Z</time>
      </trkpt>
      <trkpt lat="49.47322" lon="5.8662">
        <ele>369.68</ele>
        <time>2018-05-05T08:38:34Z</time>
      </trkpt>
      <trkpt lat="49.47327" lon="5.86615">
        <ele>369.57</ele>
        <time>2018-05-05T08:38:36Z</time>
      </trkpt>
      <trkpt lat="49.4733" lon="5.86613">
        <ele>369.47</ele>
        <time>2018-05-05T08:38:37Z</time>
      </trkpt>
      <trkpt lat="49.47332" lon="5.86609">
        <ele>369.19</ele>
        <time>2018-05-05T08:38:38Z</time>
      </trkpt>
      <trkpt lat="49.4735" lon="5.86585">
        <ele>368.74</ele>
        <time>2018-05-05T08:38:45Z</time>
      </trkpt>
      <trkpt lat="49.47357" lon="5.86577">
        <ele>368.67</ele>
        <time>2018-05-05T08:38:47Z</time>
      </trkpt>
      <trkpt lat="49.47361" lon="5.86573">
        <ele>368.21</ele>
        <time>2018-05-05T08:38:48Z</time>
      </trkpt>
      <trkpt lat="49.47368" lon="5.86565">
        <ele>367.88</ele>
        <time>2018-05-05T08:38:50Z</time>
      </trkpt>
      <trkpt lat="49.47371" lon="5.8656">
        <ele>367.92</ele>
        <time>2018-05-05T08:38:51Z</time>
      </trkpt>
      <trkpt lat="49.47387" lon="5.86526">
        <ele>367.64</ele>
        <time>2018-05-05T08:38:58Z</time>
      </trkpt>
      <trkpt lat="49.47407" lon="5.86504">
        <ele>368.69</ele>
        <time>2018-05-05T08:39:05Z</time>
      </trkpt>
      <trkpt lat="49.47436" lon="5.8649">
        <ele>370.82</ele>
        <time>2018-05-05T08:39:12Z</time>
      </trkpt>
      <trkpt lat="49.47462" lon="5.86484">
        <ele>371.42</ele>
        <time>2018-05-05T08:39:18Z</time>
      </trkpt>
      <trkpt lat="49.47487" lon="5.86475">
        <ele>371.78</ele>
        <time>2018-05-05T08:39:23Z</time>
      </trkpt>
      <trkpt lat="49.47491" lon="5.86473">
        <ele>371.38</ele>
        <time>2018-05-05T08:39:24Z</time>
      </trkpt>
      <trkpt lat="49.47494" lon="5.86472">
        <ele>371.41</ele>
        <time>2018-05-05T08:39:25Z</time>
      </trkpt>
      <trkpt lat="49.47497" lon="5.86471">
        <ele>371.68</ele>
        <time>2018-05-05T08:39:26Z</time>
      </trkpt>
      <trkpt lat="49.475" lon="5.86469">
        <ele>371.96</ele>
        <time>2018-05-05T08:39:27Z</time>
      </trkpt>
      <trkpt lat="49.47503" lon="5.86467">
        <ele>372.08</ele>
        <time>2018-05-05T08:39:28Z</time>
      </trkpt>
      <trkpt lat="49.47505" lon="5.86465">
        <ele>371.93</ele>
        <time>2018-05-05T08:39:29Z</time>
      </trkpt>
      <trkpt lat="49.47507" lon="5.86463">
        <ele>372.17</ele>
        <time>2018-05-05T08:39:30Z</time>
      </trkpt>
      <trkpt lat="49.47509" lon="5.86461">
        <ele>372.34</ele>
        <time>2018-05-05T08:39:31Z</time>
      </trkpt>
      <trkpt lat="49.4751" lon="5.86459">
        <ele>372.74</ele>
        <time>2018-05-05T08:39:32Z</time>
      </trkpt>
      <trkpt lat="49.47512" lon="5.86458">
        <ele>372.84</ele>
        <time>2018-05-05T08:39:33Z</time>
      </trkpt>
      <trkpt lat="49.47514" lon="5.86457">
        <ele>373.24</ele>
        <time>2018-05-05T08:39:34Z</time>
      </trkpt>
      <trkpt lat="49.47516" lon="5.86456">
        <ele>373.47</ele>
        <time>2018-05-05T08:39:35Z</time>
      </trkpt>
      <trkpt lat="49.47518" lon="5.86454">
        <ele>373.66</ele>
        <time>2018-05-05T08:39:36Z</time>
      </trkpt>
      <trkpt lat="49.4752" lon="5.86453">
        <ele>373.65</ele>
        <time>2018-05-05T08:39:37Z</time>
      </trkpt>
      <trkpt lat="49.47522" lon="5.8645">
        <ele>373.61</ele>
        <time>2018-05-05T08:39:38Z</time>
      </trkpt>
      <trkpt lat="49.47531" lon="5.86438">
        <ele>373.69</ele>
        <time>2018-05-05T08:39:44Z</time>
      </trkpt>
      <trkpt lat="49.47535" lon="5.86425">
        <ele>374.23</ele>
        <time>2018-05-05T08:39:49Z</time>
      </trkpt>
      <trkpt lat="49.47538" lon="5.86415">
        <ele>373.82</ele>
        <time>2018-05-05T08:39:52Z</time>
      </trkpt>
      <trkpt lat="49.47539" lon="5.86412">
        <ele>373.73</ele>
        <time>2018-05-05T08:39:53Z</time>
      </trkpt>
      <trkpt lat="49.4754" lon="5.86409">
        <ele>373.28</ele>
        <time>2018-05-05T08:39:54Z</time>
      </trkpt>
      <trkpt lat="49.47541" lon="5.86407">
        <ele>372.98</ele>
        <time>2018-05-05T08:39:55Z</time>
      </trkpt>
      <trkpt lat="49.47542" lon="5.86405">
        <ele>372.51</ele>
        <time>2018-05-05T08:39:56Z</time>
      </trkpt>
      <trkpt lat="49.47543" lon="5.86403">
        <ele>371.94</ele>
        <time>2018-05-05T08:39:57Z</time>
      </trkpt>
      <trkpt lat="49.47544" lon="5.86401">
        <ele>371.46</ele>
        <time>2018-05-05T08:39:58Z</time>
      </trkpt>
      <trkpt lat="49.47545" lon="5.86399">
        <ele>371.06</ele>
        <time>2018-05-05T08:39:59Z</time>
      </trkpt>
      <trkpt lat="49.47547" lon="5.86397">
        <ele>370.61</ele>
        <time>2018-05-05T08:40:00Z</time>
      </trkpt>
      <trkpt lat="49.47548" lon="5.86396">
        <ele>370.25</ele>
        <time>2018-05-05T08:40:01Z</time>
      </trkpt>
      <trkpt lat="49.47555" lon="5.86396">
        <ele>368.65</ele>
        <time>2018-05-05T08:40:06Z</time>
      </trkpt>
      <trkpt lat="49.47556" lon="5.86397">
        <ele>368.22</ele>
        <time>2018-05-05T08:40:07Z</time>
      </trkpt>
      <trkpt lat="49.47567" lon="5.86403">
        <ele>365.47</ele>
        <time>2018-05-05T08:40:14Z</time>
      </trkpt>
      <trkpt lat="49.47569" lon="5.86404">
        <ele>365</ele>
        <time>2018-05-05T08:40:15Z</time>
      </trkpt>
      <trkpt lat="49.4758" lon="5.86408">
        <ele>362.08</ele>
        <time>2018-05-05T08:40:22Z</time>
      </trkpt>
      <trkpt lat="49.47586" lon="5.86408">
        <ele>359.01</ele>
        <time>2018-05-05T08:40:27Z</time>
      </trkpt>
      <trkpt lat="49.47595" lon="5.86405">
        <ele>357.39</ele>
        <time>2018-05-05T08:40:34Z</time>
      </trkpt>
      <trkpt lat="49.47597" lon="5.86405">
        <ele>357.49</ele>
        <time>2018-05-05T08:40:35Z</time>
      </trkpt>
      <trkpt lat="49.47599" lon="5.86405">
        <ele>357.56</ele>
        <time>2018-05-05T08:40:36Z</time>
      </trkpt>
      <trkpt lat="49.47601" lon="5.86405">
        <ele>357.25</ele>
        <time>2018-05-05T08:40:37Z</time>
      </trkpt>
      <trkpt lat="49.47602" lon="5.86405">
        <ele>357.34</ele>
        <time>2018-05-05T08:40:38Z</time>
      </trkpt>
      <trkpt lat="49.47612" lon="5.864">
        <ele>354.5</ele>
        <time>2018-05-05T08:40:47Z</time>
      </trkpt>
      <trkpt lat="49.47616" lon="5.86399">
        <ele>353.44</ele>
        <time>2018-05-05T08:40:49Z</time>
      </trkpt>
      <trkpt lat="49.47631" lon="5.86385">
        <ele>348.06</ele>
        <time>2018-05-05T08:40:58Z</time>
      </trkpt>
      <trkpt lat="49.47633" lon="5.86385">
        <ele>348.28</ele>
        <time>2018-05-05T08:40:59Z</time>
      </trkpt>
      <trkpt lat="49.47635" lon="5.86385">
        <ele>347.63</ele>
        <time>2018-05-05T08:41:00Z</time>
      </trkpt>
      <trkpt lat="49.47642" lon="5.86384">
        <ele>344.13</ele>
        <time>2018-05-05T08:41:04Z</time>
      </trkpt>
      <trkpt lat="49.47645" lon="5.86383">
        <ele>343.2</ele>
        <time>2018-05-05T08:41:05Z</time>
      </trkpt>
      <trkpt lat="49.47648" lon="5.86382">
        <ele>341.82</ele>
        <time>2018-05-05T08:41:06Z</time>
      </trkpt>
      <trkpt lat="49.47651" lon="5.8638">
        <ele>340.39</ele>
        <time>2018-05-05T08:41:07Z</time>
      </trkpt>
      <trkpt lat="49.47654" lon="5.86378">
        <ele>338.94</ele>
        <time>2018-05-05T08:41:08Z</time>
      </trkpt>
      <trkpt lat="49.4767" lon="5.86367">
        <ele>338.76</ele>
        <time>2018-05-05T08:41:13Z</time>
      </trkpt>
      <trkpt lat="49.47681" lon="5.86358">
        <ele>337.28</ele>
        <time>2018-05-05T08:41:18Z</time>
      </trkpt>
      <trkpt lat="49.47697" lon="5.86348">
        <ele>332.47</ele>
        <time>2018-05-05T08:41:24Z</time>
      </trkpt>
      <trkpt lat="49.47698" lon="5.86344">
        <ele>331.65</ele>
        <time>2018-05-05T08:41:25Z</time>
      </trkpt>
      <trkpt lat="49.47699" lon="5.8634">
        <ele>331.49</ele>
        <time>2018-05-05T08:41:26Z</time>
      </trkpt>
      <trkpt lat="49.47702" lon="5.86338">
        <ele>332.45</ele>
        <time>2018-05-05T08:41:27Z</time>
      </trkpt>
      <trkpt lat="49.47713" lon="5.86331">
        <ele>336.22</ele>
        <time>2018-05-05T08:41:33Z</time>
      </trkpt>
      <trkpt lat="49.47731" lon="5.86327">
        <ele>336.47</ele>
        <time>2018-05-05T08:41:39Z</time>
      </trkpt>
      <trkpt lat="49.47748" lon="5.86323">
        <ele>335.61</ele>
        <time>2018-05-05T08:41:45Z</time>
      </trkpt>
      <trkpt lat="49.47753" lon="5.86321">
        <ele>336.86</ele>
        <time>2018-05-05T08:41:47Z</time>
      </trkpt>
      <trkpt lat="49.47755" lon="5.8632">
        <ele>336.94</ele>
        <time>2018-05-05T08:41:48Z</time>
      </trkpt>
      <trkpt lat="49.47757" lon="5.86319">
        <ele>337.37</ele>
        <time>2018-05-05T08:41:49Z</time>
      </trkpt>
      <trkpt lat="49.47759" lon="5.86317">
        <ele>337.3</ele>
        <time>2018-05-05T08:41:50Z</time>
      </trkpt>
      <trkpt lat="49.47762" lon="5.86315">
        <ele>337.51</ele>
        <time>2018-05-05T08:41:51Z</time>
      </trkpt>
      <trkpt lat="49.47765" lon="5.86314">
        <ele>337.42</ele>
        <time>2018-05-05T08:41:52Z</time>
      </trkpt>
      <trkpt lat="49.47768" lon="5.86314">
        <ele>338.1</ele>
        <time>2018-05-05T08:41:53Z</time>
      </trkpt>
      <trkpt lat="49.4777" lon="5.86313">
        <ele>338.28</ele>
        <time>2018-05-05T08:41:54Z</time>
      </trkpt>
      <trkpt lat="49.47774" lon="5.86312">
        <ele>338.55</ele>
        <time>2018-05-05T08:41:55Z</time>
      </trkpt>
      <trkpt lat="49.47776" lon="5.86311">
        <ele>338.48</ele>
        <time>2018-05-05T08:41:56Z</time>
      </trkpt>
      <trkpt lat="49.47779" lon="5.8631">
        <ele>338.55</ele>
        <time>2018-05-05T08:41:57Z</time>
      </trkpt>
      <trkpt lat="49.47796" lon="5.86298">
        <ele>339.74</ele>
        <time>2018-05-05T08:42:03Z</time>
      </trkpt>
      <trkpt lat="49.47808" lon="5.86302">
        <ele>340.92</ele>
        <time>2018-05-05T08:42:09Z</time>
      </trkpt>
      <trkpt lat="49.47828" lon="5.8631">
        <ele>339.92</ele>
        <time>2018-05-05T08:42:15Z</time>
      </trkpt>
      <trkpt lat="49.47847" lon="5.86318">
        <ele>337.5</ele>
        <time>2018-05-05T08:42:21Z</time>
      </trkpt>
      <trkpt lat="49.47872" lon="5.86327">
        <ele>335.13</ele>
        <time>2018-05-05T08:42:28Z</time>
      </trkpt>
      <trkpt lat="49.47902" lon="5.86341">
        <ele>332.44</ele>
        <time>2018-05-05T08:42:35Z</time>
      </trkpt>
      <trkpt lat="49.47926" lon="5.86361">
        <ele>331.76</ele>
        <time>2018-05-05T08:42:41Z</time>
      </trkpt>
      <trkpt lat="49.47943" lon="5.86364">
        <ele>332.26</ele>
        <time>2018-05-05T08:42:45Z</time>
      </trkpt>
      <trkpt lat="49.47946" lon="5.86364">
        <ele>332.24</ele>
        <time>2018-05-05T08:42:46Z</time>
      </trkpt>
      <trkpt lat="49.47962" lon="5.8636">
        <ele>332.88</ele>
        <time>2018-05-05T08:42:50Z</time>
      </trkpt>
      <trkpt lat="49.47986" lon="5.86358">
        <ele>332.6</ele>
        <time>2018-05-05T08:42:56Z</time>
      </trkpt>
      <trkpt lat="49.4801" lon="5.86355">
        <ele>334.8</ele>
        <time>2018-05-05T08:43:03Z</time>
      </trkpt>
      <trkpt lat="49.48018" lon="5.86356">
        <ele>343.64</ele>
        <time>2018-05-05T08:43:11Z</time>
      </trkpt>
      <trkpt lat="49.48019" lon="5.86358">
        <ele>346.55</ele>
        <time>2018-05-05T08:43:15Z</time>
      </trkpt>
      <trkpt lat="49.48025" lon="5.86362">
        <ele>358.38</ele>
        <time>2018-05-05T08:43:41Z</time>
      </trkpt>
      <trkpt lat="49.48027" lon="5.86364">
        <ele>358.48</ele>
        <time>2018-05-05T08:43:42Z</time>
      </trkpt>
      <trkpt lat="49.48044" lon="5.86381">
        <ele>357.51</ele>
        <time>2018-05-05T08:43:48Z</time>
      </trkpt>
      <trkpt lat="49.48049" lon="5.86385">
        <ele>357.3</ele>
        <time>2018-05-05T08:43:49Z</time>
      </trkpt>
      <trkpt lat="49.48053" lon="5.86389">
        <ele>357.02</ele>
        <time>2018-05-05T08:43:50Z</time>
      </trkpt>
      <trkpt lat="49.48062" lon="5.86395">
        <ele>356.61</ele>
        <time>2018-05-05T08:43:52Z</time>
      </trkpt>
      <trkpt lat="49.48067" lon="5.86397">
        <ele>356.34</ele>
        <time>2018-05-05T08:43:53Z</time>
      </trkpt>
      <trkpt lat="49.48104" lon="5.86415">
        <ele>353.25</ele>
        <time>2018-05-05T08:44:00Z</time>
      </trkpt>
      <trkpt lat="49.48135" lon="5.86426">
        <ele>352.34</ele>
        <time>2018-05-05T08:44:06Z</time>
      </trkpt>
      <trkpt lat="49.48149" lon="5.86431">
        <ele>352.59</ele>
        <time>2018-05-05T08:44:10Z</time>
      </trkpt>
      <trkpt lat="49.48152" lon="5.86429">
        <ele>352.66</ele>
        <time>2018-05-05T08:44:11Z</time>
      </trkpt>
      <trkpt lat="49.48154" lon="5.86426">
        <ele>352.7</ele>
        <time>2018-05-05T08:44:12Z</time>
      </trkpt>
      <trkpt lat="49.48163" lon="5.8641">
        <ele>352.72</ele>
        <time>2018-05-05T08:44:17Z</time>
      </trkpt>
      <trkpt lat="49.48162" lon="5.86406">
        <ele>352.8</ele>
        <time>2018-05-05T08:44:18Z</time>
      </trkpt>
      <trkpt lat="49.48161" lon="5.86402">
        <ele>352.88</ele>
        <time>2018-05-05T08:44:19Z</time>
      </trkpt>
      <trkpt lat="49.48159" lon="5.86394">
        <ele>353.11</ele>
        <time>2018-05-05T08:44:21Z</time>
      </trkpt>
      <trkpt lat="49.48154" lon="5.86385">
        <ele>352.69</ele>
        <time>2018-05-05T08:44:24Z</time>
      </trkpt>
      <trkpt lat="49.48152" lon="5.86381">
        <ele>352.58</ele>
        <time>2018-05-05T08:44:25Z</time>
      </trkpt>
      <trkpt lat="49.48151" lon="5.86376">
        <ele>352.56</ele>
        <time>2018-05-05T08:44:26Z</time>
      </trkpt>
      <trkpt lat="49.4815" lon="5.86372">
        <ele>352.56</ele>
        <time>2018-05-05T08:44:27Z</time>
      </trkpt>
      <trkpt lat="49.48149" lon="5.86368">
        <ele>352.61</ele>
        <time>2018-05-05T08:44:28Z</time>
      </trkpt>
      <trkpt lat="49.48148" lon="5.86364">
        <ele>352.68</ele>
        <time>2018-05-05T08:44:29Z</time>
      </trkpt>
      <trkpt lat="49.48146" lon="5.86336">
        <ele>353.11</ele>
        <time>2018-05-05T08:44:37Z</time>
      </trkpt>
      <trkpt lat="49.48148" lon="5.86314">
        <ele>354</ele>
        <time>2018-05-05T08:44:43Z</time>
      </trkpt>
      <trkpt lat="49.48146" lon="5.86297">
        <ele>355.45</ele>
        <time>2018-05-05T08:44:49Z</time>
      </trkpt>
      <trkpt lat="49.48146" lon="5.8629">
        <ele>355.04</ele>
        <time>2018-05-05T08:44:51Z</time>
      </trkpt>
      <trkpt lat="49.48146" lon="5.86287">
        <ele>354.98</ele>
        <time>2018-05-05T08:44:52Z</time>
      </trkpt>
      <trkpt lat="49.48145" lon="5.86265">
        <ele>354.56</ele>
        <time>2018-05-05T08:44:57Z</time>
      </trkpt>
      <trkpt lat="49.48146" lon="5.86232">
        <ele>354.39</ele>
        <time>2018-05-05T08:45:03Z</time>
      </trkpt>
      <trkpt lat="49.48147" lon="5.86213">
        <ele>353.58</ele>
        <time>2018-05-05T08:45:07Z</time>
      </trkpt>
      <trkpt lat="49.48145" lon="5.86184">
        <ele>352.1</ele>
        <time>2018-05-05T08:45:12Z</time>
      </trkpt>
      <trkpt lat="49.48144" lon="5.86168">
        <ele>351.62</ele>
        <time>2018-05-05T08:45:15Z</time>
      </trkpt>
      <trkpt lat="49.48144" lon="5.86164">
        <ele>351.21</ele>
        <time>2018-05-05T08:45:16Z</time>
      </trkpt>
      <trkpt lat="49.48144" lon="5.86159">
        <ele>350.86</ele>
        <time>2018-05-05T08:45:17Z</time>
      </trkpt>
      <trkpt lat="49.48144" lon="5.86155">
        <ele>350.87</ele>
        <time>2018-05-05T08:45:18Z</time>
      </trkpt>
      <trkpt lat="49.48144" lon="5.8615">
        <ele>350.3</ele>
        <time>2018-05-05T08:45:19Z</time>
      </trkpt>
      <trkpt lat="49.48147" lon="5.86123">
        <ele>347.19</ele>
        <time>2018-05-05T08:45:27Z</time>
      </trkpt>
      <trkpt lat="49.4815" lon="5.86109">
        <ele>345.19</ele>
        <time>2018-05-05T08:45:32Z</time>
      </trkpt>
      <trkpt lat="49.48158" lon="5.8609">
        <ele>342.42</ele>
        <time>2018-05-05T08:45:39Z</time>
      </trkpt>
      <trkpt lat="49.48161" lon="5.86085">
        <ele>341.5</ele>
        <time>2018-05-05T08:45:42Z</time>
      </trkpt>
      <trkpt lat="49.48166" lon="5.86074">
        <ele>341.11</ele>
        <time>2018-05-05T08:45:45Z</time>
      </trkpt>
      <trkpt lat="49.48167" lon="5.86071">
        <ele>340.78</ele>
        <time>2018-05-05T08:45:46Z</time>
      </trkpt>
      <trkpt lat="49.48169" lon="5.86068">
        <ele>340.36</ele>
        <time>2018-05-05T08:45:47Z</time>
      </trkpt>
      <trkpt lat="49.48173" lon="5.8606">
        <ele>339.5</ele>
        <time>2018-05-05T08:45:50Z</time>
      </trkpt>
      <trkpt lat="49.48174" lon="5.86057">
        <ele>339.15</ele>
        <time>2018-05-05T08:45:51Z</time>
      </trkpt>
      <trkpt lat="49.48176" lon="5.86055">
        <ele>338.79</ele>
        <time>2018-05-05T08:45:52Z</time>
      </trkpt>
      <trkpt lat="49.48178" lon="5.86052">
        <ele>338.4</ele>
        <time>2018-05-05T08:45:53Z</time>
      </trkpt>
      <trkpt lat="49.48182" lon="5.86038">
        <ele>337.37</ele>
        <time>2018-05-05T08:45:57Z</time>
      </trkpt>
      <trkpt lat="49.48183" lon="5.86035">
        <ele>337.16</ele>
        <time>2018-05-05T08:45:58Z</time>
      </trkpt>
      <trkpt lat="49.48183" lon="5.86032">
        <ele>337.11</ele>
        <time>2018-05-05T08:45:59Z</time>
      </trkpt>
      <trkpt lat="49.48184" lon="5.86028">
        <ele>336.86</ele>
        <time>2018-05-05T08:46:00Z</time>
      </trkpt>
      <trkpt lat="49.48185" lon="5.86025">
        <ele>336.55</ele>
        <time>2018-05-05T08:46:01Z</time>
      </trkpt>
      <trkpt lat="49.48186" lon="5.86021">
        <ele>336.53</ele>
        <time>2018-05-05T08:46:02Z</time>
      </trkpt>
      <trkpt lat="49.48186" lon="5.86018">
        <ele>336.07</ele>
        <time>2018-05-05T08:46:03Z</time>
      </trkpt>
      <trkpt lat="49.48187" lon="5.86015">
        <ele>335.73</ele>
        <time>2018-05-05T08:46:04Z</time>
      </trkpt>
      <trkpt lat="49.48192" lon="5.85993">
        <ele>333.66</ele>
        <time>2018-05-05T08:46:10Z</time>
      </trkpt>
      <trkpt lat="49.48193" lon="5.85976">
        <ele>332.53</ele>
        <time>2018-05-05T08:46:14Z</time>
      </trkpt>
      <trkpt lat="49.48192" lon="5.85954">
        <ele>333.04</ele>
        <time>2018-05-05T08:46:19Z</time>
      </trkpt>
      <trkpt lat="49.48183" lon="5.85933">
        <ele>334.41</ele>
        <time>2018-05-05T08:46:24Z</time>
      </trkpt>
      <trkpt lat="49.48171" lon="5.85919">
        <ele>336.27</ele>
        <time>2018-05-05T08:46:30Z</time>
      </trkpt>
      <trkpt lat="49.48159" lon="5.85899">
        <ele>337.45</ele>
        <time>2018-05-05T08:46:35Z</time>
      </trkpt>
      <trkpt lat="49.48152" lon="5.85872">
        <ele>339.48</ele>
        <time>2018-05-05T08:46:41Z</time>
      </trkpt>
      <trkpt lat="49.48151" lon="5.85867">
        <ele>339.77</ele>
        <time>2018-05-05T08:46:42Z</time>
      </trkpt>
      <trkpt lat="49.48151" lon="5.85862">
        <ele>340.09</ele>
        <time>2018-05-05T08:46:43Z</time>
      </trkpt>
      <trkpt lat="49.48152" lon="5.85858">
        <ele>340.43</ele>
        <time>2018-05-05T08:46:44Z</time>
      </trkpt>
      <trkpt lat="49.48152" lon="5.85852">
        <ele>340.43</ele>
        <time>2018-05-05T08:46:45Z</time>
      </trkpt>
      <trkpt lat="49.48153" lon="5.85846">
        <ele>340.29</ele>
        <time>2018-05-05T08:46:46Z</time>
      </trkpt>
      <trkpt lat="49.48153" lon="5.85841">
        <ele>340.23</ele>
        <time>2018-05-05T08:46:47Z</time>
      </trkpt>
      <trkpt lat="49.48153" lon="5.85837">
        <ele>340.29</ele>
        <time>2018-05-05T08:46:48Z</time>
      </trkpt>
      <trkpt lat="49.48154" lon="5.85833">
        <ele>340.45</ele>
        <time>2018-05-05T08:46:49Z</time>
      </trkpt>
      <trkpt lat="49.4816" lon="5.8581">
        <ele>342.08</ele>
        <time>2018-05-05T08:46:54Z</time>
      </trkpt>
      <trkpt lat="49.48163" lon="5.8578">
        <ele>344.85</ele>
        <time>2018-05-05T08:47:01Z</time>
      </trkpt>
      <trkpt lat="49.48169" lon="5.85751">
        <ele>346.6</ele>
        <time>2018-05-05T08:47:07Z</time>
      </trkpt>
      <trkpt lat="49.48171" lon="5.85746">
        <ele>347.07</ele>
        <time>2018-05-05T08:47:08Z</time>
      </trkpt>
      <trkpt lat="49.48173" lon="5.85743">
        <ele>347.38</ele>
        <time>2018-05-05T08:47:09Z</time>
      </trkpt>
      <trkpt lat="49.48175" lon="5.85717">
        <ele>347.17</ele>
        <time>2018-05-05T08:47:14Z</time>
      </trkpt>
      <trkpt lat="49.48174" lon="5.85704">
        <ele>346.22</ele>
        <time>2018-05-05T08:47:16Z</time>
      </trkpt>
      <trkpt lat="49.48174" lon="5.85697">
        <ele>345.33</ele>
        <time>2018-05-05T08:47:17Z</time>
      </trkpt>
      <trkpt lat="49.48179" lon="5.8566">
        <ele>341.47</ele>
        <time>2018-05-05T08:47:23Z</time>
      </trkpt>
      <trkpt lat="49.4818" lon="5.8564">
        <ele>339.25</ele>
        <time>2018-05-05T08:47:26Z</time>
      </trkpt>
      <trkpt lat="49.48181" lon="5.85636">
        <ele>338.68</ele>
        <time>2018-05-05T08:47:27Z</time>
      </trkpt>
      <trkpt lat="49.48181" lon="5.85626">
        <ele>338.34</ele>
        <time>2018-05-05T08:47:28Z</time>
      </trkpt>
      <trkpt lat="49.48179" lon="5.85618">
        <ele>338.37</ele>
        <time>2018-05-05T08:47:29Z</time>
      </trkpt>
      <trkpt lat="49.48179" lon="5.85614">
        <ele>338.22</ele>
        <time>2018-05-05T08:47:30Z</time>
      </trkpt>
      <trkpt lat="49.48177" lon="5.85596">
        <ele>339.86</ele>
        <time>2018-05-05T08:47:36Z</time>
      </trkpt>
      <trkpt lat="49.48178" lon="5.85593">
        <ele>339.37</ele>
        <time>2018-05-05T08:47:37Z</time>
      </trkpt>
      <trkpt lat="49.48173" lon="5.85571">
        <ele>341.54</ele>
        <time>2018-05-05T08:47:46Z</time>
      </trkpt>
      <trkpt lat="49.48174" lon="5.85567">
        <ele>341.88</ele>
        <time>2018-05-05T08:47:48Z</time>
      </trkpt>
      <trkpt lat="49.48178" lon="5.85558">
        <ele>342.19</ele>
        <time>2018-05-05T08:47:53Z</time>
      </trkpt>
      <trkpt lat="49.48187" lon="5.85546">
        <ele>342.99</ele>
        <time>2018-05-05T08:47:59Z</time>
      </trkpt>
      <trkpt lat="49.48193" lon="5.85531">
        <ele>342.65</ele>
        <time>2018-05-05T08:48:07Z</time>
      </trkpt>
      <trkpt lat="49.48201" lon="5.85521">
        <ele>342.18</ele>
        <time>2018-05-05T08:48:13Z</time>
      </trkpt>
      <trkpt lat="49.48207" lon="5.85511">
        <ele>341.86</ele>
        <time>2018-05-05T08:48:18Z</time>
      </trkpt>
      <trkpt lat="49.48213" lon="5.85493">
        <ele>341.34</ele>
        <time>2018-05-05T08:48:24Z</time>
      </trkpt>
      <trkpt lat="49.48219" lon="5.85468">
        <ele>341.11</ele>
        <time>2018-05-05T08:48:31Z</time>
      </trkpt>
      <trkpt lat="49.48225" lon="5.85451">
        <ele>341.58</ele>
        <time>2018-05-05T08:48:37Z</time>
      </trkpt>
      <trkpt lat="49.48229" lon="5.85438">
        <ele>341.45</ele>
        <time>2018-05-05T08:48:41Z</time>
      </trkpt>
      <trkpt lat="49.4823" lon="5.85432">
        <ele>341.18</ele>
        <time>2018-05-05T08:48:43Z</time>
      </trkpt>
      <trkpt lat="49.4823" lon="5.85428">
        <ele>340.98</ele>
        <time>2018-05-05T08:48:44Z</time>
      </trkpt>
      <trkpt lat="49.48231" lon="5.85424">
        <ele>340.49</ele>
        <time>2018-05-05T08:48:45Z</time>
      </trkpt>
      <trkpt lat="49.48231" lon="5.85421">
        <ele>340.03</ele>
        <time>2018-05-05T08:48:46Z</time>
      </trkpt>
      <trkpt lat="49.48232" lon="5.85417">
        <ele>339.89</ele>
        <time>2018-05-05T08:48:47Z</time>
      </trkpt>
      <trkpt lat="49.48232" lon="5.85412">
        <ele>339.52</ele>
        <time>2018-05-05T08:48:48Z</time>
      </trkpt>
      <trkpt lat="49.48233" lon="5.85408">
        <ele>339.03</ele>
        <time>2018-05-05T08:48:49Z</time>
      </trkpt>
      <trkpt lat="49.48235" lon="5.85394">
        <ele>337.29</ele>
        <time>2018-05-05T08:48:53Z</time>
      </trkpt>
      <trkpt lat="49.48237" lon="5.85391">
        <ele>337.03</ele>
        <time>2018-05-05T08:48:54Z</time>
      </trkpt>
      <trkpt lat="49.48237" lon="5.85388">
        <ele>336.79</ele>
        <time>2018-05-05T08:48:55Z</time>
      </trkpt>
      <trkpt lat="49.48243" lon="5.8537">
        <ele>335.54</ele>
        <time>2018-05-05T08:49:00Z</time>
      </trkpt>
      <trkpt lat="49.48244" lon="5.85365">
        <ele>335.55</ele>
        <time>2018-05-05T08:49:01Z</time>
      </trkpt>
      <trkpt lat="49.48247" lon="5.85361">
        <ele>335.64</ele>
        <time>2018-05-05T08:49:02Z</time>
      </trkpt>
      <trkpt lat="49.48248" lon="5.85356">
        <ele>335.57</ele>
        <time>2018-05-05T08:49:03Z</time>
      </trkpt>
      <trkpt lat="49.4825" lon="5.85353">
        <ele>335.35</ele>
        <time>2018-05-05T08:49:04Z</time>
      </trkpt>
      <trkpt lat="49.4825" lon="5.85349">
        <ele>335.3</ele>
        <time>2018-05-05T08:49:05Z</time>
      </trkpt>
      <trkpt lat="49.48251" lon="5.85345">
        <ele>335.19</ele>
        <time>2018-05-05T08:49:06Z</time>
      </trkpt>
      <trkpt lat="49.48257" lon="5.85333">
        <ele>334.67</ele>
        <time>2018-05-05T08:49:10Z</time>
      </trkpt>
      <trkpt lat="49.48261" lon="5.8531">
        <ele>334.45</ele>
        <time>2018-05-05T08:49:16Z</time>
      </trkpt>
      <trkpt lat="49.48261" lon="5.85307">
        <ele>334.45</ele>
        <time>2018-05-05T08:49:17Z</time>
      </trkpt>
      <trkpt lat="49.48262" lon="5.85302">
        <ele>334.57</ele>
        <time>2018-05-05T08:49:18Z</time>
      </trkpt>
      <trkpt lat="49.48263" lon="5.85299">
        <ele>334.71</ele>
        <time>2018-05-05T08:49:19Z</time>
      </trkpt>
      <trkpt lat="49.48264" lon="5.85296">
        <ele>334.71</ele>
        <time>2018-05-05T08:49:20Z</time>
      </trkpt>
      <trkpt lat="49.48264" lon="5.85292">
        <ele>334.61</ele>
        <time>2018-05-05T08:49:21Z</time>
      </trkpt>
      <trkpt lat="49.48263" lon="5.85287">
        <ele>335.02</ele>
        <time>2018-05-05T08:49:22Z</time>
      </trkpt>
      <trkpt lat="49.48263" lon="5.85283">
        <ele>335.21</ele>
        <time>2018-05-05T08:49:23Z</time>
      </trkpt>
      <trkpt lat="49.48262" lon="5.85278">
        <ele>335.45</ele>
        <time>2018-05-05T08:49:24Z</time>
      </trkpt>
      <trkpt lat="49.48261" lon="5.85272">
        <ele>335.66</ele>
        <time>2018-05-05T08:49:25Z</time>
      </trkpt>
      <trkpt lat="49.48262" lon="5.85267">
        <ele>335.56</ele>
        <time>2018-05-05T08:49:26Z</time>
      </trkpt>
      <trkpt lat="49.48262" lon="5.85263">
        <ele>335.76</ele>
        <time>2018-05-05T08:49:27Z</time>
      </trkpt>
      <trkpt lat="49.48267" lon="5.85232">
        <ele>336.37</ele>
        <time>2018-05-05T08:49:34Z</time>
      </trkpt>
      <trkpt lat="49.48268" lon="5.85205">
        <ele>337.03</ele>
        <time>2018-05-05T08:49:39Z</time>
      </trkpt>
      <trkpt lat="49.48276" lon="5.85171">
        <ele>338.25</ele>
        <time>2018-05-05T08:49:48Z</time>
      </trkpt>
      <trkpt lat="49.48276" lon="5.85167">
        <ele>338.1</ele>
        <time>2018-05-05T08:49:49Z</time>
      </trkpt>
      <trkpt lat="49.48279" lon="5.85145">
        <ele>341</ele>
        <time>2018-05-05T08:49:56Z</time>
      </trkpt>
      <trkpt lat="49.48286" lon="5.85118">
        <ele>343.36</ele>
        <time>2018-05-05T08:50:04Z</time>
      </trkpt>
      <trkpt lat="49.48298" lon="5.85089">
        <ele>344.43</ele>
        <time>2018-05-05T08:50:13Z</time>
      </trkpt>
      <trkpt lat="49.48304" lon="5.8508">
        <ele>344.73</ele>
        <time>2018-05-05T08:50:16Z</time>
      </trkpt>
      <trkpt lat="49.48306" lon="5.85077">
        <ele>344.83</ele>
        <time>2018-05-05T08:50:17Z</time>
      </trkpt>
      <trkpt lat="49.48307" lon="5.85074">
        <ele>345.04</ele>
        <time>2018-05-05T08:50:18Z</time>
      </trkpt>
      <trkpt lat="49.48309" lon="5.85071">
        <ele>345.17</ele>
        <time>2018-05-05T08:50:19Z</time>
      </trkpt>
      <trkpt lat="49.4831" lon="5.85069">
        <ele>345.36</ele>
        <time>2018-05-05T08:50:20Z</time>
      </trkpt>
      <trkpt lat="49.48312" lon="5.85066">
        <ele>345.99</ele>
        <time>2018-05-05T08:50:21Z</time>
      </trkpt>
      <trkpt lat="49.48313" lon="5.85063">
        <ele>346.34</ele>
        <time>2018-05-05T08:50:22Z</time>
      </trkpt>
      <trkpt lat="49.48319" lon="5.85055">
        <ele>346.76</ele>
        <time>2018-05-05T08:50:27Z</time>
      </trkpt>
      <trkpt lat="49.48326" lon="5.85038">
        <ele>347.63</ele>
        <time>2018-05-05T08:50:32Z</time>
      </trkpt>
      <trkpt lat="49.48333" lon="5.85016">
        <ele>347.51</ele>
        <time>2018-05-05T08:50:37Z</time>
      </trkpt>
      <trkpt lat="49.48343" lon="5.84994">
        <ele>346.64</ele>
        <time>2018-05-05T08:50:42Z</time>
      </trkpt>
      <trkpt lat="49.48353" lon="5.84971">
        <ele>346.71</ele>
        <time>2018-05-05T08:50:48Z</time>
      </trkpt>
      <trkpt lat="49.48357" lon="5.84947">
        <ele>345.88</ele>
        <time>2018-05-05T08:50:54Z</time>
      </trkpt>
      <trkpt lat="49.48364" lon="5.84927">
        <ele>346.91</ele>
        <time>2018-05-05T08:50:58Z</time>
      </trkpt>
      <trkpt lat="49.4837" lon="5.84917">
        <ele>346.14</ele>
        <time>2018-05-05T08:51:00Z</time>
      </trkpt>
      <trkpt lat="49.48388" lon="5.84888">
        <ele>344.7</ele>
        <time>2018-05-05T08:51:05Z</time>
      </trkpt>
      <trkpt lat="49.48392" lon="5.84882">
        <ele>344.54</ele>
        <time>2018-05-05T08:51:06Z</time>
      </trkpt>
      <trkpt lat="49.48395" lon="5.84877">
        <ele>344.18</ele>
        <time>2018-05-05T08:51:07Z</time>
      </trkpt>
      <trkpt lat="49.48399" lon="5.84872">
        <ele>343.68</ele>
        <time>2018-05-05T08:51:08Z</time>
      </trkpt>
      <trkpt lat="49.48401" lon="5.84867">
        <ele>343.24</ele>
        <time>2018-05-05T08:51:09Z</time>
      </trkpt>
      <trkpt lat="49.48404" lon="5.84864">
        <ele>342.98</ele>
        <time>2018-05-05T08:51:10Z</time>
      </trkpt>
      <trkpt lat="49.48407" lon="5.8486">
        <ele>342.75</ele>
        <time>2018-05-05T08:51:11Z</time>
      </trkpt>
      <trkpt lat="49.48418" lon="5.84844">
        <ele>340.9</ele>
        <time>2018-05-05T08:51:14Z</time>
      </trkpt>
      <trkpt lat="49.48435" lon="5.84809">
        <ele>337.9</ele>
        <time>2018-05-05T08:51:21Z</time>
      </trkpt>
      <trkpt lat="49.48439" lon="5.84805">
        <ele>337.53</ele>
        <time>2018-05-05T08:51:22Z</time>
      </trkpt>
      <trkpt lat="49.48443" lon="5.84801">
        <ele>337.15</ele>
        <time>2018-05-05T08:51:23Z</time>
      </trkpt>
      <trkpt lat="49.48467" lon="5.84769">
        <ele>335.81</ele>
        <time>2018-05-05T08:51:29Z</time>
      </trkpt>
      <trkpt lat="49.48476" lon="5.84751">
        <ele>335.38</ele>
        <time>2018-05-05T08:51:32Z</time>
      </trkpt>
      <trkpt lat="49.48487" lon="5.84718">
        <ele>336.59</ele>
        <time>2018-05-05T08:51:37Z</time>
      </trkpt>
      <trkpt lat="49.48495" lon="5.84695">
        <ele>337.62</ele>
        <time>2018-05-05T08:51:43Z</time>
      </trkpt>
      <trkpt lat="49.48498" lon="5.84687">
        <ele>338.26</ele>
        <time>2018-05-05T08:51:45Z</time>
      </trkpt>
      <trkpt lat="49.48501" lon="5.84684">
        <ele>338.52</ele>
        <time>2018-05-05T08:51:46Z</time>
      </trkpt>
      <trkpt lat="49.48511" lon="5.84667">
        <ele>338.4</ele>
        <time>2018-05-05T08:51:50Z</time>
      </trkpt>
      <trkpt lat="49.4852" lon="5.8465">
        <ele>338.92</ele>
        <time>2018-05-05T08:51:53Z</time>
      </trkpt>
      <trkpt lat="49.48532" lon="5.84627">
        <ele>340.3</ele>
        <time>2018-05-05T08:51:58Z</time>
      </trkpt>
      <trkpt lat="49.48536" lon="5.8462">
        <ele>340.56</ele>
        <time>2018-05-05T08:52:00Z</time>
      </trkpt>
      <trkpt lat="49.48537" lon="5.84616">
        <ele>340.99</ele>
        <time>2018-05-05T08:52:01Z</time>
      </trkpt>
      <trkpt lat="49.48545" lon="5.84602">
        <ele>341.39</ele>
        <time>2018-05-05T08:52:06Z</time>
      </trkpt>
      <trkpt lat="49.48556" lon="5.84577">
        <ele>343.7</ele>
        <time>2018-05-05T08:52:12Z</time>
      </trkpt>
      <trkpt lat="49.48565" lon="5.84551">
        <ele>346.38</ele>
        <time>2018-05-05T08:52:18Z</time>
      </trkpt>
      <trkpt lat="49.48567" lon="5.84548">
        <ele>346.71</ele>
        <time>2018-05-05T08:52:19Z</time>
      </trkpt>
      <trkpt lat="49.48569" lon="5.84546">
        <ele>346.85</ele>
        <time>2018-05-05T08:52:20Z</time>
      </trkpt>
      <trkpt lat="49.48571" lon="5.84543">
        <ele>347.02</ele>
        <time>2018-05-05T08:52:21Z</time>
      </trkpt>
      <trkpt lat="49.48573" lon="5.84539">
        <ele>347.32</ele>
        <time>2018-05-05T08:52:22Z</time>
      </trkpt>
      <trkpt lat="49.48576" lon="5.84535">
        <ele>347.14</ele>
        <time>2018-05-05T08:52:23Z</time>
      </trkpt>
      <trkpt lat="49.48579" lon="5.84532">
        <ele>347.33</ele>
        <time>2018-05-05T08:52:24Z</time>
      </trkpt>
      <trkpt lat="49.48582" lon="5.84529">
        <ele>347.48</ele>
        <time>2018-05-05T08:52:25Z</time>
      </trkpt>
      <trkpt lat="49.48586" lon="5.84526">
        <ele>347.63</ele>
        <time>2018-05-05T08:52:26Z</time>
      </trkpt>
      <trkpt lat="49.48589" lon="5.84523">
        <ele>347.61</ele>
        <time>2018-05-05T08:52:27Z</time>
      </trkpt>
      <trkpt lat="49.48614" lon="5.84517">
        <ele>347.38</ele>
        <time>2018-05-05T08:52:33Z</time>
      </trkpt>
      <trkpt lat="49.48619" lon="5.84516">
        <ele>347.48</ele>
        <time>2018-05-05T08:52:34Z</time>
      </trkpt>
      <trkpt lat="49.48625" lon="5.84516">
        <ele>347.41</ele>
        <time>2018-05-05T08:52:35Z</time>
      </trkpt>
      <trkpt lat="49.4863" lon="5.84516">
        <ele>347.55</ele>
        <time>2018-05-05T08:52:36Z</time>
      </trkpt>
      <trkpt lat="49.48661" lon="5.84522">
        <ele>348.23</ele>
        <time>2018-05-05T08:52:43Z</time>
      </trkpt>
      <trkpt lat="49.4868" lon="5.84508">
        <ele>349.33</ele>
        <time>2018-05-05T08:52:48Z</time>
      </trkpt>
      <trkpt lat="49.4869" lon="5.84492">
        <ele>348.33</ele>
        <time>2018-05-05T08:52:51Z</time>
      </trkpt>
      <trkpt lat="49.48702" lon="5.8446">
        <ele>349.96</ele>
        <time>2018-05-05T08:52:58Z</time>
      </trkpt>
      <trkpt lat="49.48702" lon="5.84456">
        <ele>350.1</ele>
        <time>2018-05-05T08:52:59Z</time>
      </trkpt>
      <trkpt lat="49.48701" lon="5.84453">
        <ele>350.42</ele>
        <time>2018-05-05T08:53:00Z</time>
      </trkpt>
      <trkpt lat="49.48702" lon="5.84449">
        <ele>350.58</ele>
        <time>2018-05-05T08:53:01Z</time>
      </trkpt>
      <trkpt lat="49.48702" lon="5.84444">
        <ele>349.85</ele>
        <time>2018-05-05T08:53:02Z</time>
      </trkpt>
      <trkpt lat="49.48703" lon="5.8444">
        <ele>350.43</ele>
        <time>2018-05-05T08:53:03Z</time>
      </trkpt>
      <trkpt lat="49.48704" lon="5.84435">
        <ele>351.19</ele>
        <time>2018-05-05T08:53:05Z</time>
      </trkpt>
      <trkpt lat="49.48705" lon="5.84432">
        <ele>351.44</ele>
        <time>2018-05-05T08:53:06Z</time>
      </trkpt>
      <trkpt lat="49.48705" lon="5.84429">
        <ele>351.54</ele>
        <time>2018-05-05T08:53:07Z</time>
      </trkpt>
      <trkpt lat="49.48707" lon="5.84426">
        <ele>351.2</ele>
        <time>2018-05-05T08:53:08Z</time>
      </trkpt>
      <trkpt lat="49.48709" lon="5.84422">
        <ele>351.58</ele>
        <time>2018-05-05T08:53:09Z</time>
      </trkpt>
      <trkpt lat="49.4871" lon="5.84418">
        <ele>351.85</ele>
        <time>2018-05-05T08:53:10Z</time>
      </trkpt>
      <trkpt lat="49.48712" lon="5.84415">
        <ele>352.19</ele>
        <time>2018-05-05T08:53:11Z</time>
      </trkpt>
      <trkpt lat="49.48713" lon="5.84411">
        <ele>352.72</ele>
        <time>2018-05-05T08:53:12Z</time>
      </trkpt>
      <trkpt lat="49.48715" lon="5.84409">
        <ele>353.12</ele>
        <time>2018-05-05T08:53:13Z</time>
      </trkpt>
      <trkpt lat="49.48717" lon="5.84406">
        <ele>353.68</ele>
        <time>2018-05-05T08:53:14Z</time>
      </trkpt>
      <trkpt lat="49.48722" lon="5.84399">
        <ele>355.2</ele>
        <time>2018-05-05T08:53:17Z</time>
      </trkpt>
      <trkpt lat="49.48724" lon="5.84394">
        <ele>355.67</ele>
        <time>2018-05-05T08:53:18Z</time>
      </trkpt>
      <trkpt lat="49.48726" lon="5.8439">
        <ele>356.08</ele>
        <time>2018-05-05T08:53:19Z</time>
      </trkpt>
      <trkpt lat="49.48729" lon="5.84387">
        <ele>356.7</ele>
        <time>2018-05-05T08:53:20Z</time>
      </trkpt>
      <trkpt lat="49.48731" lon="5.84383">
        <ele>357.29</ele>
        <time>2018-05-05T08:53:21Z</time>
      </trkpt>
      <trkpt lat="49.48747" lon="5.84355">
        <ele>359.63</ele>
        <time>2018-05-05T08:53:28Z</time>
      </trkpt>
      <trkpt lat="49.4876" lon="5.84329">
        <ele>359.41</ele>
        <time>2018-05-05T08:53:34Z</time>
      </trkpt>
      <trkpt lat="49.48774" lon="5.84292">
        <ele>356.06</ele>
        <time>2018-05-05T08:53:41Z</time>
      </trkpt>
      <trkpt lat="49.48786" lon="5.84276">
        <ele>354.61</ele>
        <time>2018-05-05T08:53:47Z</time>
      </trkpt>
      <trkpt lat="49.48787" lon="5.84273">
        <ele>354.4</ele>
        <time>2018-05-05T08:53:48Z</time>
      </trkpt>
      <trkpt lat="49.48788" lon="5.84271">
        <ele>354.46</ele>
        <time>2018-05-05T08:53:49Z</time>
      </trkpt>
      <trkpt lat="49.4879" lon="5.84268">
        <ele>354.63</ele>
        <time>2018-05-05T08:53:50Z</time>
      </trkpt>
      <trkpt lat="49.48791" lon="5.84264">
        <ele>354.8</ele>
        <time>2018-05-05T08:53:51Z</time>
      </trkpt>
      <trkpt lat="49.48793" lon="5.8426">
        <ele>355.15</ele>
        <time>2018-05-05T08:53:52Z</time>
      </trkpt>
      <trkpt lat="49.48796" lon="5.84257">
        <ele>355.31</ele>
        <time>2018-05-05T08:53:53Z</time>
      </trkpt>
      <trkpt lat="49.48799" lon="5.84253">
        <ele>355.48</ele>
        <time>2018-05-05T08:53:54Z</time>
      </trkpt>
      <trkpt lat="49.48809" lon="5.84242">
        <ele>356</ele>
        <time>2018-05-05T08:53:58Z</time>
      </trkpt>
      <trkpt lat="49.48811" lon="5.84241">
        <ele>356.26</ele>
        <time>2018-05-05T08:53:59Z</time>
      </trkpt>
      <trkpt lat="49.48812" lon="5.84239">
        <ele>356.59</ele>
        <time>2018-05-05T08:54:00Z</time>
      </trkpt>
      <trkpt lat="49.48813" lon="5.84237">
        <ele>356.96</ele>
        <time>2018-05-05T08:54:01Z</time>
      </trkpt>
      <trkpt lat="49.48814" lon="5.84234">
        <ele>357.45</ele>
        <time>2018-05-05T08:54:02Z</time>
      </trkpt>
      <trkpt lat="49.48816" lon="5.84231">
        <ele>358.03</ele>
        <time>2018-05-05T08:54:03Z</time>
      </trkpt>
      <trkpt lat="49.48817" lon="5.84229">
        <ele>358.71</ele>
        <time>2018-05-05T08:54:04Z</time>
      </trkpt>
      <trkpt lat="49.48822" lon="5.84226">
        <ele>359.28</ele>
        <time>2018-05-05T08:54:06Z</time>
      </trkpt>
      <trkpt lat="49.48846" lon="5.84213">
        <ele>361</ele>
        <time>2018-05-05T08:54:13Z</time>
      </trkpt>
      <trkpt lat="49.48867" lon="5.842">
        <ele>359.18</ele>
        <time>2018-05-05T08:54:20Z</time>
      </trkpt>
      <trkpt lat="49.48877" lon="5.84194">
        <ele>354.65</ele>
        <time>2018-05-05T08:54:24Z</time>
      </trkpt>
      <trkpt lat="49.48888" lon="5.84185">
        <ele>346.45</ele>
        <time>2018-05-05T08:54:30Z</time>
      </trkpt>
      <trkpt lat="49.48892" lon="5.84175">
        <ele>340.68</ele>
        <time>2018-05-05T08:54:41Z</time>
      </trkpt>
      <trkpt lat="49.48899" lon="5.84168">
        <ele>335.81</ele>
        <time>2018-05-05T08:54:52Z</time>
      </trkpt>
      <trkpt lat="49.489" lon="5.84166">
        <ele>335.3</ele>
        <time>2018-05-05T08:54:53Z</time>
      </trkpt>
      <trkpt lat="49.48904" lon="5.84162">
        <ele>334.13</ele>
        <time>2018-05-05T08:54:55Z</time>
      </trkpt>
      <trkpt lat="49.48906" lon="5.8416">
        <ele>333.8</ele>
        <time>2018-05-05T08:54:56Z</time>
      </trkpt>
      <trkpt lat="49.48908" lon="5.84159">
        <ele>333.37</ele>
        <time>2018-05-05T08:54:57Z</time>
      </trkpt>
      <trkpt lat="49.48915" lon="5.84159">
        <ele>332.15</ele>
        <time>2018-05-05T08:55:02Z</time>
      </trkpt>
      <trkpt lat="49.48925" lon="5.84157">
        <ele>332.09</ele>
        <time>2018-05-05T08:55:06Z</time>
      </trkpt>
      <trkpt lat="49.48928" lon="5.84157">
        <ele>331.96</ele>
        <time>2018-05-05T08:55:07Z</time>
      </trkpt>
      <trkpt lat="49.48944" lon="5.84156">
        <ele>331.71</ele>
        <time>2018-05-05T08:55:13Z</time>
      </trkpt>
      <trkpt lat="49.48963" lon="5.84153">
        <ele>328.74</ele>
        <time>2018-05-05T08:55:20Z</time>
      </trkpt>
      <trkpt lat="49.48965" lon="5.84152">
        <ele>328.51</ele>
        <time>2018-05-05T08:55:21Z</time>
      </trkpt>
      <trkpt lat="49.48983" lon="5.84144">
        <ele>325.62</ele>
        <time>2018-05-05T08:55:28Z</time>
      </trkpt>
      <trkpt lat="49.48999" lon="5.84142">
        <ele>323.75</ele>
        <time>2018-05-05T08:55:35Z</time>
      </trkpt>
      <trkpt lat="49.49006" lon="5.84138">
        <ele>323.21</ele>
        <time>2018-05-05T08:55:40Z</time>
      </trkpt>
      <trkpt lat="49.49006" lon="5.84134">
        <ele>324.09</ele>
        <time>2018-05-05T08:55:45Z</time>
      </trkpt>
      <trkpt lat="49.4901" lon="5.84112">
        <ele>324.41</ele>
        <time>2018-05-05T08:56:01Z</time>
      </trkpt>
      <trkpt lat="49.49011" lon="5.8411">
        <ele>324.56</ele>
        <time>2018-05-05T08:56:02Z</time>
      </trkpt>
      <trkpt lat="49.49016" lon="5.84091">
        <ele>325.47</ele>
        <time>2018-05-05T08:56:09Z</time>
      </trkpt>
      <trkpt lat="49.49017" lon="5.84086">
        <ele>325.47</ele>
        <time>2018-05-05T08:56:11Z</time>
      </trkpt>
      <trkpt lat="49.49026" lon="5.84079">
        <ele>324.04</ele>
        <time>2018-05-05T08:56:18Z</time>
      </trkpt>
      <trkpt lat="49.49032" lon="5.8407">
        <ele>324.15</ele>
        <time>2018-05-05T08:56:24Z</time>
      </trkpt>
      <trkpt lat="49.49042" lon="5.84051">
        <ele>324.24</ele>
        <time>2018-05-05T08:56:31Z</time>
      </trkpt>
      <trkpt lat="49.49049" lon="5.84045">
        <ele>323.5</ele>
        <time>2018-05-05T08:56:35Z</time>
      </trkpt>
      <trkpt lat="49.49059" lon="5.84045">
        <ele>320.85</ele>
        <time>2018-05-05T08:56:41Z</time>
      </trkpt>
      <trkpt lat="49.4907" lon="5.84044">
        <ele>319.02</ele>
        <time>2018-05-05T08:56:49Z</time>
      </trkpt>
      <trkpt lat="49.49081" lon="5.84044">
        <ele>319.25</ele>
        <time>2018-05-05T08:56:57Z</time>
      </trkpt>
      <trkpt lat="49.49101" lon="5.84043">
        <ele>319.88</ele>
        <time>2018-05-05T08:57:07Z</time>
      </trkpt>
      <trkpt lat="49.49108" lon="5.84044">
        <ele>320.61</ele>
        <time>2018-05-05T08:57:13Z</time>
      </trkpt>
      <trkpt lat="49.49115" lon="5.84046">
        <ele>317.63</ele>
        <time>2018-05-05T08:57:19Z</time>
      </trkpt>
      <trkpt lat="49.49127" lon="5.84057">
        <ele>316.62</ele>
        <time>2018-05-05T08:57:29Z</time>
      </trkpt>
      <trkpt lat="49.49134" lon="5.84059">
        <ele>316.57</ele>
        <time>2018-05-05T08:57:31Z</time>
      </trkpt>
      <trkpt lat="49.49168" lon="5.84069">
        <ele>308.36</ele>
        <time>2018-05-05T08:57:55Z</time>
      </trkpt>
      <trkpt lat="49.49186" lon="5.84077">
        <ele>306.05</ele>
        <time>2018-05-05T08:58:04Z</time>
      </trkpt>
      <trkpt lat="49.4919" lon="5.84078">
        <ele>308.14</ele>
        <time>2018-05-05T08:58:10Z</time>
      </trkpt>
      <trkpt lat="49.49191" lon="5.84078">
        <ele>309.47</ele>
        <time>2018-05-05T08:58:12Z</time>
      </trkpt>
      <trkpt lat="49.49195" lon="5.84074">
        <ele>311</ele>
        <time>2018-05-05T08:58:22Z</time>
      </trkpt>
      <trkpt lat="49.49207" lon="5.84078">
        <ele>319.71</ele>
        <time>2018-05-05T08:58:36Z</time>
      </trkpt>
      <trkpt lat="49.49212" lon="5.84078">
        <ele>319.84</ele>
        <time>2018-05-05T08:58:47Z</time>
      </trkpt>
      <trkpt lat="49.49307" lon="5.84116">
        <ele>347.32</ele>
        <time>2018-05-05T09:02:03Z</time>
      </trkpt>
      <trkpt lat="49.49309" lon="5.84118">
        <ele>347.33</ele>
        <time>2018-05-05T09:02:04Z</time>
      </trkpt>
      <trkpt lat="49.49315" lon="5.84129">
        <ele>346.99</ele>
        <time>2018-05-05T09:02:10Z</time>
      </trkpt>
      <trkpt lat="49.49317" lon="5.84135">
        <ele>346.82</ele>
        <time>2018-05-05T09:02:15Z</time>
      </trkpt>
      <trkpt lat="49.49323" lon="5.84154">
        <ele>347.82</ele>
        <time>2018-05-05T09:02:27Z</time>
      </trkpt>
      <trkpt lat="49.49325" lon="5.8416">
        <ele>347.64</ele>
        <time>2018-05-05T09:02:30Z</time>
      </trkpt>
      <trkpt lat="49.49327" lon="5.84171">
        <ele>346.85</ele>
        <time>2018-05-05T09:02:36Z</time>
      </trkpt>
      <trkpt lat="49.49331" lon="5.84179">
        <ele>346.48</ele>
        <time>2018-05-05T09:02:38Z</time>
      </trkpt>
      <trkpt lat="49.49339" lon="5.84195">
        <ele>344.81</ele>
        <time>2018-05-05T09:02:45Z</time>
      </trkpt>
      <trkpt lat="49.49344" lon="5.84204">
        <ele>344.05</ele>
        <time>2018-05-05T09:02:52Z</time>
      </trkpt>
      <trkpt lat="49.49348" lon="5.8421">
        <ele>344.17</ele>
        <time>2018-05-05T09:02:56Z</time>
      </trkpt>
      <trkpt lat="49.49358" lon="5.84221">
        <ele>343.61</ele>
        <time>2018-05-05T09:03:03Z</time>
      </trkpt>
      <trkpt lat="49.4936" lon="5.84223">
        <ele>343.06</ele>
        <time>2018-05-05T09:03:05Z</time>
      </trkpt>
      <trkpt lat="49.49372" lon="5.84244">
        <ele>341.06</ele>
        <time>2018-05-05T09:03:14Z</time>
      </trkpt>
      <trkpt lat="49.49376" lon="5.8426">
        <ele>339.57</ele>
        <time>2018-05-05T09:03:22Z</time>
      </trkpt>
      <trkpt lat="49.49381" lon="5.84268">
        <ele>339.5</ele>
        <time>2018-05-05T09:03:28Z</time>
      </trkpt>
      <trkpt lat="49.4939" lon="5.8428">
        <ele>340.11</ele>
        <time>2018-05-05T09:03:39Z</time>
      </trkpt>
      <trkpt lat="49.49392" lon="5.84287">
        <ele>340.29</ele>
        <time>2018-05-05T09:03:41Z</time>
      </trkpt>
      <trkpt lat="49.494" lon="5.84303">
        <ele>339.69</ele>
        <time>2018-05-05T09:03:48Z</time>
      </trkpt>
      <trkpt lat="49.49407" lon="5.8431">
        <ele>339.33</ele>
        <time>2018-05-05T09:03:54Z</time>
      </trkpt>
      <trkpt lat="49.49408" lon="5.84312">
        <ele>340.05</ele>
        <time>2018-05-05T09:03:55Z</time>
      </trkpt>
      <trkpt lat="49.49417" lon="5.84322">
        <ele>340.51</ele>
        <time>2018-05-05T09:04:03Z</time>
      </trkpt>
      <trkpt lat="49.49424" lon="5.84336">
        <ele>341.21</ele>
        <time>2018-05-05T09:04:13Z</time>
      </trkpt>
      <trkpt lat="49.49439" lon="5.84353">
        <ele>341.68</ele>
        <time>2018-05-05T09:04:24Z</time>
      </trkpt>
      <trkpt lat="49.49451" lon="5.8437">
        <ele>342.34</ele>
        <time>2018-05-05T09:04:35Z</time>
      </trkpt>
      <trkpt lat="49.49463" lon="5.84386">
        <ele>342.71</ele>
        <time>2018-05-05T09:04:47Z</time>
      </trkpt>
      <trkpt lat="49.49474" lon="5.84403">
        <ele>343.79</ele>
        <time>2018-05-05T09:04:57Z</time>
      </trkpt>
      <trkpt lat="49.49475" lon="5.84417">
        <ele>345.83</ele>
        <time>2018-05-05T09:05:06Z</time>
      </trkpt>
      <trkpt lat="49.49479" lon="5.8443">
        <ele>346.67</ele>
        <time>2018-05-05T09:05:13Z</time>
      </trkpt>
      <trkpt lat="49.49485" lon="5.84438">
        <ele>346.94</ele>
        <time>2018-05-05T09:05:18Z</time>
      </trkpt>
      <trkpt lat="49.49498" lon="5.8446">
        <ele>347.8</ele>
        <time>2018-05-05T09:05:27Z</time>
      </trkpt>
      <trkpt lat="49.49503" lon="5.84465">
        <ele>347.58</ele>
        <time>2018-05-05T09:05:32Z</time>
      </trkpt>
      <trkpt lat="49.49512" lon="5.84466">
        <ele>351.16</ele>
        <time>2018-05-05T09:05:39Z</time>
      </trkpt>
      <trkpt lat="49.49517" lon="5.84457">
        <ele>353.02</ele>
        <time>2018-05-05T09:05:46Z</time>
      </trkpt>
      <trkpt lat="49.49524" lon="5.84439">
        <ele>355.42</ele>
        <time>2018-05-05T09:05:55Z</time>
      </trkpt>
      <trkpt lat="49.49531" lon="5.8443">
        <ele>358.93</ele>
        <time>2018-05-05T09:06:03Z</time>
      </trkpt>
      <trkpt lat="49.49536" lon="5.84422">
        <ele>361.08</ele>
        <time>2018-05-05T09:06:09Z</time>
      </trkpt>
      <trkpt lat="49.49544" lon="5.84411">
        <ele>364.1</ele>
        <time>2018-05-05T09:06:17Z</time>
      </trkpt>
      <trkpt lat="49.49557" lon="5.84396">
        <ele>368.59</ele>
        <time>2018-05-05T09:06:28Z</time>
      </trkpt>
      <trkpt lat="49.49562" lon="5.84387">
        <ele>370.77</ele>
        <time>2018-05-05T09:06:35Z</time>
      </trkpt>
      <trkpt lat="49.49572" lon="5.84376">
        <ele>373.12</ele>
        <time>2018-05-05T09:06:44Z</time>
      </trkpt>
      <trkpt lat="49.49574" lon="5.84373">
        <ele>374.55</ele>
        <time>2018-05-05T09:06:48Z</time>
      </trkpt>
      <trkpt lat="49.49581" lon="5.84363">
        <ele>376.33</ele>
        <time>2018-05-05T09:06:56Z</time>
      </trkpt>
      <trkpt lat="49.49582" lon="5.84362">
        <ele>376.98</ele>
        <time>2018-05-05T09:06:59Z</time>
      </trkpt>
      <trkpt lat="49.496" lon="5.84345">
        <ele>386.01</ele>
        <time>2018-05-05T09:10:24Z</time>
      </trkpt>
      <trkpt lat="49.49603" lon="5.8434">
        <ele>386.59</ele>
        <time>2018-05-05T09:10:28Z</time>
      </trkpt>
      <trkpt lat="49.49608" lon="5.84335">
        <ele>386.77</ele>
        <time>2018-05-05T09:10:32Z</time>
      </trkpt>
      <trkpt lat="49.49619" lon="5.8432">
        <ele>386.25</ele>
        <time>2018-05-05T09:10:43Z</time>
      </trkpt>
      <trkpt lat="49.49627" lon="5.84308">
        <ele>387.26</ele>
        <time>2018-05-05T09:10:50Z</time>
      </trkpt>
      <trkpt lat="49.49631" lon="5.84298">
        <ele>388.13</ele>
        <time>2018-05-05T09:10:55Z</time>
      </trkpt>
      <trkpt lat="49.49632" lon="5.84296">
        <ele>388.26</ele>
        <time>2018-05-05T09:10:56Z</time>
      </trkpt>
      <trkpt lat="49.49636" lon="5.84286">
        <ele>389.36</ele>
        <time>2018-05-05T09:11:01Z</time>
      </trkpt>
      <trkpt lat="49.49638" lon="5.84274">
        <ele>390.22</ele>
        <time>2018-05-05T09:11:06Z</time>
      </trkpt>
      <trkpt lat="49.49643" lon="5.84258">
        <ele>391.42</ele>
        <time>2018-05-05T09:11:15Z</time>
      </trkpt>
      <trkpt lat="49.49647" lon="5.8424">
        <ele>392.69</ele>
        <time>2018-05-05T09:11:22Z</time>
      </trkpt>
      <trkpt lat="49.49653" lon="5.84217">
        <ele>394</ele>
        <time>2018-05-05T09:11:32Z</time>
      </trkpt>
      <trkpt lat="49.49653" lon="5.84215">
        <ele>394.21</ele>
        <time>2018-05-05T09:11:33Z</time>
      </trkpt>
      <trkpt lat="49.49659" lon="5.84195">
        <ele>395.45</ele>
        <time>2018-05-05T09:11:41Z</time>
      </trkpt>
      <trkpt lat="49.49663" lon="5.84177">
        <ele>397.46</ele>
        <time>2018-05-05T09:11:48Z</time>
      </trkpt>
      <trkpt lat="49.49668" lon="5.84159">
        <ele>398.44</ele>
        <time>2018-05-05T09:11:56Z</time>
      </trkpt>
      <trkpt lat="49.49672" lon="5.84144">
        <ele>401.2</ele>
        <time>2018-05-05T09:12:03Z</time>
      </trkpt>
      <trkpt lat="49.49677" lon="5.84124">
        <ele>404.35</ele>
        <time>2018-05-05T09:12:11Z</time>
      </trkpt>
      <trkpt lat="49.49678" lon="5.8412">
        <ele>405.17</ele>
        <time>2018-05-05T09:12:13Z</time>
      </trkpt>
      <trkpt lat="49.49681" lon="5.84099">
        <ele>408.64</ele>
        <time>2018-05-05T09:12:20Z</time>
      </trkpt>
      <trkpt lat="49.49685" lon="5.84083">
        <ele>411.68</ele>
        <time>2018-05-05T09:12:26Z</time>
      </trkpt>
      <trkpt lat="49.4969" lon="5.84068">
        <ele>415.33</ele>
        <time>2018-05-05T09:12:33Z</time>
      </trkpt>
      <trkpt lat="49.49691" lon="5.84062">
        <ele>416.31</ele>
        <time>2018-05-05T09:12:35Z</time>
      </trkpt>
      <trkpt lat="49.49691" lon="5.84059">
        <ele>416.62</ele>
        <time>2018-05-05T09:12:36Z</time>
      </trkpt>
      <trkpt lat="49.49691" lon="5.84057">
        <ele>416.86</ele>
        <time>2018-05-05T09:12:37Z</time>
      </trkpt>
      <trkpt lat="49.49692" lon="5.84054">
        <ele>417.33</ele>
        <time>2018-05-05T09:12:38Z</time>
      </trkpt>
      <trkpt lat="49.49692" lon="5.84051">
        <ele>417.77</ele>
        <time>2018-05-05T09:12:39Z</time>
      </trkpt>
      <trkpt lat="49.49693" lon="5.84048">
        <ele>418.49</ele>
        <time>2018-05-05T09:12:40Z</time>
      </trkpt>
      <trkpt lat="49.49696" lon="5.84035">
        <ele>421.7</ele>
        <time>2018-05-05T09:12:45Z</time>
      </trkpt>
      <trkpt lat="49.49701" lon="5.84021">
        <ele>425.54</ele>
        <time>2018-05-05T09:12:51Z</time>
      </trkpt>
      <trkpt lat="49.49701" lon="5.84019">
        <ele>426.17</ele>
        <time>2018-05-05T09:12:52Z</time>
      </trkpt>
      <trkpt lat="49.49702" lon="5.84017">
        <ele>426.86</ele>
        <time>2018-05-05T09:12:53Z</time>
      </trkpt>
      <trkpt lat="49.49703" lon="5.84013">
        <ele>427.56</ele>
        <time>2018-05-05T09:12:54Z</time>
      </trkpt>
      <trkpt lat="49.49703" lon="5.84009">
        <ele>428.25</ele>
        <time>2018-05-05T09:12:55Z</time>
      </trkpt>
      <trkpt lat="49.49704" lon="5.84006">
        <ele>428.86</ele>
        <time>2018-05-05T09:12:56Z</time>
      </trkpt>
      <trkpt lat="49.49705" lon="5.84002">
        <ele>429.33</ele>
        <time>2018-05-05T09:12:57Z</time>
      </trkpt>
      <trkpt lat="49.49705" lon="5.83999">
        <ele>429.92</ele>
        <time>2018-05-05T09:12:58Z</time>
      </trkpt>
      <trkpt lat="49.49707" lon="5.83983">
        <ele>431.55</ele>
        <time>2018-05-05T09:13:03Z</time>
      </trkpt>
      <trkpt lat="49.49709" lon="5.83972">
        <ele>432.16</ele>
        <time>2018-05-05T09:13:07Z</time>
      </trkpt>
      <trkpt lat="49.4971" lon="5.83969">
        <ele>432.43</ele>
        <time>2018-05-05T09:13:08Z</time>
      </trkpt>
      <trkpt lat="49.49715" lon="5.83951">
        <ele>434.64</ele>
        <time>2018-05-05T09:13:15Z</time>
      </trkpt>
      <trkpt lat="49.49716" lon="5.83948">
        <ele>434.69</ele>
        <time>2018-05-05T09:13:16Z</time>
      </trkpt>
      <trkpt lat="49.49717" lon="5.83942">
        <ele>435.09</ele>
        <time>2018-05-05T09:13:18Z</time>
      </trkpt>
      <trkpt lat="49.49718" lon="5.83938">
        <ele>435.28</ele>
        <time>2018-05-05T09:13:19Z</time>
      </trkpt>
      <trkpt lat="49.49717" lon="5.83935">
        <ele>435.54</ele>
        <time>2018-05-05T09:13:20Z</time>
      </trkpt>
      <trkpt lat="49.49717" lon="5.83932">
        <ele>435.88</ele>
        <time>2018-05-05T09:13:21Z</time>
      </trkpt>
      <trkpt lat="49.49718" lon="5.8393">
        <ele>436.13</ele>
        <time>2018-05-05T09:13:22Z</time>
      </trkpt>
      <trkpt lat="49.49719" lon="5.83927">
        <ele>436.08</ele>
        <time>2018-05-05T09:13:23Z</time>
      </trkpt>
      <trkpt lat="49.4972" lon="5.83925">
        <ele>436.22</ele>
        <time>2018-05-05T09:13:24Z</time>
      </trkpt>
      <trkpt lat="49.4972" lon="5.8392">
        <ele>436.34</ele>
        <time>2018-05-05T09:13:25Z</time>
      </trkpt>
      <trkpt lat="49.49722" lon="5.83917">
        <ele>436.74</ele>
        <time>2018-05-05T09:13:26Z</time>
      </trkpt>
      <trkpt lat="49.49723" lon="5.83913">
        <ele>436.92</ele>
        <time>2018-05-05T09:13:27Z</time>
      </trkpt>
      <trkpt lat="49.49725" lon="5.8391">
        <ele>437.32</ele>
        <time>2018-05-05T09:13:28Z</time>
      </trkpt>
      <trkpt lat="49.49726" lon="5.83908">
        <ele>437.79</ele>
        <time>2018-05-05T09:13:29Z</time>
      </trkpt>
      <trkpt lat="49.49727" lon="5.83906">
        <ele>438.26</ele>
        <time>2018-05-05T09:13:30Z</time>
      </trkpt>
      <trkpt lat="49.49728" lon="5.83902">
        <ele>438.4</ele>
        <time>2018-05-05T09:13:31Z</time>
      </trkpt>
      <trkpt lat="49.49734" lon="5.83881">
        <ele>439.79</ele>
        <time>2018-05-05T09:13:38Z</time>
      </trkpt>
      <trkpt lat="49.49741" lon="5.83858">
        <ele>439.83</ele>
        <time>2018-05-05T09:13:45Z</time>
      </trkpt>
      <trkpt lat="49.49742" lon="5.83855">
        <ele>439.2</ele>
        <time>2018-05-05T09:13:46Z</time>
      </trkpt>
      <trkpt lat="49.49743" lon="5.83851">
        <ele>438.72</ele>
        <time>2018-05-05T09:13:47Z</time>
      </trkpt>
      <trkpt lat="49.49744" lon="5.83847">
        <ele>438.02</ele>
        <time>2018-05-05T09:13:48Z</time>
      </trkpt>
      <trkpt lat="49.49745" lon="5.83844">
        <ele>437.72</ele>
        <time>2018-05-05T09:13:49Z</time>
      </trkpt>
      <trkpt lat="49.49746" lon="5.83841">
        <ele>437.31</ele>
        <time>2018-05-05T09:13:50Z</time>
      </trkpt>
      <trkpt lat="49.49749" lon="5.83827">
        <ele>436.68</ele>
        <time>2018-05-05T09:13:55Z</time>
      </trkpt>
      <trkpt lat="49.49749" lon="5.83821">
        <ele>436.32</ele>
        <time>2018-05-05T09:13:56Z</time>
      </trkpt>
      <trkpt lat="49.4975" lon="5.83818">
        <ele>436.21</ele>
        <time>2018-05-05T09:13:57Z</time>
      </trkpt>
      <trkpt lat="49.4975" lon="5.83816">
        <ele>436.18</ele>
        <time>2018-05-05T09:13:58Z</time>
      </trkpt>
      <trkpt lat="49.49751" lon="5.83813">
        <ele>436.12</ele>
        <time>2018-05-05T09:13:59Z</time>
      </trkpt>
      <trkpt lat="49.49752" lon="5.8381">
        <ele>436.14</ele>
        <time>2018-05-05T09:14:00Z</time>
      </trkpt>
      <trkpt lat="49.49753" lon="5.83807">
        <ele>435.83</ele>
        <time>2018-05-05T09:14:01Z</time>
      </trkpt>
      <trkpt lat="49.49754" lon="5.83805">
        <ele>435.82</ele>
        <time>2018-05-05T09:14:02Z</time>
      </trkpt>
      <trkpt lat="49.49755" lon="5.83802">
        <ele>435.72</ele>
        <time>2018-05-05T09:14:03Z</time>
      </trkpt>
      <trkpt lat="49.49756" lon="5.83799">
        <ele>435.64</ele>
        <time>2018-05-05T09:14:04Z</time>
      </trkpt>
      <trkpt lat="49.49765" lon="5.83781">
        <ele>431.63</ele>
        <time>2018-05-05T09:14:10Z</time>
      </trkpt>
      <trkpt lat="49.4977" lon="5.83763">
        <ele>428.73</ele>
        <time>2018-05-05T09:14:17Z</time>
      </trkpt>
      <trkpt lat="49.4977" lon="5.83761">
        <ele>428.32</ele>
        <time>2018-05-05T09:14:18Z</time>
      </trkpt>
      <trkpt lat="49.49771" lon="5.83758">
        <ele>427.6</ele>
        <time>2018-05-05T09:14:19Z</time>
      </trkpt>
      <trkpt lat="49.49771" lon="5.83755">
        <ele>426.9</ele>
        <time>2018-05-05T09:14:20Z</time>
      </trkpt>
      <trkpt lat="49.49772" lon="5.83753">
        <ele>426.01</ele>
        <time>2018-05-05T09:14:21Z</time>
      </trkpt>
      <trkpt lat="49.49773" lon="5.83751">
        <ele>425.47</ele>
        <time>2018-05-05T09:14:22Z</time>
      </trkpt>
      <trkpt lat="49.49774" lon="5.83748">
        <ele>424.77</ele>
        <time>2018-05-05T09:14:23Z</time>
      </trkpt>
      <trkpt lat="49.49776" lon="5.83747">
        <ele>424.21</ele>
        <time>2018-05-05T09:14:24Z</time>
      </trkpt>
      <trkpt lat="49.49777" lon="5.83745">
        <ele>423.93</ele>
        <time>2018-05-05T09:14:25Z</time>
      </trkpt>
      <trkpt lat="49.49778" lon="5.83743">
        <ele>423.33</ele>
        <time>2018-05-05T09:14:26Z</time>
      </trkpt>
      <trkpt lat="49.49778" lon="5.8374">
        <ele>422.94</ele>
        <time>2018-05-05T09:14:27Z</time>
      </trkpt>
      <trkpt lat="49.49779" lon="5.83739">
        <ele>422.67</ele>
        <time>2018-05-05T09:14:28Z</time>
      </trkpt>
      <trkpt lat="49.49779" lon="5.83741">
        <ele>421.76</ele>
        <time>2018-05-05T09:14:34Z</time>
      </trkpt>
      <trkpt lat="49.49777" lon="5.83735">
        <ele>421.89</ele>
        <time>2018-05-05T09:14:40Z</time>
      </trkpt>
      <trkpt lat="49.49777" lon="5.83733">
        <ele>421.4</ele>
        <time>2018-05-05T09:14:41Z</time>
      </trkpt>
      <trkpt lat="49.49777" lon="5.8373">
        <ele>420.95</ele>
        <time>2018-05-05T09:14:42Z</time>
      </trkpt>
      <trkpt lat="49.49776" lon="5.83728">
        <ele>420.53</ele>
        <time>2018-05-05T09:14:43Z</time>
      </trkpt>
      <trkpt lat="49.49776" lon="5.83725">
        <ele>420.17</ele>
        <time>2018-05-05T09:14:44Z</time>
      </trkpt>
      <trkpt lat="49.49771" lon="5.83706">
        <ele>416.91</ele>
        <time>2018-05-05T09:14:52Z</time>
      </trkpt>
      <trkpt lat="49.49765" lon="5.83682">
        <ele>413.19</ele>
        <time>2018-05-05T09:15:01Z</time>
      </trkpt>
      <trkpt lat="49.49759" lon="5.83663">
        <ele>410.9</ele>
        <time>2018-05-05T09:15:07Z</time>
      </trkpt>
      <trkpt lat="49.49753" lon="5.83637">
        <ele>408.72</ele>
        <time>2018-05-05T09:15:13Z</time>
      </trkpt>
      <trkpt lat="49.49745" lon="5.83609">
        <ele>405.57</ele>
        <time>2018-05-05T09:15:19Z</time>
      </trkpt>
      <trkpt lat="49.49738" lon="5.83581">
        <ele>403.85</ele>
        <time>2018-05-05T09:15:25Z</time>
      </trkpt>
      <trkpt lat="49.49736" lon="5.83568">
        <ele>403.18</ele>
        <time>2018-05-05T09:15:28Z</time>
      </trkpt>
      <trkpt lat="49.49738" lon="5.83557">
        <ele>403.26</ele>
        <time>2018-05-05T09:15:30Z</time>
      </trkpt>
      <trkpt lat="49.4974" lon="5.83553">
        <ele>403.14</ele>
        <time>2018-05-05T09:15:31Z</time>
      </trkpt>
      <trkpt lat="49.49742" lon="5.83548">
        <ele>403.03</ele>
        <time>2018-05-05T09:15:32Z</time>
      </trkpt>
      <trkpt lat="49.49745" lon="5.83545">
        <ele>402.89</ele>
        <time>2018-05-05T09:15:33Z</time>
      </trkpt>
      <trkpt lat="49.49748" lon="5.83543">
        <ele>402.79</ele>
        <time>2018-05-05T09:15:34Z</time>
      </trkpt>
      <trkpt lat="49.49765" lon="5.83534">
        <ele>402.04</ele>
        <time>2018-05-05T09:15:41Z</time>
      </trkpt>
      <trkpt lat="49.4978" lon="5.83525">
        <ele>402.09</ele>
        <time>2018-05-05T09:15:47Z</time>
      </trkpt>
      <trkpt lat="49.49802" lon="5.83519">
        <ele>402.3</ele>
        <time>2018-05-05T09:15:54Z</time>
      </trkpt>
      <trkpt lat="49.49821" lon="5.83511">
        <ele>402.89</ele>
        <time>2018-05-05T09:15:59Z</time>
      </trkpt>
      <trkpt lat="49.49854" lon="5.83499">
        <ele>401.47</ele>
        <time>2018-05-05T09:16:05Z</time>
      </trkpt>
      <trkpt lat="49.49887" lon="5.83488">
        <ele>401.99</ele>
        <time>2018-05-05T09:16:11Z</time>
      </trkpt>
      <trkpt lat="49.49921" lon="5.83475">
        <ele>399.31</ele>
        <time>2018-05-05T09:16:17Z</time>
      </trkpt>
      <trkpt lat="49.49958" lon="5.83462">
        <ele>399.56</ele>
        <time>2018-05-05T09:16:24Z</time>
      </trkpt>
      <trkpt lat="49.4997" lon="5.83457">
        <ele>399.65</ele>
        <time>2018-05-05T09:16:26Z</time>
      </trkpt>
      <trkpt lat="49.49976" lon="5.83455">
        <ele>400.23</ele>
        <time>2018-05-05T09:16:27Z</time>
      </trkpt>
      <trkpt lat="49.49981" lon="5.83454">
        <ele>399.99</ele>
        <time>2018-05-05T09:16:28Z</time>
      </trkpt>
      <trkpt lat="49.49986" lon="5.83451">
        <ele>399.76</ele>
        <time>2018-05-05T09:16:29Z</time>
      </trkpt>
      <trkpt lat="49.49992" lon="5.83448">
        <ele>399.68</ele>
        <time>2018-05-05T09:16:30Z</time>
      </trkpt>
      <trkpt lat="49.49998" lon="5.83446">
        <ele>399.97</ele>
        <time>2018-05-05T09:16:31Z</time>
      </trkpt>
      <trkpt lat="49.50015" lon="5.8344">
        <ele>400.2</ele>
        <time>2018-05-05T09:16:34Z</time>
      </trkpt>
      <trkpt lat="49.50031" lon="5.83438">
        <ele>400.26</ele>
        <time>2018-05-05T09:16:39Z</time>
      </trkpt>
      <trkpt lat="49.50039" lon="5.83444">
        <ele>401.22</ele>
        <time>2018-05-05T09:16:52Z</time>
      </trkpt>
      <trkpt lat="49.5004" lon="5.83459">
        <ele>403.45</ele>
        <time>2018-05-05T09:17:52Z</time>
      </trkpt>
      <trkpt lat="49.50042" lon="5.83468">
        <ele>401.63</ele>
        <time>2018-05-05T09:17:57Z</time>
      </trkpt>
      <trkpt lat="49.50042" lon="5.83472">
        <ele>400.73</ele>
        <time>2018-05-05T09:17:59Z</time>
      </trkpt>
      <trkpt lat="49.50046" lon="5.83492">
        <ele>395.99</ele>
        <time>2018-05-05T09:18:07Z</time>
      </trkpt>
      <trkpt lat="49.50049" lon="5.83505">
        <ele>393.48</ele>
        <time>2018-05-05T09:18:12Z</time>
      </trkpt>
      <trkpt lat="49.50054" lon="5.83519">
        <ele>390.34</ele>
        <time>2018-05-05T09:18:17Z</time>
      </trkpt>
      <trkpt lat="49.50056" lon="5.83525">
        <ele>388.87</ele>
        <time>2018-05-05T09:18:19Z</time>
      </trkpt>
      <trkpt lat="49.50062" lon="5.83548">
        <ele>385.25</ele>
        <time>2018-05-05T09:18:25Z</time>
      </trkpt>
      <trkpt lat="49.50064" lon="5.83552">
        <ele>384.71</ele>
        <time>2018-05-05T09:18:26Z</time>
      </trkpt>
      <trkpt lat="49.50068" lon="5.83572">
        <ele>382.85</ele>
        <time>2018-05-05T09:18:32Z</time>
      </trkpt>
      <trkpt lat="49.50069" lon="5.83575">
        <ele>383.2</ele>
        <time>2018-05-05T09:18:34Z</time>
      </trkpt>
      <trkpt lat="49.50074" lon="5.83598">
        <ele>381.57</ele>
        <time>2018-05-05T09:18:42Z</time>
      </trkpt>
      <trkpt lat="49.50076" lon="5.8361">
        <ele>380.48</ele>
        <time>2018-05-05T09:18:45Z</time>
      </trkpt>
      <trkpt lat="49.50078" lon="5.83622">
        <ele>378.95</ele>
        <time>2018-05-05T09:18:49Z</time>
      </trkpt>
      <trkpt lat="49.50081" lon="5.83639">
        <ele>376.08</ele>
        <time>2018-05-05T09:18:55Z</time>
      </trkpt>
      <trkpt lat="49.50087" lon="5.83657">
        <ele>374.7</ele>
        <time>2018-05-05T09:19:01Z</time>
      </trkpt>
      <trkpt lat="49.50088" lon="5.83665">
        <ele>374.96</ele>
        <time>2018-05-05T09:19:04Z</time>
      </trkpt>
      <trkpt lat="49.50089" lon="5.83678">
        <ele>375.22</ele>
        <time>2018-05-05T09:19:10Z</time>
      </trkpt>
      <trkpt lat="49.50093" lon="5.83704">
        <ele>376.37</ele>
        <time>2018-05-05T09:19:22Z</time>
      </trkpt>
      <trkpt lat="49.50096" lon="5.83712">
        <ele>375.95</ele>
        <time>2018-05-05T09:19:25Z</time>
      </trkpt>
      <trkpt lat="49.50107" lon="5.83765">
        <ele>378.16</ele>
        <time>2018-05-05T09:19:47Z</time>
      </trkpt>
      <trkpt lat="49.5011" lon="5.83783">
        <ele>379.58</ele>
        <time>2018-05-05T09:19:57Z</time>
      </trkpt>
      <trkpt lat="49.50117" lon="5.8382">
        <ele>383.73</ele>
        <time>2018-05-05T09:20:11Z</time>
      </trkpt>
      <trkpt lat="49.50122" lon="5.83843">
        <ele>387.73</ele>
        <time>2018-05-05T09:20:21Z</time>
      </trkpt>
      <trkpt lat="49.50127" lon="5.8387">
        <ele>390.17</ele>
        <time>2018-05-05T09:20:31Z</time>
      </trkpt>
      <trkpt lat="49.50129" lon="5.83882">
        <ele>391.42</ele>
        <time>2018-05-05T09:20:36Z</time>
      </trkpt>
      <trkpt lat="49.50132" lon="5.839">
        <ele>394.14</ele>
        <time>2018-05-05T09:20:43Z</time>
      </trkpt>
      <trkpt lat="49.50134" lon="5.83915">
        <ele>397.03</ele>
        <time>2018-05-05T09:20:49Z</time>
      </trkpt>
      <trkpt lat="49.50135" lon="5.8393">
        <ele>399.96</ele>
        <time>2018-05-05T09:20:57Z</time>
      </trkpt>
      <trkpt lat="49.50134" lon="5.83934">
        <ele>400.56</ele>
        <time>2018-05-05T09:20:59Z</time>
      </trkpt>
      <trkpt lat="49.50137" lon="5.83949">
        <ele>403.24</ele>
        <time>2018-05-05T09:21:06Z</time>
      </trkpt>
      <trkpt lat="49.50141" lon="5.83964">
        <ele>406.48</ele>
        <time>2018-05-05T09:21:14Z</time>
      </trkpt>
      <trkpt lat="49.50147" lon="5.83991">
        <ele>411.17</ele>
        <time>2018-05-05T09:21:27Z</time>
      </trkpt>
      <trkpt lat="49.50148" lon="5.83996">
        <ele>411.83</ele>
        <time>2018-05-05T09:21:29Z</time>
      </trkpt>
      <trkpt lat="49.5015" lon="5.84009">
        <ele>413.01</ele>
        <time>2018-05-05T09:21:34Z</time>
      </trkpt>
      <trkpt lat="49.50155" lon="5.84023">
        <ele>414.29</ele>
        <time>2018-05-05T09:21:40Z</time>
      </trkpt>
      <trkpt lat="49.50158" lon="5.84028">
        <ele>415.15</ele>
        <time>2018-05-05T09:21:43Z</time>
      </trkpt>
      <trkpt lat="49.5016" lon="5.84044">
        <ele>415.77</ele>
        <time>2018-05-05T09:21:52Z</time>
      </trkpt>
      <trkpt lat="49.50164" lon="5.84067">
        <ele>415.57</ele>
        <time>2018-05-05T09:22:00Z</time>
      </trkpt>
      <trkpt lat="49.50169" lon="5.84083">
        <ele>415.25</ele>
        <time>2018-05-05T09:22:06Z</time>
      </trkpt>
      <trkpt lat="49.5017" lon="5.84099">
        <ele>415.07</ele>
        <time>2018-05-05T09:22:11Z</time>
      </trkpt>
      <trkpt lat="49.50178" lon="5.84125">
        <ele>414.1</ele>
        <time>2018-05-05T09:22:20Z</time>
      </trkpt>
      <trkpt lat="49.5018" lon="5.84144">
        <ele>411.9</ele>
        <time>2018-05-05T09:22:26Z</time>
      </trkpt>
      <trkpt lat="49.50182" lon="5.8415">
        <ele>411.27</ele>
        <time>2018-05-05T09:22:28Z</time>
      </trkpt>
      <trkpt lat="49.50188" lon="5.84152">
        <ele>410.41</ele>
        <time>2018-05-05T09:22:32Z</time>
      </trkpt>
      <trkpt lat="49.50202" lon="5.8415">
        <ele>409.37</ele>
        <time>2018-05-05T09:22:39Z</time>
      </trkpt>
      <trkpt lat="49.50215" lon="5.84143">
        <ele>409.56</ele>
        <time>2018-05-05T09:22:46Z</time>
      </trkpt>
      <trkpt lat="49.50221" lon="5.84141">
        <ele>410.36</ele>
        <time>2018-05-05T09:22:50Z</time>
      </trkpt>
      <trkpt lat="49.50233" lon="5.84144">
        <ele>412.13</ele>
        <time>2018-05-05T09:22:57Z</time>
      </trkpt>
      <trkpt lat="49.5024" lon="5.84149">
        <ele>412.98</ele>
        <time>2018-05-05T09:23:01Z</time>
      </trkpt>
      <trkpt lat="49.50248" lon="5.84164">
        <ele>412.23</ele>
        <time>2018-05-05T09:23:06Z</time>
      </trkpt>
      <trkpt lat="49.50253" lon="5.84184">
        <ele>411.95</ele>
        <time>2018-05-05T09:23:12Z</time>
      </trkpt>
      <trkpt lat="49.50256" lon="5.84192">
        <ele>412.36</ele>
        <time>2018-05-05T09:23:14Z</time>
      </trkpt>
      <trkpt lat="49.50258" lon="5.84196">
        <ele>412.56</ele>
        <time>2018-05-05T09:23:15Z</time>
      </trkpt>
      <trkpt lat="49.5026" lon="5.84199">
        <ele>412.58</ele>
        <time>2018-05-05T09:23:16Z</time>
      </trkpt>
      <trkpt lat="49.50266" lon="5.84222">
        <ele>412.89</ele>
        <time>2018-05-05T09:23:23Z</time>
      </trkpt>
      <trkpt lat="49.50267" lon="5.84224">
        <ele>412.96</ele>
        <time>2018-05-05T09:23:24Z</time>
      </trkpt>
      <trkpt lat="49.50273" lon="5.84229">
        <ele>413.8</ele>
        <time>2018-05-05T09:23:29Z</time>
      </trkpt>
      <trkpt lat="49.50275" lon="5.84229">
        <ele>413.76</ele>
        <time>2018-05-05T09:23:30Z</time>
      </trkpt>
      <trkpt lat="49.50276" lon="5.84229">
        <ele>413.78</ele>
        <time>2018-05-05T09:23:31Z</time>
      </trkpt>
      <trkpt lat="49.50282" lon="5.84223">
        <ele>413.33</ele>
        <time>2018-05-05T09:23:36Z</time>
      </trkpt>
      <trkpt lat="49.50297" lon="5.84215">
        <ele>416.76</ele>
        <time>2018-05-05T09:23:44Z</time>
      </trkpt>
      <trkpt lat="49.50307" lon="5.84212">
        <ele>415.01</ele>
        <time>2018-05-05T09:23:50Z</time>
      </trkpt>
      <trkpt lat="49.50316" lon="5.84205">
        <ele>415.15</ele>
        <time>2018-05-05T09:23:56Z</time>
      </trkpt>
      <trkpt lat="49.50332" lon="5.84196">
        <ele>417.75</ele>
        <time>2018-05-05T09:24:03Z</time>
      </trkpt>
      <trkpt lat="49.50334" lon="5.84195">
        <ele>417.82</ele>
        <time>2018-05-05T09:24:04Z</time>
      </trkpt>
      <trkpt lat="49.50342" lon="5.8419">
        <ele>417.48</ele>
        <time>2018-05-05T09:24:08Z</time>
      </trkpt>
      <trkpt lat="49.50345" lon="5.84188">
        <ele>417.35</ele>
        <time>2018-05-05T09:24:10Z</time>
      </trkpt>
      <trkpt lat="49.50358" lon="5.84177">
        <ele>415.69</ele>
        <time>2018-05-05T09:24:18Z</time>
      </trkpt>
      <trkpt lat="49.5036" lon="5.84175">
        <ele>415.11</ele>
        <time>2018-05-05T09:24:19Z</time>
      </trkpt>
      <trkpt lat="49.5037" lon="5.8417">
        <ele>414.69</ele>
        <time>2018-05-05T09:24:24Z</time>
      </trkpt>
      <trkpt lat="49.50385" lon="5.84163">
        <ele>417.01</ele>
        <time>2018-05-05T09:24:31Z</time>
      </trkpt>
      <trkpt lat="49.50403" lon="5.8415">
        <ele>417.6</ele>
        <time>2018-05-05T09:24:37Z</time>
      </trkpt>
      <trkpt lat="49.50437" lon="5.84131">
        <ele>416.61</ele>
        <time>2018-05-05T09:24:44Z</time>
      </trkpt>
      <trkpt lat="49.50451" lon="5.8412">
        <ele>416.51</ele>
        <time>2018-05-05T09:24:49Z</time>
      </trkpt>
      <trkpt lat="49.5047" lon="5.84107">
        <ele>417.27</ele>
        <time>2018-05-05T09:24:55Z</time>
      </trkpt>
      <trkpt lat="49.50496" lon="5.84088">
        <ele>416.27</ele>
        <time>2018-05-05T09:25:02Z</time>
      </trkpt>
      <trkpt lat="49.50515" lon="5.84075">
        <ele>414.4</ele>
        <time>2018-05-05T09:25:07Z</time>
      </trkpt>
      <trkpt lat="49.50531" lon="5.84066">
        <ele>412.91</ele>
        <time>2018-05-05T09:25:12Z</time>
      </trkpt>
      <trkpt lat="49.5054" lon="5.84061">
        <ele>412.44</ele>
        <time>2018-05-05T09:25:17Z</time>
      </trkpt>
      <trkpt lat="49.5055" lon="5.84056">
        <ele>413.5</ele>
        <time>2018-05-05T09:25:21Z</time>
      </trkpt>
      <trkpt lat="49.50556" lon="5.84052">
        <ele>414.36</ele>
        <time>2018-05-05T09:25:24Z</time>
      </trkpt>
      <trkpt lat="49.50567" lon="5.84045">
        <ele>412.97</ele>
        <time>2018-05-05T09:25:31Z</time>
      </trkpt>
      <trkpt lat="49.50577" lon="5.84043">
        <ele>412.09</ele>
        <time>2018-05-05T09:25:37Z</time>
      </trkpt>
      <trkpt lat="49.50594" lon="5.84047">
        <ele>410.93</ele>
        <time>2018-05-05T09:25:47Z</time>
      </trkpt>
      <trkpt lat="49.50602" lon="5.84049">
        <ele>410.05</ele>
        <time>2018-05-05T09:25:51Z</time>
      </trkpt>
      <trkpt lat="49.50652" lon="5.84067">
        <ele>413.29</ele>
        <time>2018-05-05T09:26:23Z</time>
      </trkpt>
      <trkpt lat="49.5067" lon="5.84077">
        <ele>415.21</ele>
        <time>2018-05-05T09:26:36Z</time>
      </trkpt>
      <trkpt lat="49.50695" lon="5.84087">
        <ele>416.46</ele>
        <time>2018-05-05T09:26:49Z</time>
      </trkpt>
      <trkpt lat="49.50697" lon="5.8409">
        <ele>416.68</ele>
        <time>2018-05-05T09:26:50Z</time>
      </trkpt>
      <trkpt lat="49.50708" lon="5.84095">
        <ele>417.47</ele>
        <time>2018-05-05T09:26:57Z</time>
      </trkpt>
      <trkpt lat="49.5071" lon="5.84095">
        <ele>417.49</ele>
        <time>2018-05-05T09:26:58Z</time>
      </trkpt>
      <trkpt lat="49.50754" lon="5.8411">
        <ele>415.59</ele>
        <time>2018-05-05T09:27:21Z</time>
      </trkpt>
      <trkpt lat="49.50762" lon="5.8411">
        <ele>416.61</ele>
        <time>2018-05-05T09:27:25Z</time>
      </trkpt>
      <trkpt lat="49.50796" lon="5.84125">
        <ele>415.52</ele>
        <time>2018-05-05T09:27:47Z</time>
      </trkpt>
      <trkpt lat="49.50807" lon="5.84132">
        <ele>415.48</ele>
        <time>2018-05-05T09:27:51Z</time>
      </trkpt>
      <trkpt lat="49.50822" lon="5.84141">
        <ele>415.65</ele>
        <time>2018-05-05T09:27:57Z</time>
      </trkpt>
      <trkpt lat="49.50834" lon="5.84145">
        <ele>417.03</ele>
        <time>2018-05-05T09:28:03Z</time>
      </trkpt>
      <trkpt lat="49.50846" lon="5.84147">
        <ele>418.36</ele>
        <time>2018-05-05T09:28:11Z</time>
      </trkpt>
      <trkpt lat="49.50858" lon="5.84151">
        <ele>417.43</ele>
        <time>2018-05-05T09:28:18Z</time>
      </trkpt>
      <trkpt lat="49.50865" lon="5.84153">
        <ele>418.27</ele>
        <time>2018-05-05T09:28:21Z</time>
      </trkpt>
      <trkpt lat="49.50891" lon="5.84166">
        <ele>418.81</ele>
        <time>2018-05-05T09:28:34Z</time>
      </trkpt>
      <trkpt lat="49.50904" lon="5.84169">
        <ele>419.11</ele>
        <time>2018-05-05T09:28:41Z</time>
      </trkpt>
      <trkpt lat="49.50909" lon="5.84175">
        <ele>418.85</ele>
        <time>2018-05-05T09:28:46Z</time>
      </trkpt>
      <trkpt lat="49.50925" lon="5.84181">
        <ele>418.83</ele>
        <time>2018-05-05T09:28:57Z</time>
      </trkpt>
      <trkpt lat="49.50954" lon="5.84187">
        <ele>417.46</ele>
        <time>2018-05-05T09:29:06Z</time>
      </trkpt>
      <trkpt lat="49.50967" lon="5.84191">
        <ele>415.99</ele>
        <time>2018-05-05T09:29:11Z</time>
      </trkpt>
      <trkpt lat="49.50982" lon="5.84198">
        <ele>414.43</ele>
        <time>2018-05-05T09:29:17Z</time>
      </trkpt>
      <trkpt lat="49.50994" lon="5.84202">
        <ele>412.5</ele>
        <time>2018-05-05T09:29:23Z</time>
      </trkpt>
      <trkpt lat="49.50999" lon="5.842">
        <ele>410.99</ele>
        <time>2018-05-05T09:29:28Z</time>
      </trkpt>
      <trkpt lat="49.50998" lon="5.842">
        <ele>410.58</ele>
        <time>2018-05-05T09:29:29Z</time>
      </trkpt>
      <trkpt lat="49.5101" lon="5.84184">
        <ele>407.39</ele>
        <time>2018-05-05T09:30:59Z</time>
      </trkpt>
      <trkpt lat="49.51014" lon="5.84169">
        <ele>407.08</ele>
        <time>2018-05-05T09:31:04Z</time>
      </trkpt>
      <trkpt lat="49.51015" lon="5.84164">
        <ele>406.81</ele>
        <time>2018-05-05T09:31:05Z</time>
      </trkpt>
      <trkpt lat="49.5102" lon="5.84142">
        <ele>406.01</ele>
        <time>2018-05-05T09:31:11Z</time>
      </trkpt>
      <trkpt lat="49.5102" lon="5.84139">
        <ele>405.86</ele>
        <time>2018-05-05T09:31:12Z</time>
      </trkpt>
      <trkpt lat="49.51021" lon="5.84136">
        <ele>405.73</ele>
        <time>2018-05-05T09:31:13Z</time>
      </trkpt>
      <trkpt lat="49.51021" lon="5.84132">
        <ele>405.54</ele>
        <time>2018-05-05T09:31:14Z</time>
      </trkpt>
      <trkpt lat="49.51027" lon="5.84113">
        <ele>404.41</ele>
        <time>2018-05-05T09:31:19Z</time>
      </trkpt>
      <trkpt lat="49.51033" lon="5.84077">
        <ele>404.34</ele>
        <time>2018-05-05T09:31:26Z</time>
      </trkpt>
      <trkpt lat="49.5104" lon="5.84032">
        <ele>403.6</ele>
        <time>2018-05-05T09:31:33Z</time>
      </trkpt>
      <trkpt lat="49.51042" lon="5.83988">
        <ele>402.98</ele>
        <time>2018-05-05T09:31:40Z</time>
      </trkpt>
      <trkpt lat="49.51048" lon="5.83945">
        <ele>400.81</ele>
        <time>2018-05-05T09:31:47Z</time>
      </trkpt>
      <trkpt lat="49.5105" lon="5.83937">
        <ele>400.33</ele>
        <time>2018-05-05T09:31:48Z</time>
      </trkpt>
      <trkpt lat="49.51057" lon="5.83903">
        <ele>397.39</ele>
        <time>2018-05-05T09:31:53Z</time>
      </trkpt>
      <trkpt lat="49.51059" lon="5.83895">
        <ele>396.68</ele>
        <time>2018-05-05T09:31:54Z</time>
      </trkpt>
      <trkpt lat="49.51061" lon="5.83887">
        <ele>395.81</ele>
        <time>2018-05-05T09:31:55Z</time>
      </trkpt>
      <trkpt lat="49.51063" lon="5.8388">
        <ele>395.14</ele>
        <time>2018-05-05T09:31:56Z</time>
      </trkpt>
      <trkpt lat="49.51065" lon="5.83873">
        <ele>394.54</ele>
        <time>2018-05-05T09:31:57Z</time>
      </trkpt>
      <trkpt lat="49.51066" lon="5.83862">
        <ele>393.96</ele>
        <time>2018-05-05T09:31:58Z</time>
      </trkpt>
      <trkpt lat="49.5107" lon="5.83842">
        <ele>393.08</ele>
        <time>2018-05-05T09:32:00Z</time>
      </trkpt>
      <trkpt lat="49.51072" lon="5.83835">
        <ele>392.54</ele>
        <time>2018-05-05T09:32:01Z</time>
      </trkpt>
      <trkpt lat="49.51074" lon="5.83826">
        <ele>392.01</ele>
        <time>2018-05-05T09:32:02Z</time>
      </trkpt>
      <trkpt lat="49.51076" lon="5.8382">
        <ele>391.32</ele>
        <time>2018-05-05T09:32:03Z</time>
      </trkpt>
      <trkpt lat="49.51079" lon="5.83814">
        <ele>390.48</ele>
        <time>2018-05-05T09:32:04Z</time>
      </trkpt>
      <trkpt lat="49.51081" lon="5.83806">
        <ele>389.7</ele>
        <time>2018-05-05T09:32:05Z</time>
      </trkpt>
      <trkpt lat="49.51083" lon="5.83795">
        <ele>388.72</ele>
        <time>2018-05-05T09:32:06Z</time>
      </trkpt>
      <trkpt lat="49.51085" lon="5.83786">
        <ele>388.21</ele>
        <time>2018-05-05T09:32:07Z</time>
      </trkpt>
      <trkpt lat="49.51086" lon="5.83776">
        <ele>387.72</ele>
        <time>2018-05-05T09:32:08Z</time>
      </trkpt>
      <trkpt lat="49.51087" lon="5.83768">
        <ele>386.84</ele>
        <time>2018-05-05T09:32:09Z</time>
      </trkpt>
      <trkpt lat="49.51088" lon="5.83759">
        <ele>386.55</ele>
        <time>2018-05-05T09:32:10Z</time>
      </trkpt>
      <trkpt lat="49.51096" lon="5.83718">
        <ele>384.66</ele>
        <time>2018-05-05T09:32:14Z</time>
      </trkpt>
      <trkpt lat="49.51105" lon="5.83676">
        <ele>382.23</ele>
        <time>2018-05-05T09:32:18Z</time>
      </trkpt>
      <trkpt lat="49.51107" lon="5.83668">
        <ele>381.54</ele>
        <time>2018-05-05T09:32:19Z</time>
      </trkpt>
      <trkpt lat="49.5111" lon="5.8366">
        <ele>380.8</ele>
        <time>2018-05-05T09:32:20Z</time>
      </trkpt>
      <trkpt lat="49.51113" lon="5.83651">
        <ele>379.91</ele>
        <time>2018-05-05T09:32:21Z</time>
      </trkpt>
      <trkpt lat="49.51116" lon="5.83642">
        <ele>379.1</ele>
        <time>2018-05-05T09:32:22Z</time>
      </trkpt>
      <trkpt lat="49.51127" lon="5.83585">
        <ele>376.11</ele>
        <time>2018-05-05T09:32:28Z</time>
      </trkpt>
      <trkpt lat="49.51144" lon="5.83526">
        <ele>373.43</ele>
        <time>2018-05-05T09:32:32Z</time>
      </trkpt>
      <trkpt lat="49.51168" lon="5.83451">
        <ele>367.97</ele>
        <time>2018-05-05T09:32:39Z</time>
      </trkpt>
      <trkpt lat="49.51176" lon="5.83425">
        <ele>365.94</ele>
        <time>2018-05-05T09:32:42Z</time>
      </trkpt>
      <trkpt lat="49.51178" lon="5.83419">
        <ele>365.38</ele>
        <time>2018-05-05T09:32:43Z</time>
      </trkpt>
      <trkpt lat="49.51179" lon="5.83412">
        <ele>364.89</ele>
        <time>2018-05-05T09:32:44Z</time>
      </trkpt>
      <trkpt lat="49.51181" lon="5.83405">
        <ele>364.6</ele>
        <time>2018-05-05T09:32:45Z</time>
      </trkpt>
      <trkpt lat="49.51182" lon="5.83398">
        <ele>364.3</ele>
        <time>2018-05-05T09:32:46Z</time>
      </trkpt>
      <trkpt lat="49.51183" lon="5.83391">
        <ele>364.05</ele>
        <time>2018-05-05T09:32:47Z</time>
      </trkpt>
      <trkpt lat="49.51184" lon="5.8338">
        <ele>363.98</ele>
        <time>2018-05-05T09:32:48Z</time>
      </trkpt>
      <trkpt lat="49.51185" lon="5.83369">
        <ele>363.43</ele>
        <time>2018-05-05T09:32:49Z</time>
      </trkpt>
      <trkpt lat="49.51188" lon="5.83359">
        <ele>362.52</ele>
        <time>2018-05-05T09:32:50Z</time>
      </trkpt>
      <trkpt lat="49.51203" lon="5.83309">
        <ele>359.17</ele>
        <time>2018-05-05T09:32:55Z</time>
      </trkpt>
      <trkpt lat="49.51221" lon="5.83259">
        <ele>356.46</ele>
        <time>2018-05-05T09:33:00Z</time>
      </trkpt>
      <trkpt lat="49.51227" lon="5.83247">
        <ele>355.27</ele>
        <time>2018-05-05T09:33:02Z</time>
      </trkpt>
      <trkpt lat="49.51231" lon="5.83242">
        <ele>354.66</ele>
        <time>2018-05-05T09:33:03Z</time>
      </trkpt>
      <trkpt lat="49.51236" lon="5.83238">
        <ele>353.91</ele>
        <time>2018-05-05T09:33:04Z</time>
      </trkpt>
      <trkpt lat="49.5124" lon="5.83231">
        <ele>353.02</ele>
        <time>2018-05-05T09:33:05Z</time>
      </trkpt>
      <trkpt lat="49.51245" lon="5.83225">
        <ele>352.3</ele>
        <time>2018-05-05T09:33:06Z</time>
      </trkpt>
      <trkpt lat="49.51263" lon="5.83194">
        <ele>349.11</ele>
        <time>2018-05-05T09:33:11Z</time>
      </trkpt>
      <trkpt lat="49.51285" lon="5.83146">
        <ele>345.47</ele>
        <time>2018-05-05T09:33:17Z</time>
      </trkpt>
      <trkpt lat="49.513" lon="5.8311">
        <ele>342.21</ele>
        <time>2018-05-05T09:33:23Z</time>
      </trkpt>
      <trkpt lat="49.51299" lon="5.83105">
        <ele>343.24</ele>
        <time>2018-05-05T09:33:26Z</time>
      </trkpt>
      <trkpt lat="49.51299" lon="5.83099">
        <ele>345.44</ele>
        <time>2018-05-05T09:33:31Z</time>
      </trkpt>
      <trkpt lat="49.5129" lon="5.83112">
        <ele>352.27</ele>
        <time>2018-05-05T09:34:01Z</time>
      </trkpt>
      <trkpt lat="49.51289" lon="5.83115">
        <ele>352.39</ele>
        <time>2018-05-05T09:34:02Z</time>
      </trkpt>
      <trkpt lat="49.51282" lon="5.83138">
        <ele>354.47</ele>
        <time>2018-05-05T09:34:12Z</time>
      </trkpt>
      <trkpt lat="49.51279" lon="5.83154">
        <ele>354.71</ele>
        <time>2018-05-05T09:34:20Z</time>
      </trkpt>
      <trkpt lat="49.51265" lon="5.83177">
        <ele>353.56</ele>
        <time>2018-05-05T09:34:31Z</time>
      </trkpt>
      <trkpt lat="49.51253" lon="5.83196">
        <ele>351.37</ele>
        <time>2018-05-05T09:34:42Z</time>
      </trkpt>
      <trkpt lat="49.51245" lon="5.83206">
        <ele>351.39</ele>
        <time>2018-05-05T09:34:49Z</time>
      </trkpt>
      <trkpt lat="49.51237" lon="5.83212">
        <ele>351.75</ele>
        <time>2018-05-05T09:34:55Z</time>
      </trkpt>
      <trkpt lat="49.51234" lon="5.83219">
        <ele>351.7</ele>
        <time>2018-05-05T09:34:59Z</time>
      </trkpt>
      <trkpt lat="49.51224" lon="5.83238">
        <ele>350.12</ele>
        <time>2018-05-05T09:35:09Z</time>
      </trkpt>
      <trkpt lat="49.51217" lon="5.83249">
        <ele>351.37</ele>
        <time>2018-05-05T09:35:18Z</time>
      </trkpt>
      <trkpt lat="49.51203" lon="5.83273">
        <ele>354.08</ele>
        <time>2018-05-05T09:35:34Z</time>
      </trkpt>
      <trkpt lat="49.51201" lon="5.83275">
        <ele>354.15</ele>
        <time>2018-05-05T09:35:35Z</time>
      </trkpt>
      <trkpt lat="49.51194" lon="5.83285">
        <ele>355.85</ele>
        <time>2018-05-05T09:35:50Z</time>
      </trkpt>
      <trkpt lat="49.51193" lon="5.83309">
        <ele>352.33</ele>
        <time>2018-05-05T09:36:01Z</time>
      </trkpt>
      <trkpt lat="49.51189" lon="5.83325">
        <ele>350.87</ele>
        <time>2018-05-05T09:36:08Z</time>
      </trkpt>
      <trkpt lat="49.51187" lon="5.83333">
        <ele>350.33</ele>
        <time>2018-05-05T09:36:12Z</time>
      </trkpt>
      <trkpt lat="49.51183" lon="5.83337">
        <ele>350.26</ele>
        <time>2018-05-05T09:36:15Z</time>
      </trkpt>
      <trkpt lat="49.51178" lon="5.83344">
        <ele>350.61</ele>
        <time>2018-05-05T09:36:19Z</time>
      </trkpt>
      <trkpt lat="49.51181" lon="5.83356">
        <ele>350.21</ele>
        <time>2018-05-05T09:36:24Z</time>
      </trkpt>
      <trkpt lat="49.51191" lon="5.83366">
        <ele>349.5</ele>
        <time>2018-05-05T09:36:31Z</time>
      </trkpt>
      <trkpt lat="49.51197" lon="5.83357">
        <ele>349.85</ele>
        <time>2018-05-05T09:36:40Z</time>
      </trkpt>
      <trkpt lat="49.51201" lon="5.83348">
        <ele>350.08</ele>
        <time>2018-05-05T09:36:45Z</time>
      </trkpt>
      <trkpt lat="49.51204" lon="5.83341">
        <ele>349.99</ele>
        <time>2018-05-05T09:36:48Z</time>
      </trkpt>
      <trkpt lat="49.51209" lon="5.83332">
        <ele>349.73</ele>
        <time>2018-05-05T09:36:54Z</time>
      </trkpt>
      <trkpt lat="49.51212" lon="5.83327">
        <ele>349.64</ele>
        <time>2018-05-05T09:36:57Z</time>
      </trkpt>
      <trkpt lat="49.51222" lon="5.83313">
        <ele>351.9</ele>
        <time>2018-05-05T09:37:05Z</time>
      </trkpt>
      <trkpt lat="49.51226" lon="5.83303">
        <ele>353.95</ele>
        <time>2018-05-05T09:37:10Z</time>
      </trkpt>
      <trkpt lat="49.51237" lon="5.83293">
        <ele>355.88</ele>
        <time>2018-05-05T09:37:17Z</time>
      </trkpt>
      <trkpt lat="49.51247" lon="5.83283">
        <ele>360.34</ele>
        <time>2018-05-05T09:37:24Z</time>
      </trkpt>
      <trkpt lat="49.51251" lon="5.83279">
        <ele>361.53</ele>
        <time>2018-05-05T09:37:27Z</time>
      </trkpt>
      <trkpt lat="49.51262" lon="5.83272">
        <ele>366.53</ele>
        <time>2018-05-05T09:37:34Z</time>
      </trkpt>
      <trkpt lat="49.51274" lon="5.83273">
        <ele>370.02</ele>
        <time>2018-05-05T09:37:41Z</time>
      </trkpt>
      <trkpt lat="49.51278" lon="5.83277">
        <ele>370.81</ele>
        <time>2018-05-05T09:37:45Z</time>
      </trkpt>
      <trkpt lat="49.51292" lon="5.83285">
        <ele>372.77</ele>
        <time>2018-05-05T09:37:54Z</time>
      </trkpt>
      <trkpt lat="49.513" lon="5.83288">
        <ele>373.57</ele>
        <time>2018-05-05T09:37:58Z</time>
      </trkpt>
      <trkpt lat="49.51311" lon="5.83287">
        <ele>376.43</ele>
        <time>2018-05-05T09:38:05Z</time>
      </trkpt>
      <trkpt lat="49.51324" lon="5.83277">
        <ele>381.28</ele>
        <time>2018-05-05T09:38:13Z</time>
      </trkpt>
      <trkpt lat="49.51334" lon="5.83268">
        <ele>386.5</ele>
        <time>2018-05-05T09:38:21Z</time>
      </trkpt>
      <trkpt lat="49.51342" lon="5.83261">
        <ele>388.41</ele>
        <time>2018-05-05T09:38:26Z</time>
      </trkpt>
      <trkpt lat="49.51346" lon="5.83257">
        <ele>388.95</ele>
        <time>2018-05-05T09:38:29Z</time>
      </trkpt>
      <trkpt lat="49.51352" lon="5.83252">
        <ele>389.67</ele>
        <time>2018-05-05T09:38:33Z</time>
      </trkpt>
      <trkpt lat="49.5136" lon="5.83256">
        <ele>391.17</ele>
        <time>2018-05-05T09:38:40Z</time>
      </trkpt>
      <trkpt lat="49.5136" lon="5.8326">
        <ele>391.55</ele>
        <time>2018-05-05T09:38:42Z</time>
      </trkpt>
      <trkpt lat="49.51359" lon="5.83265">
        <ele>391.72</ele>
        <time>2018-05-05T09:38:44Z</time>
      </trkpt>
      <trkpt lat="49.51357" lon="5.83275">
        <ele>393.13</ele>
        <time>2018-05-05T09:38:48Z</time>
      </trkpt>
      <trkpt lat="49.51355" lon="5.83294">
        <ele>394.26</ele>
        <time>2018-05-05T09:38:54Z</time>
      </trkpt>
      <trkpt lat="49.51353" lon="5.83301">
        <ele>394.62</ele>
        <time>2018-05-05T09:38:57Z</time>
      </trkpt>
      <trkpt lat="49.51347" lon="5.83323">
        <ele>395.36</ele>
        <time>2018-05-05T09:39:03Z</time>
      </trkpt>
      <trkpt lat="49.5134" lon="5.83339">
        <ele>396.47</ele>
        <time>2018-05-05T09:39:08Z</time>
      </trkpt>
      <trkpt lat="49.51332" lon="5.83365">
        <ele>398.12</ele>
        <time>2018-05-05T09:39:15Z</time>
      </trkpt>
      <trkpt lat="49.51332" lon="5.83387">
        <ele>399.5</ele>
        <time>2018-05-05T09:39:21Z</time>
      </trkpt>
      <trkpt lat="49.5134" lon="5.83403">
        <ele>399.78</ele>
        <time>2018-05-05T09:39:28Z</time>
      </trkpt>
      <trkpt lat="49.51352" lon="5.83412">
        <ele>401.22</ele>
        <time>2018-05-05T09:39:37Z</time>
      </trkpt>
      <trkpt lat="49.51367" lon="5.83417">
        <ele>403.12</ele>
        <time>2018-05-05T09:39:45Z</time>
      </trkpt>
      <trkpt lat="49.51369" lon="5.83418">
        <ele>402.92</ele>
        <time>2018-05-05T09:39:47Z</time>
      </trkpt>
      <trkpt lat="49.51394" lon="5.83431">
        <ele>404.2</ele>
        <time>2018-05-05T09:40:00Z</time>
      </trkpt>
      <trkpt lat="49.51401" lon="5.83436">
        <ele>405.9</ele>
        <time>2018-05-05T09:40:07Z</time>
      </trkpt>
      <trkpt lat="49.51413" lon="5.83446">
        <ele>405.88</ele>
        <time>2018-05-05T09:40:15Z</time>
      </trkpt>
      <trkpt lat="49.51423" lon="5.83455">
        <ele>406.27</ele>
        <time>2018-05-05T09:40:23Z</time>
      </trkpt>
      <trkpt lat="49.51425" lon="5.83459">
        <ele>406.45</ele>
        <time>2018-05-05T09:40:26Z</time>
      </trkpt>
      <trkpt lat="49.51438" lon="5.83469">
        <ele>406</ele>
        <time>2018-05-05T09:40:35Z</time>
      </trkpt>
      <trkpt lat="49.51448" lon="5.83472">
        <ele>405.33</ele>
        <time>2018-05-05T09:40:43Z</time>
      </trkpt>
      <trkpt lat="49.51462" lon="5.83479">
        <ele>403.84</ele>
        <time>2018-05-05T09:40:51Z</time>
      </trkpt>
      <trkpt lat="49.51464" lon="5.83481">
        <ele>403.02</ele>
        <time>2018-05-05T09:40:57Z</time>
      </trkpt>
      <trkpt lat="49.5152" lon="5.83533">
        <ele>407.88</ele>
        <time>2018-05-05T09:42:06Z</time>
      </trkpt>
      <trkpt lat="49.51527" lon="5.8354">
        <ele>407.96</ele>
        <time>2018-05-05T09:42:11Z</time>
      </trkpt>
      <trkpt lat="49.51529" lon="5.83542">
        <ele>408.07</ele>
        <time>2018-05-05T09:42:12Z</time>
      </trkpt>
      <trkpt lat="49.51539" lon="5.83535">
        <ele>409.71</ele>
        <time>2018-05-05T09:42:21Z</time>
      </trkpt>
      <trkpt lat="49.5155" lon="5.83519">
        <ele>411.59</ele>
        <time>2018-05-05T09:42:28Z</time>
      </trkpt>
      <trkpt lat="49.51551" lon="5.83516">
        <ele>411.73</ele>
        <time>2018-05-05T09:42:29Z</time>
      </trkpt>
      <trkpt lat="49.51561" lon="5.83495">
        <ele>413.06</ele>
        <time>2018-05-05T09:42:36Z</time>
      </trkpt>
      <trkpt lat="49.51567" lon="5.8348">
        <ele>414.15</ele>
        <time>2018-05-05T09:42:41Z</time>
      </trkpt>
      <trkpt lat="49.51574" lon="5.83462">
        <ele>414.01</ele>
        <time>2018-05-05T09:42:45Z</time>
      </trkpt>
      <trkpt lat="49.51587" lon="5.83433">
        <ele>414.83</ele>
        <time>2018-05-05T09:42:54Z</time>
      </trkpt>
      <trkpt lat="49.51593" lon="5.83419">
        <ele>416.38</ele>
        <time>2018-05-05T09:42:59Z</time>
      </trkpt>
      <trkpt lat="49.51605" lon="5.83395">
        <ele>417.39</ele>
        <time>2018-05-05T09:43:07Z</time>
      </trkpt>
      <trkpt lat="49.51614" lon="5.83371">
        <ele>417.11</ele>
        <time>2018-05-05T09:43:13Z</time>
      </trkpt>
      <trkpt lat="49.51629" lon="5.83335">
        <ele>415.73</ele>
        <time>2018-05-05T09:43:19Z</time>
      </trkpt>
      <trkpt lat="49.51642" lon="5.8331">
        <ele>415.68</ele>
        <time>2018-05-05T09:43:25Z</time>
      </trkpt>
      <trkpt lat="49.51655" lon="5.83285">
        <ele>414.14</ele>
        <time>2018-05-05T09:43:31Z</time>
      </trkpt>
      <trkpt lat="49.51666" lon="5.83261">
        <ele>412.34</ele>
        <time>2018-05-05T09:43:37Z</time>
      </trkpt>
      <trkpt lat="49.51675" lon="5.83241">
        <ele>411.03</ele>
        <time>2018-05-05T09:43:42Z</time>
      </trkpt>
      <trkpt lat="49.51687" lon="5.8321">
        <ele>408.37</ele>
        <time>2018-05-05T09:43:48Z</time>
      </trkpt>
      <trkpt lat="49.51699" lon="5.83185">
        <ele>406.31</ele>
        <time>2018-05-05T09:43:54Z</time>
      </trkpt>
      <trkpt lat="49.51713" lon="5.83157">
        <ele>403.84</ele>
        <time>2018-05-05T09:44:00Z</time>
      </trkpt>
      <trkpt lat="49.51721" lon="5.83139">
        <ele>402.21</ele>
        <time>2018-05-05T09:44:03Z</time>
      </trkpt>
      <trkpt lat="49.5174" lon="5.83099">
        <ele>399.41</ele>
        <time>2018-05-05T09:44:09Z</time>
      </trkpt>
      <trkpt lat="49.51756" lon="5.83064">
        <ele>395.92</ele>
        <time>2018-05-05T09:44:16Z</time>
      </trkpt>
      <trkpt lat="49.51771" lon="5.83032">
        <ele>391.93</ele>
        <time>2018-05-05T09:44:23Z</time>
      </trkpt>
      <trkpt lat="49.51782" lon="5.83008">
        <ele>389.16</ele>
        <time>2018-05-05T09:44:28Z</time>
      </trkpt>
      <trkpt lat="49.51801" lon="5.82971">
        <ele>385.97</ele>
        <time>2018-05-05T09:44:35Z</time>
      </trkpt>
      <trkpt lat="49.51815" lon="5.8294">
        <ele>383.49</ele>
        <time>2018-05-05T09:44:41Z</time>
      </trkpt>
      <trkpt lat="49.51818" lon="5.82935">
        <ele>383.24</ele>
        <time>2018-05-05T09:44:42Z</time>
      </trkpt>
      <trkpt lat="49.51825" lon="5.82917">
        <ele>382.41</ele>
        <time>2018-05-05T09:44:45Z</time>
      </trkpt>
      <trkpt lat="49.51838" lon="5.82888">
        <ele>381.88</ele>
        <time>2018-05-05T09:44:50Z</time>
      </trkpt>
      <trkpt lat="49.51851" lon="5.82856">
        <ele>382.44</ele>
        <time>2018-05-05T09:44:56Z</time>
      </trkpt>
      <trkpt lat="49.51863" lon="5.8283">
        <ele>382.57</ele>
        <time>2018-05-05T09:45:01Z</time>
      </trkpt>
      <trkpt lat="49.51879" lon="5.82795">
        <ele>382.04</ele>
        <time>2018-05-05T09:45:08Z</time>
      </trkpt>
      <trkpt lat="49.51887" lon="5.82775">
        <ele>382.65</ele>
        <time>2018-05-05T09:45:13Z</time>
      </trkpt>
      <trkpt lat="49.51897" lon="5.82758">
        <ele>385.51</ele>
        <time>2018-05-05T09:45:19Z</time>
      </trkpt>
      <trkpt lat="49.51903" lon="5.82759">
        <ele>387.13</ele>
        <time>2018-05-05T09:45:25Z</time>
      </trkpt>
      <trkpt lat="49.51908" lon="5.82756">
        <ele>386.72</ele>
        <time>2018-05-05T09:45:35Z</time>
      </trkpt>
      <trkpt lat="49.51909" lon="5.82763">
        <ele>389.97</ele>
        <time>2018-05-05T09:46:05Z</time>
      </trkpt>
      <trkpt lat="49.51911" lon="5.82773">
        <ele>390.3</ele>
        <time>2018-05-05T09:46:09Z</time>
      </trkpt>
      <trkpt lat="49.5191" lon="5.82785">
        <ele>389.97</ele>
        <time>2018-05-05T09:46:14Z</time>
      </trkpt>
      <trkpt lat="49.51905" lon="5.82805">
        <ele>388.6</ele>
        <time>2018-05-05T09:46:22Z</time>
      </trkpt>
      <trkpt lat="49.51898" lon="5.82823">
        <ele>387.43</ele>
        <time>2018-05-05T09:46:28Z</time>
      </trkpt>
      <trkpt lat="49.51894" lon="5.82833">
        <ele>387.69</ele>
        <time>2018-05-05T09:46:33Z</time>
      </trkpt>
      <trkpt lat="49.51894" lon="5.82833">
        <ele>388.51</ele>
        <time>2018-05-05T09:46:36Z</time>
      </trkpt>
      <trkpt lat="49.51891" lon="5.82842">
        <ele>388.58</ele>
        <time>2018-05-05T09:46:44Z</time>
      </trkpt>
      <trkpt lat="49.51884" lon="5.82863">
        <ele>387.58</ele>
        <time>2018-05-05T09:46:52Z</time>
      </trkpt>
      <trkpt lat="49.51875" lon="5.82889">
        <ele>385.46</ele>
        <time>2018-05-05T09:47:01Z</time>
      </trkpt>
      <trkpt lat="49.51866" lon="5.82914">
        <ele>382.6</ele>
        <time>2018-05-05T09:47:09Z</time>
      </trkpt>
      <trkpt lat="49.51863" lon="5.8294">
        <ele>381.49</ele>
        <time>2018-05-05T09:47:16Z</time>
      </trkpt>
      <trkpt lat="49.51862" lon="5.82943">
        <ele>381.53</ele>
        <time>2018-05-05T09:47:17Z</time>
      </trkpt>
      <trkpt lat="49.51857" lon="5.82959">
        <ele>381.36</ele>
        <time>2018-05-05T09:47:23Z</time>
      </trkpt>
      <trkpt lat="49.51851" lon="5.82975">
        <ele>380.63</ele>
        <time>2018-05-05T09:47:30Z</time>
      </trkpt>
      <trkpt lat="49.51846" lon="5.82989">
        <ele>380.81</ele>
        <time>2018-05-05T09:47:36Z</time>
      </trkpt>
      <trkpt lat="49.51839" lon="5.83003">
        <ele>380.69</ele>
        <time>2018-05-05T09:47:43Z</time>
      </trkpt>
      <trkpt lat="49.51834" lon="5.83016">
        <ele>379.74</ele>
        <time>2018-05-05T09:47:48Z</time>
      </trkpt>
      <trkpt lat="49.51831" lon="5.83027">
        <ele>379.06</ele>
        <time>2018-05-05T09:47:52Z</time>
      </trkpt>
      <trkpt lat="49.51828" lon="5.83037">
        <ele>379.26</ele>
        <time>2018-05-05T09:47:56Z</time>
      </trkpt>
      <trkpt lat="49.51821" lon="5.83054">
        <ele>379.18</ele>
        <time>2018-05-05T09:48:02Z</time>
      </trkpt>
      <trkpt lat="49.51813" lon="5.83074">
        <ele>379.05</ele>
        <time>2018-05-05T09:48:09Z</time>
      </trkpt>
      <trkpt lat="49.51812" lon="5.83076">
        <ele>378.69</ele>
        <time>2018-05-05T09:48:10Z</time>
      </trkpt>
      <trkpt lat="49.51801" lon="5.83103">
        <ele>378.07</ele>
        <time>2018-05-05T09:48:20Z</time>
      </trkpt>
      <trkpt lat="49.51794" lon="5.8312">
        <ele>378.9</ele>
        <time>2018-05-05T09:48:27Z</time>
      </trkpt>
      <trkpt lat="49.51794" lon="5.83123">
        <ele>379.22</ele>
        <time>2018-05-05T09:48:28Z</time>
      </trkpt>
      <trkpt lat="49.51786" lon="5.83149">
        <ele>379.48</ele>
        <time>2018-05-05T09:48:38Z</time>
      </trkpt>
      <trkpt lat="49.51778" lon="5.83176">
        <ele>379.06</ele>
        <time>2018-05-05T09:48:45Z</time>
      </trkpt>
      <trkpt lat="49.51768" lon="5.83211">
        <ele>379.48</ele>
        <time>2018-05-05T09:48:52Z</time>
      </trkpt>
      <trkpt lat="49.51764" lon="5.83222">
        <ele>379.19</ele>
        <time>2018-05-05T09:48:54Z</time>
      </trkpt>
      <trkpt lat="49.51755" lon="5.83249">
        <ele>377.89</ele>
        <time>2018-05-05T09:49:00Z</time>
      </trkpt>
      <trkpt lat="49.51747" lon="5.83271">
        <ele>377.24</ele>
        <time>2018-05-05T09:49:07Z</time>
      </trkpt>
      <trkpt lat="49.51738" lon="5.83296">
        <ele>377.83</ele>
        <time>2018-05-05T09:49:14Z</time>
      </trkpt>
      <trkpt lat="49.51738" lon="5.833">
        <ele>377.41</ele>
        <time>2018-05-05T09:49:15Z</time>
      </trkpt>
      <trkpt lat="49.51733" lon="5.83314">
        <ele>377.4</ele>
        <time>2018-05-05T09:49:19Z</time>
      </trkpt>
      <trkpt lat="49.51725" lon="5.83342">
        <ele>376.94</ele>
        <time>2018-05-05T09:49:27Z</time>
      </trkpt>
      <trkpt lat="49.51717" lon="5.83364">
        <ele>376.58</ele>
        <time>2018-05-05T09:49:34Z</time>
      </trkpt>
      <trkpt lat="49.5171" lon="5.83386">
        <ele>374.41</ele>
        <time>2018-05-05T09:49:41Z</time>
      </trkpt>
      <trkpt lat="49.51698" lon="5.83417">
        <ele>374.66</ele>
        <time>2018-05-05T09:49:50Z</time>
      </trkpt>
      <trkpt lat="49.51689" lon="5.83442">
        <ele>374.42</ele>
        <time>2018-05-05T09:49:57Z</time>
      </trkpt>
      <trkpt lat="49.51686" lon="5.83452">
        <ele>374.36</ele>
        <time>2018-05-05T09:50:01Z</time>
      </trkpt>
      <trkpt lat="49.51683" lon="5.8347">
        <ele>373.87</ele>
        <time>2018-05-05T09:50:07Z</time>
      </trkpt>
      <trkpt lat="49.5168" lon="5.83482">
        <ele>372.79</ele>
        <time>2018-05-05T09:50:12Z</time>
      </trkpt>
      <trkpt lat="49.51674" lon="5.83499">
        <ele>371.94</ele>
        <time>2018-05-05T09:50:18Z</time>
      </trkpt>
      <trkpt lat="49.51666" lon="5.83519">
        <ele>371.63</ele>
        <time>2018-05-05T09:50:26Z</time>
      </trkpt>
      <trkpt lat="49.51657" lon="5.8354">
        <ele>371.61</ele>
        <time>2018-05-05T09:50:33Z</time>
      </trkpt>
      <trkpt lat="49.51652" lon="5.83553">
        <ele>370.4</ele>
        <time>2018-05-05T09:50:38Z</time>
      </trkpt>
      <trkpt lat="49.51645" lon="5.83571">
        <ele>369.57</ele>
        <time>2018-05-05T09:50:45Z</time>
      </trkpt>
      <trkpt lat="49.51644" lon="5.83576">
        <ele>369.84</ele>
        <time>2018-05-05T09:50:46Z</time>
      </trkpt>
      <trkpt lat="49.51637" lon="5.83597">
        <ele>369.23</ele>
        <time>2018-05-05T09:50:54Z</time>
      </trkpt>
      <trkpt lat="49.51632" lon="5.83618">
        <ele>367.59</ele>
        <time>2018-05-05T09:51:01Z</time>
      </trkpt>
      <trkpt lat="49.51621" lon="5.83645">
        <ele>370.02</ele>
        <time>2018-05-05T09:51:07Z</time>
      </trkpt>
      <trkpt lat="49.5161" lon="5.83666">
        <ele>371.72</ele>
        <time>2018-05-05T09:51:12Z</time>
      </trkpt>
      <trkpt lat="49.51597" lon="5.83671">
        <ele>371.27</ele>
        <time>2018-05-05T09:51:19Z</time>
      </trkpt>
      <trkpt lat="49.51582" lon="5.83672">
        <ele>369.25</ele>
        <time>2018-05-05T09:51:27Z</time>
      </trkpt>
      <trkpt lat="49.51568" lon="5.83673">
        <ele>367.04</ele>
        <time>2018-05-05T09:51:33Z</time>
      </trkpt>
      <trkpt lat="49.51553" lon="5.83671">
        <ele>364.64</ele>
        <time>2018-05-05T09:51:40Z</time>
      </trkpt>
      <trkpt lat="49.51538" lon="5.83668">
        <ele>361.92</ele>
        <time>2018-05-05T09:51:47Z</time>
      </trkpt>
      <trkpt lat="49.51524" lon="5.83668">
        <ele>360.2</ele>
        <time>2018-05-05T09:51:53Z</time>
      </trkpt>
      <trkpt lat="49.51503" lon="5.83682">
        <ele>357.71</ele>
        <time>2018-05-05T09:52:00Z</time>
      </trkpt>
      <trkpt lat="49.51493" lon="5.83692">
        <ele>355.26</ele>
        <time>2018-05-05T09:52:06Z</time>
      </trkpt>
      <trkpt lat="49.5148" lon="5.83702">
        <ele>353.24</ele>
        <time>2018-05-05T09:52:14Z</time>
      </trkpt>
      <trkpt lat="49.51476" lon="5.83705">
        <ele>352.96</ele>
        <time>2018-05-05T09:52:16Z</time>
      </trkpt>
      <trkpt lat="49.51465" lon="5.83714">
        <ele>352.9</ele>
        <time>2018-05-05T09:52:23Z</time>
      </trkpt>
      <trkpt lat="49.51456" lon="5.83742">
        <ele>365.38</ele>
        <time>2018-05-05T09:53:45Z</time>
      </trkpt>
      <trkpt lat="49.51455" lon="5.83744">
        <ele>365.66</ele>
        <time>2018-05-05T09:53:46Z</time>
      </trkpt>
      <trkpt lat="49.51448" lon="5.83763">
        <ele>368.69</ele>
        <time>2018-05-05T09:53:54Z</time>
      </trkpt>
      <trkpt lat="49.51439" lon="5.83778">
        <ele>371.63</ele>
        <time>2018-05-05T09:54:00Z</time>
      </trkpt>
      <trkpt lat="49.51427" lon="5.83804">
        <ele>376.78</ele>
        <time>2018-05-05T09:54:07Z</time>
      </trkpt>
      <trkpt lat="49.51417" lon="5.83827">
        <ele>381.27</ele>
        <time>2018-05-05T09:54:13Z</time>
      </trkpt>
      <trkpt lat="49.51405" lon="5.8385">
        <ele>384.99</ele>
        <time>2018-05-05T09:54:18Z</time>
      </trkpt>
      <trkpt lat="49.51394" lon="5.83872">
        <ele>388.44</ele>
        <time>2018-05-05T09:54:23Z</time>
      </trkpt>
      <trkpt lat="49.51379" lon="5.83899">
        <ele>393.96</ele>
        <time>2018-05-05T09:54:30Z</time>
      </trkpt>
      <trkpt lat="49.51368" lon="5.83926">
        <ele>398.29</ele>
        <time>2018-05-05T09:54:36Z</time>
      </trkpt>
      <trkpt lat="49.51357" lon="5.83953">
        <ele>401.09</ele>
        <time>2018-05-05T09:54:42Z</time>
      </trkpt>
      <trkpt lat="49.51344" lon="5.83978">
        <ele>404.78</ele>
        <time>2018-05-05T09:54:49Z</time>
      </trkpt>
      <trkpt lat="49.51338" lon="5.83998">
        <ele>408.54</ele>
        <time>2018-05-05T09:54:55Z</time>
      </trkpt>
      <trkpt lat="49.51329" lon="5.8402">
        <ele>412.08</ele>
        <time>2018-05-05T09:55:01Z</time>
      </trkpt>
      <trkpt lat="49.51319" lon="5.84037">
        <ele>415.61</ele>
        <time>2018-05-05T09:55:08Z</time>
      </trkpt>
      <trkpt lat="49.5131" lon="5.84057">
        <ele>418.23</ele>
        <time>2018-05-05T09:55:14Z</time>
      </trkpt>
      <trkpt lat="49.51303" lon="5.84072">
        <ele>420.27</ele>
        <time>2018-05-05T09:55:20Z</time>
      </trkpt>
      <trkpt lat="49.51295" lon="5.84088">
        <ele>422.35</ele>
        <time>2018-05-05T09:55:25Z</time>
      </trkpt>
      <trkpt lat="49.51286" lon="5.84106">
        <ele>424.49</ele>
        <time>2018-05-05T09:55:31Z</time>
      </trkpt>
      <trkpt lat="49.51278" lon="5.84125">
        <ele>426.66</ele>
        <time>2018-05-05T09:55:36Z</time>
      </trkpt>
      <trkpt lat="49.51268" lon="5.84146">
        <ele>428.19</ele>
        <time>2018-05-05T09:55:41Z</time>
      </trkpt>
      <trkpt lat="49.5126" lon="5.84163">
        <ele>429.44</ele>
        <time>2018-05-05T09:55:45Z</time>
      </trkpt>
      <trkpt lat="49.51256" lon="5.84174">
        <ele>429.78</ele>
        <time>2018-05-05T09:55:47Z</time>
      </trkpt>
      <trkpt lat="49.51249" lon="5.84192">
        <ele>430.15</ele>
        <time>2018-05-05T09:55:50Z</time>
      </trkpt>
      <trkpt lat="49.51235" lon="5.84219">
        <ele>431.56</ele>
        <time>2018-05-05T09:55:57Z</time>
      </trkpt>
      <trkpt lat="49.51226" lon="5.84236">
        <ele>430.01</ele>
        <time>2018-05-05T09:56:04Z</time>
      </trkpt>
      <trkpt lat="49.51216" lon="5.84256">
        <ele>428.55</ele>
        <time>2018-05-05T09:56:11Z</time>
      </trkpt>
      <trkpt lat="49.51205" lon="5.84284">
        <ele>426.72</ele>
        <time>2018-05-05T09:56:18Z</time>
      </trkpt>
      <trkpt lat="49.51196" lon="5.84303">
        <ele>425.9</ele>
        <time>2018-05-05T09:56:23Z</time>
      </trkpt>
      <trkpt lat="49.51191" lon="5.84312">
        <ele>425.53</ele>
        <time>2018-05-05T09:56:26Z</time>
      </trkpt>
      <trkpt lat="49.51166" lon="5.84338">
        <ele>424.45</ele>
        <time>2018-05-05T09:56:33Z</time>
      </trkpt>
      <trkpt lat="49.51148" lon="5.84369">
        <ele>423.07</ele>
        <time>2018-05-05T09:56:40Z</time>
      </trkpt>
      <trkpt lat="49.51127" lon="5.84396">
        <ele>420.08</ele>
        <time>2018-05-05T09:56:48Z</time>
      </trkpt>
      <trkpt lat="49.51113" lon="5.8441">
        <ele>416.88</ele>
        <time>2018-05-05T09:56:54Z</time>
      </trkpt>
      <trkpt lat="49.511" lon="5.84429">
        <ele>412.57</ele>
        <time>2018-05-05T09:57:00Z</time>
      </trkpt>
      <trkpt lat="49.51074" lon="5.84464">
        <ele>407.27</ele>
        <time>2018-05-05T09:57:08Z</time>
      </trkpt>
      <trkpt lat="49.51058" lon="5.84485">
        <ele>404.46</ele>
        <time>2018-05-05T09:57:12Z</time>
      </trkpt>
      <trkpt lat="49.51053" lon="5.8449">
        <ele>403.64</ele>
        <time>2018-05-05T09:57:13Z</time>
      </trkpt>
      <trkpt lat="49.51049" lon="5.84496">
        <ele>403.47</ele>
        <time>2018-05-05T09:57:14Z</time>
      </trkpt>
      <trkpt lat="49.51044" lon="5.84502">
        <ele>402.88</ele>
        <time>2018-05-05T09:57:15Z</time>
      </trkpt>
      <trkpt lat="49.51039" lon="5.84508">
        <ele>402.25</ele>
        <time>2018-05-05T09:57:16Z</time>
      </trkpt>
      <trkpt lat="49.51034" lon="5.84513">
        <ele>401.42</ele>
        <time>2018-05-05T09:57:17Z</time>
      </trkpt>
      <trkpt lat="49.5102" lon="5.8453">
        <ele>399.56</ele>
        <time>2018-05-05T09:57:20Z</time>
      </trkpt>
      <trkpt lat="49.50998" lon="5.84556">
        <ele>396.05</ele>
        <time>2018-05-05T09:57:25Z</time>
      </trkpt>
      <trkpt lat="49.50994" lon="5.84561">
        <ele>395.26</ele>
        <time>2018-05-05T09:57:26Z</time>
      </trkpt>
      <trkpt lat="49.5097" lon="5.84591">
        <ele>391.47</ele>
        <time>2018-05-05T09:57:32Z</time>
      </trkpt>
      <trkpt lat="49.50964" lon="5.84598">
        <ele>391.24</ele>
        <time>2018-05-05T09:57:33Z</time>
      </trkpt>
      <trkpt lat="49.50933" lon="5.84634">
        <ele>387.8</ele>
        <time>2018-05-05T09:57:38Z</time>
      </trkpt>
      <trkpt lat="49.50926" lon="5.84639">
        <ele>387.23</ele>
        <time>2018-05-05T09:57:39Z</time>
      </trkpt>
      <trkpt lat="49.5092" lon="5.84642">
        <ele>386.71</ele>
        <time>2018-05-05T09:57:40Z</time>
      </trkpt>
      <trkpt lat="49.50914" lon="5.84645">
        <ele>386.26</ele>
        <time>2018-05-05T09:57:41Z</time>
      </trkpt>
      <trkpt lat="49.50908" lon="5.84646">
        <ele>385.77</ele>
        <time>2018-05-05T09:57:42Z</time>
      </trkpt>
      <trkpt lat="49.50903" lon="5.84647">
        <ele>386.65</ele>
        <time>2018-05-05T09:57:43Z</time>
      </trkpt>
      <trkpt lat="49.5087" lon="5.84645">
        <ele>386.3</ele>
        <time>2018-05-05T09:57:50Z</time>
      </trkpt>
      <trkpt lat="49.50853" lon="5.84638">
        <ele>385.22</ele>
        <time>2018-05-05T09:57:55Z</time>
      </trkpt>
      <trkpt lat="49.50835" lon="5.84626">
        <ele>384.09</ele>
        <time>2018-05-05T09:58:02Z</time>
      </trkpt>
      <trkpt lat="49.50831" lon="5.84628">
        <ele>386.14</ele>
        <time>2018-05-05T09:58:06Z</time>
      </trkpt>
      <trkpt lat="49.50839" lon="5.84641">
        <ele>393.53</ele>
        <time>2018-05-05T09:58:21Z</time>
      </trkpt>
      <trkpt lat="49.50855" lon="5.84648">
        <ele>393.54</ele>
        <time>2018-05-05T09:58:29Z</time>
      </trkpt>
      <trkpt lat="49.50872" lon="5.84653">
        <ele>392.64</ele>
        <time>2018-05-05T09:58:35Z</time>
      </trkpt>
      <trkpt lat="49.50898" lon="5.84655">
        <ele>393.02</ele>
        <time>2018-05-05T09:58:42Z</time>
      </trkpt>
      <trkpt lat="49.509" lon="5.84656">
        <ele>393.13</ele>
        <time>2018-05-05T09:58:43Z</time>
      </trkpt>
      <trkpt lat="49.50903" lon="5.84658">
        <ele>392.98</ele>
        <time>2018-05-05T09:58:44Z</time>
      </trkpt>
      <trkpt lat="49.50905" lon="5.8466">
        <ele>392.96</ele>
        <time>2018-05-05T09:58:45Z</time>
      </trkpt>
      <trkpt lat="49.50905" lon="5.84662">
        <ele>392.93</ele>
        <time>2018-05-05T09:58:46Z</time>
      </trkpt>
      <trkpt lat="49.50905" lon="5.84665">
        <ele>393.03</ele>
        <time>2018-05-05T09:58:47Z</time>
      </trkpt>
      <trkpt lat="49.50904" lon="5.84675">
        <ele>392.31</ele>
        <time>2018-05-05T09:58:50Z</time>
      </trkpt>
      <trkpt lat="49.50903" lon="5.84677">
        <ele>392.1</ele>
        <time>2018-05-05T09:58:51Z</time>
      </trkpt>
      <trkpt lat="49.50902" lon="5.8468">
        <ele>392.08</ele>
        <time>2018-05-05T09:58:52Z</time>
      </trkpt>
      <trkpt lat="49.50897" lon="5.84691">
        <ele>391.61</ele>
        <time>2018-05-05T09:58:55Z</time>
      </trkpt>
      <trkpt lat="49.50894" lon="5.84697">
        <ele>391.99</ele>
        <time>2018-05-05T09:58:59Z</time>
      </trkpt>
      <trkpt lat="49.50892" lon="5.84697">
        <ele>392.12</ele>
        <time>2018-05-05T09:59:00Z</time>
      </trkpt>
      <trkpt lat="49.50883" lon="5.84703">
        <ele>393.25</ele>
        <time>2018-05-05T09:59:06Z</time>
      </trkpt>
      <trkpt lat="49.50873" lon="5.84711">
        <ele>393.77</ele>
        <time>2018-05-05T09:59:13Z</time>
      </trkpt>
      <trkpt lat="49.50861" lon="5.84721">
        <ele>393.09</ele>
        <time>2018-05-05T09:59:19Z</time>
      </trkpt>
      <trkpt lat="49.50855" lon="5.84729">
        <ele>392.47</ele>
        <time>2018-05-05T09:59:22Z</time>
      </trkpt>
      <trkpt lat="49.50851" lon="5.84734">
        <ele>392.31</ele>
        <time>2018-05-05T09:59:23Z</time>
      </trkpt>
      <trkpt lat="49.50848" lon="5.84737">
        <ele>392.06</ele>
        <time>2018-05-05T09:59:24Z</time>
      </trkpt>
      <trkpt lat="49.50845" lon="5.8474">
        <ele>391.88</ele>
        <time>2018-05-05T09:59:25Z</time>
      </trkpt>
      <trkpt lat="49.50843" lon="5.84743">
        <ele>392.01</ele>
        <time>2018-05-05T09:59:26Z</time>
      </trkpt>
      <trkpt lat="49.50831" lon="5.84764">
        <ele>392.04</ele>
        <time>2018-05-05T09:59:33Z</time>
      </trkpt>
      <trkpt lat="49.50825" lon="5.84772">
        <ele>391.6</ele>
        <time>2018-05-05T09:59:36Z</time>
      </trkpt>
      <trkpt lat="49.50823" lon="5.84774">
        <ele>391.36</ele>
        <time>2018-05-05T09:59:37Z</time>
      </trkpt>
      <trkpt lat="49.50821" lon="5.84777">
        <ele>390.86</ele>
        <time>2018-05-05T09:59:38Z</time>
      </trkpt>
      <trkpt lat="49.50819" lon="5.84778">
        <ele>390.62</ele>
        <time>2018-05-05T09:59:39Z</time>
      </trkpt>
      <trkpt lat="49.50817" lon="5.84781">
        <ele>390.95</ele>
        <time>2018-05-05T09:59:40Z</time>
      </trkpt>
      <trkpt lat="49.50808" lon="5.8479">
        <ele>390.05</ele>
        <time>2018-05-05T09:59:45Z</time>
      </trkpt>
      <trkpt lat="49.50802" lon="5.84795">
        <ele>389.94</ele>
        <time>2018-05-05T09:59:49Z</time>
      </trkpt>
      <trkpt lat="49.50789" lon="5.84799">
        <ele>388.4</ele>
        <time>2018-05-05T09:59:55Z</time>
      </trkpt>
      <trkpt lat="49.50784" lon="5.84804">
        <ele>388.85</ele>
        <time>2018-05-05T09:59:57Z</time>
      </trkpt>
      <trkpt lat="49.50779" lon="5.84809">
        <ele>389.33</ele>
        <time>2018-05-05T10:00:00Z</time>
      </trkpt>
      <trkpt lat="49.50772" lon="5.84814">
        <ele>389.63</ele>
        <time>2018-05-05T10:00:03Z</time>
      </trkpt>
      <trkpt lat="49.50769" lon="5.84816">
        <ele>389.5</ele>
        <time>2018-05-05T10:00:04Z</time>
      </trkpt>
      <trkpt lat="49.50766" lon="5.84818">
        <ele>389.49</ele>
        <time>2018-05-05T10:00:05Z</time>
      </trkpt>
      <trkpt lat="49.50763" lon="5.8482">
        <ele>389.82</ele>
        <time>2018-05-05T10:00:06Z</time>
      </trkpt>
      <trkpt lat="49.50761" lon="5.84822">
        <ele>389.92</ele>
        <time>2018-05-05T10:00:07Z</time>
      </trkpt>
      <trkpt lat="49.50759" lon="5.84824">
        <ele>389.94</ele>
        <time>2018-05-05T10:00:08Z</time>
      </trkpt>
      <trkpt lat="49.50744" lon="5.84834">
        <ele>390.34</ele>
        <time>2018-05-05T10:00:16Z</time>
      </trkpt>
      <trkpt lat="49.50739" lon="5.84839">
        <ele>390.99</ele>
        <time>2018-05-05T10:00:19Z</time>
      </trkpt>
      <trkpt lat="49.50724" lon="5.84851">
        <ele>393.09</ele>
        <time>2018-05-05T10:00:25Z</time>
      </trkpt>
      <trkpt lat="49.50715" lon="5.84858">
        <ele>394.32</ele>
        <time>2018-05-05T10:00:29Z</time>
      </trkpt>
      <trkpt lat="49.50705" lon="5.84861">
        <ele>396.19</ele>
        <time>2018-05-05T10:00:37Z</time>
      </trkpt>
      <trkpt lat="49.50699" lon="5.84866">
        <ele>397.57</ele>
        <time>2018-05-05T10:00:42Z</time>
      </trkpt>
      <trkpt lat="49.50691" lon="5.84874">
        <ele>399.58</ele>
        <time>2018-05-05T10:00:48Z</time>
      </trkpt>
      <trkpt lat="49.50677" lon="5.84884">
        <ele>403.45</ele>
        <time>2018-05-05T10:00:56Z</time>
      </trkpt>
      <trkpt lat="49.50676" lon="5.84884">
        <ele>403.98</ele>
        <time>2018-05-05T10:00:57Z</time>
      </trkpt>
      <trkpt lat="49.50675" lon="5.84884">
        <ele>404.4</ele>
        <time>2018-05-05T10:00:58Z</time>
      </trkpt>
      <trkpt lat="49.50665" lon="5.84889">
        <ele>405.48</ele>
        <time>2018-05-05T10:01:03Z</time>
      </trkpt>
      <trkpt lat="49.50664" lon="5.84891">
        <ele>405.79</ele>
        <time>2018-05-05T10:01:04Z</time>
      </trkpt>
      <trkpt lat="49.50655" lon="5.84899">
        <ele>407.92</ele>
        <time>2018-05-05T10:01:10Z</time>
      </trkpt>
      <trkpt lat="49.50645" lon="5.84906">
        <ele>410.99</ele>
        <time>2018-05-05T10:01:18Z</time>
      </trkpt>
      <trkpt lat="49.50644" lon="5.84908">
        <ele>411.36</ele>
        <time>2018-05-05T10:01:19Z</time>
      </trkpt>
      <trkpt lat="49.50642" lon="5.84911">
        <ele>411.77</ele>
        <time>2018-05-05T10:01:20Z</time>
      </trkpt>
      <trkpt lat="49.50624" lon="5.84924">
        <ele>414.33</ele>
        <time>2018-05-05T10:01:29Z</time>
      </trkpt>
      <trkpt lat="49.50616" lon="5.84929">
        <ele>416.73</ele>
        <time>2018-05-05T10:01:35Z</time>
      </trkpt>
      <trkpt lat="49.50612" lon="5.84931">
        <ele>417.73</ele>
        <time>2018-05-05T10:01:39Z</time>
      </trkpt>
      <trkpt lat="49.50596" lon="5.84939">
        <ele>418.17</ele>
        <time>2018-05-05T10:01:50Z</time>
      </trkpt>
      <trkpt lat="49.5058" lon="5.84949">
        <ele>419.18</ele>
        <time>2018-05-05T10:02:00Z</time>
      </trkpt>
      <trkpt lat="49.5057" lon="5.84956">
        <ele>419.81</ele>
        <time>2018-05-05T10:02:07Z</time>
      </trkpt>
      <trkpt lat="49.50563" lon="5.84964">
        <ele>420.43</ele>
        <time>2018-05-05T10:02:13Z</time>
      </trkpt>
      <trkpt lat="49.50558" lon="5.84966">
        <ele>420.67</ele>
        <time>2018-05-05T10:02:17Z</time>
      </trkpt>
      <trkpt lat="49.50552" lon="5.8497">
        <ele>421.19</ele>
        <time>2018-05-05T10:02:22Z</time>
      </trkpt>
      <trkpt lat="49.5055" lon="5.8497">
        <ele>421.33</ele>
        <time>2018-05-05T10:02:23Z</time>
      </trkpt>
      <trkpt lat="49.50548" lon="5.84971">
        <ele>421.47</ele>
        <time>2018-05-05T10:02:24Z</time>
      </trkpt>
      <trkpt lat="49.50532" lon="5.84984">
        <ele>421.98</ele>
        <time>2018-05-05T10:02:31Z</time>
      </trkpt>
      <trkpt lat="49.5052" lon="5.84993">
        <ele>423.2</ele>
        <time>2018-05-05T10:02:38Z</time>
      </trkpt>
      <trkpt lat="49.50509" lon="5.85003">
        <ele>424.4</ele>
        <time>2018-05-05T10:02:45Z</time>
      </trkpt>
      <trkpt lat="49.50498" lon="5.8501">
        <ele>424.87</ele>
        <time>2018-05-05T10:02:54Z</time>
      </trkpt>
      <trkpt lat="49.50481" lon="5.85021">
        <ele>425.86</ele>
        <time>2018-05-05T10:03:02Z</time>
      </trkpt>
      <trkpt lat="49.50471" lon="5.85026">
        <ele>426.51</ele>
        <time>2018-05-05T10:03:08Z</time>
      </trkpt>
      <trkpt lat="49.50464" lon="5.85033">
        <ele>427.37</ele>
        <time>2018-05-05T10:03:16Z</time>
      </trkpt>
      <trkpt lat="49.50458" lon="5.85038">
        <ele>427.94</ele>
        <time>2018-05-05T10:03:21Z</time>
      </trkpt>
      <trkpt lat="49.5045" lon="5.85044">
        <ele>428.58</ele>
        <time>2018-05-05T10:03:26Z</time>
      </trkpt>
      <trkpt lat="49.50441" lon="5.85051">
        <ele>429.34</ele>
        <time>2018-05-05T10:03:36Z</time>
      </trkpt>
      <trkpt lat="49.50421" lon="5.85063">
        <ele>430.46</ele>
        <time>2018-05-05T10:03:47Z</time>
      </trkpt>
      <trkpt lat="49.504" lon="5.85075">
        <ele>431.53</ele>
        <time>2018-05-05T10:04:01Z</time>
      </trkpt>
      <trkpt lat="49.50395" lon="5.85079">
        <ele>431.9</ele>
        <time>2018-05-05T10:04:05Z</time>
      </trkpt>
      <trkpt lat="49.50384" lon="5.85088">
        <ele>433.09</ele>
        <time>2018-05-05T10:04:11Z</time>
      </trkpt>
      <trkpt lat="49.50371" lon="5.85097">
        <ele>433.94</ele>
        <time>2018-05-05T10:04:17Z</time>
      </trkpt>
      <trkpt lat="49.50354" lon="5.85109">
        <ele>435.58</ele>
        <time>2018-05-05T10:04:26Z</time>
      </trkpt>
      <trkpt lat="49.50339" lon="5.85121">
        <ele>435.89</ele>
        <time>2018-05-05T10:04:33Z</time>
      </trkpt>
      <trkpt lat="49.50328" lon="5.85128">
        <ele>436.02</ele>
        <time>2018-05-05T10:04:40Z</time>
      </trkpt>
      <trkpt lat="49.50326" lon="5.85129">
        <ele>436.02</ele>
        <time>2018-05-05T10:04:41Z</time>
      </trkpt>
      <trkpt lat="49.50318" lon="5.85135">
        <ele>435.82</ele>
        <time>2018-05-05T10:04:45Z</time>
      </trkpt>
      <trkpt lat="49.50307" lon="5.85141">
        <ele>435.7</ele>
        <time>2018-05-05T10:04:50Z</time>
      </trkpt>
      <trkpt lat="49.50293" lon="5.85144">
        <ele>435.25</ele>
        <time>2018-05-05T10:04:56Z</time>
      </trkpt>
      <trkpt lat="49.50272" lon="5.85144">
        <ele>434.04</ele>
        <time>2018-05-05T10:05:02Z</time>
      </trkpt>
      <trkpt lat="49.50255" lon="5.85147">
        <ele>433</ele>
        <time>2018-05-05T10:05:07Z</time>
      </trkpt>
      <trkpt lat="49.50233" lon="5.85146">
        <ele>431.06</ele>
        <time>2018-05-05T10:05:13Z</time>
      </trkpt>
      <trkpt lat="49.50221" lon="5.85132">
        <ele>428.67</ele>
        <time>2018-05-05T10:05:18Z</time>
      </trkpt>
      <trkpt lat="49.50221" lon="5.85128">
        <ele>428.31</ele>
        <time>2018-05-05T10:05:19Z</time>
      </trkpt>
      <trkpt lat="49.50222" lon="5.85125">
        <ele>427.76</ele>
        <time>2018-05-05T10:05:20Z</time>
      </trkpt>
      <trkpt lat="49.50224" lon="5.85123">
        <ele>427.14</ele>
        <time>2018-05-05T10:05:21Z</time>
      </trkpt>
      <trkpt lat="49.50224" lon="5.85121">
        <ele>426.41</ele>
        <time>2018-05-05T10:05:22Z</time>
      </trkpt>
      <trkpt lat="49.50225" lon="5.85118">
        <ele>426</ele>
        <time>2018-05-05T10:05:23Z</time>
      </trkpt>
      <trkpt lat="49.50227" lon="5.85116">
        <ele>425.5</ele>
        <time>2018-05-05T10:05:24Z</time>
      </trkpt>
      <trkpt lat="49.50228" lon="5.85114">
        <ele>424.96</ele>
        <time>2018-05-05T10:05:25Z</time>
      </trkpt>
      <trkpt lat="49.50228" lon="5.85113">
        <ele>424.63</ele>
        <time>2018-05-05T10:05:26Z</time>
      </trkpt>
      <trkpt lat="49.50229" lon="5.85111">
        <ele>424.23</ele>
        <time>2018-05-05T10:05:27Z</time>
      </trkpt>
      <trkpt lat="49.50229" lon="5.85108">
        <ele>421.85</ele>
        <time>2018-05-05T10:05:31Z</time>
      </trkpt>
      <trkpt lat="49.50223" lon="5.85108">
        <ele>415.78</ele>
        <time>2018-05-05T10:05:57Z</time>
      </trkpt>
      <trkpt lat="49.50222" lon="5.85112">
        <ele>415.57</ele>
        <time>2018-05-05T10:05:59Z</time>
      </trkpt>
      <trkpt lat="49.50213" lon="5.85134">
        <ele>413.77</ele>
        <time>2018-05-05T10:06:08Z</time>
      </trkpt>
      <trkpt lat="49.50213" lon="5.85132">
        <ele>412.86</ele>
        <time>2018-05-05T10:06:12Z</time>
      </trkpt>
      <trkpt lat="49.50212" lon="5.85138">
        <ele>411.86</ele>
        <time>2018-05-05T10:06:22Z</time>
      </trkpt>
      <trkpt lat="49.50211" lon="5.85141">
        <ele>411.81</ele>
        <time>2018-05-05T10:06:23Z</time>
      </trkpt>
      <trkpt lat="49.5021" lon="5.85144">
        <ele>411.81</ele>
        <time>2018-05-05T10:06:24Z</time>
      </trkpt>
      <trkpt lat="49.50209" lon="5.85148">
        <ele>411.8</ele>
        <time>2018-05-05T10:06:25Z</time>
      </trkpt>
      <trkpt lat="49.50195" lon="5.85196">
        <ele>409.8</ele>
        <time>2018-05-05T10:06:36Z</time>
      </trkpt>
      <trkpt lat="49.50184" lon="5.85232">
        <ele>407.98</ele>
        <time>2018-05-05T10:06:43Z</time>
      </trkpt>
      <trkpt lat="49.50175" lon="5.85261">
        <ele>406.72</ele>
        <time>2018-05-05T10:06:49Z</time>
      </trkpt>
      <trkpt lat="49.50167" lon="5.85286">
        <ele>404.38</ele>
        <time>2018-05-05T10:06:55Z</time>
      </trkpt>
      <trkpt lat="49.50163" lon="5.85316">
        <ele>402.13</ele>
        <time>2018-05-05T10:07:01Z</time>
      </trkpt>
      <trkpt lat="49.50163" lon="5.85346">
        <ele>399.22</ele>
        <time>2018-05-05T10:07:07Z</time>
      </trkpt>
      <trkpt lat="49.50163" lon="5.85381">
        <ele>397.04</ele>
        <time>2018-05-05T10:07:14Z</time>
      </trkpt>
      <trkpt lat="49.50163" lon="5.85404">
        <ele>395.32</ele>
        <time>2018-05-05T10:07:19Z</time>
      </trkpt>
      <trkpt lat="49.50165" lon="5.85434">
        <ele>392.06</ele>
        <time>2018-05-05T10:07:26Z</time>
      </trkpt>
      <trkpt lat="49.50165" lon="5.85457">
        <ele>390.89</ele>
        <time>2018-05-05T10:07:32Z</time>
      </trkpt>
      <trkpt lat="49.50166" lon="5.85488">
        <ele>390.24</ele>
        <time>2018-05-05T10:07:40Z</time>
      </trkpt>
      <trkpt lat="49.50163" lon="5.85529">
        <ele>388.78</ele>
        <time>2018-05-05T10:07:49Z</time>
      </trkpt>
      <trkpt lat="49.50155" lon="5.85563">
        <ele>390.73</ele>
        <time>2018-05-05T10:07:55Z</time>
      </trkpt>
      <trkpt lat="49.50146" lon="5.85599">
        <ele>392.93</ele>
        <time>2018-05-05T10:08:02Z</time>
      </trkpt>
      <trkpt lat="49.50139" lon="5.85626">
        <ele>393.92</ele>
        <time>2018-05-05T10:08:08Z</time>
      </trkpt>
      <trkpt lat="49.50126" lon="5.85668">
        <ele>396.72</ele>
        <time>2018-05-05T10:08:17Z</time>
      </trkpt>
      <trkpt lat="49.50109" lon="5.8571">
        <ele>398.14</ele>
        <time>2018-05-05T10:08:25Z</time>
      </trkpt>
      <trkpt lat="49.50104" lon="5.8572">
        <ele>399.67</ele>
        <time>2018-05-05T10:08:27Z</time>
      </trkpt>
      <trkpt lat="49.50071" lon="5.8577">
        <ele>400.08</ele>
        <time>2018-05-05T10:08:38Z</time>
      </trkpt>
      <trkpt lat="49.50039" lon="5.85808">
        <ele>401.99</ele>
        <time>2018-05-05T10:08:48Z</time>
      </trkpt>
      <trkpt lat="49.50015" lon="5.8584">
        <ele>403.12</ele>
        <time>2018-05-05T10:08:58Z</time>
      </trkpt>
      <trkpt lat="49.49994" lon="5.85859">
        <ele>402.89</ele>
        <time>2018-05-05T10:09:05Z</time>
      </trkpt>
      <trkpt lat="49.49961" lon="5.85876">
        <ele>402.31</ele>
        <time>2018-05-05T10:09:14Z</time>
      </trkpt>
      <trkpt lat="49.49945" lon="5.85886">
        <ele>401.63</ele>
        <time>2018-05-05T10:09:20Z</time>
      </trkpt>
      <trkpt lat="49.49915" lon="5.85908">
        <ele>402.18</ele>
        <time>2018-05-05T10:09:30Z</time>
      </trkpt>
      <trkpt lat="49.49889" lon="5.85932">
        <ele>402.08</ele>
        <time>2018-05-05T10:09:38Z</time>
      </trkpt>
      <trkpt lat="49.49881" lon="5.85939">
        <ele>401.91</ele>
        <time>2018-05-05T10:09:40Z</time>
      </trkpt>
      <trkpt lat="49.4984" lon="5.85968">
        <ele>399.65</ele>
        <time>2018-05-05T10:09:49Z</time>
      </trkpt>
      <trkpt lat="49.49797" lon="5.86">
        <ele>399.24</ele>
        <time>2018-05-05T10:09:58Z</time>
      </trkpt>
      <trkpt lat="49.49755" lon="5.86029">
        <ele>397.49</ele>
        <time>2018-05-05T10:10:08Z</time>
      </trkpt>
      <trkpt lat="49.49722" lon="5.86052">
        <ele>397.54</ele>
        <time>2018-05-05T10:10:16Z</time>
      </trkpt>
      <trkpt lat="49.49717" lon="5.86054">
        <ele>397.42</ele>
        <time>2018-05-05T10:10:17Z</time>
      </trkpt>
      <trkpt lat="49.49702" lon="5.8606">
        <ele>396.81</ele>
        <time>2018-05-05T10:10:21Z</time>
      </trkpt>
      <trkpt lat="49.49665" lon="5.86085">
        <ele>398.27</ele>
        <time>2018-05-05T10:10:30Z</time>
      </trkpt>
      <trkpt lat="49.49636" lon="5.86112">
        <ele>398.72</ele>
        <time>2018-05-05T10:10:39Z</time>
      </trkpt>
      <trkpt lat="49.49627" lon="5.86134">
        <ele>398.85</ele>
        <time>2018-05-05T10:10:45Z</time>
      </trkpt>
      <trkpt lat="49.49615" lon="5.86147">
        <ele>399.55</ele>
        <time>2018-05-05T10:10:51Z</time>
      </trkpt>
      <trkpt lat="49.49591" lon="5.86164">
        <ele>399.89</ele>
        <time>2018-05-05T10:10:59Z</time>
      </trkpt>
      <trkpt lat="49.49563" lon="5.86194">
        <ele>401.29</ele>
        <time>2018-05-05T10:11:08Z</time>
      </trkpt>
      <trkpt lat="49.49538" lon="5.86219">
        <ele>402.28</ele>
        <time>2018-05-05T10:11:17Z</time>
      </trkpt>
      <trkpt lat="49.49517" lon="5.86233">
        <ele>404.05</ele>
        <time>2018-05-05T10:11:24Z</time>
      </trkpt>
      <trkpt lat="49.49481" lon="5.86234">
        <ele>404.72</ele>
        <time>2018-05-05T10:11:35Z</time>
      </trkpt>
      <trkpt lat="49.49451" lon="5.86227">
        <ele>404.93</ele>
        <time>2018-05-05T10:11:43Z</time>
      </trkpt>
      <trkpt lat="49.49419" lon="5.86209">
        <ele>404.9</ele>
        <time>2018-05-05T10:11:51Z</time>
      </trkpt>
      <trkpt lat="49.49387" lon="5.86195">
        <ele>405.33</ele>
        <time>2018-05-05T10:11:59Z</time>
      </trkpt>
      <trkpt lat="49.49383" lon="5.86192">
        <ele>405.43</ele>
        <time>2018-05-05T10:12:00Z</time>
      </trkpt>
      <trkpt lat="49.49353" lon="5.86175">
        <ele>405.4</ele>
        <time>2018-05-05T10:12:07Z</time>
      </trkpt>
      <trkpt lat="49.49309" lon="5.86139">
        <ele>404.55</ele>
        <time>2018-05-05T10:12:16Z</time>
      </trkpt>
      <trkpt lat="49.49264" lon="5.86107">
        <ele>405.53</ele>
        <time>2018-05-05T10:12:24Z</time>
      </trkpt>
      <trkpt lat="49.49234" lon="5.86088">
        <ele>405.73</ele>
        <time>2018-05-05T10:12:31Z</time>
      </trkpt>
      <trkpt lat="49.49196" lon="5.8607">
        <ele>406.94</ele>
        <time>2018-05-05T10:12:41Z</time>
      </trkpt>
      <trkpt lat="49.49184" lon="5.86063">
        <ele>407.35</ele>
        <time>2018-05-05T10:12:44Z</time>
      </trkpt>
      <trkpt lat="49.49151" lon="5.86047">
        <ele>408.67</ele>
        <time>2018-05-05T10:12:53Z</time>
      </trkpt>
      <trkpt lat="49.49123" lon="5.86035">
        <ele>409.06</ele>
        <time>2018-05-05T10:13:03Z</time>
      </trkpt>
      <trkpt lat="49.49107" lon="5.86023">
        <ele>408.6</ele>
        <time>2018-05-05T10:13:09Z</time>
      </trkpt>
      <trkpt lat="49.49105" lon="5.86018">
        <ele>408.49</ele>
        <time>2018-05-05T10:13:10Z</time>
      </trkpt>
      <trkpt lat="49.49104" lon="5.86013">
        <ele>408.5</ele>
        <time>2018-05-05T10:13:11Z</time>
      </trkpt>
      <trkpt lat="49.49102" lon="5.86009">
        <ele>408.46</ele>
        <time>2018-05-05T10:13:12Z</time>
      </trkpt>
      <trkpt lat="49.49098" lon="5.86006">
        <ele>408.32</ele>
        <time>2018-05-05T10:13:13Z</time>
      </trkpt>
      <trkpt lat="49.49095" lon="5.86003">
        <ele>408.17</ele>
        <time>2018-05-05T10:13:14Z</time>
      </trkpt>
      <trkpt lat="49.49092" lon="5.86">
        <ele>407.94</ele>
        <time>2018-05-05T10:13:15Z</time>
      </trkpt>
      <trkpt lat="49.4909" lon="5.85995">
        <ele>407.74</ele>
        <time>2018-05-05T10:13:16Z</time>
      </trkpt>
      <trkpt lat="49.4909" lon="5.85989">
        <ele>407.67</ele>
        <time>2018-05-05T10:13:17Z</time>
      </trkpt>
      <trkpt lat="49.49093" lon="5.85981">
        <ele>407.94</ele>
        <time>2018-05-05T10:13:21Z</time>
      </trkpt>
      <trkpt lat="49.49093" lon="5.85981">
        <ele>408.18</ele>
        <time>2018-05-05T10:13:24Z</time>
      </trkpt>
    </trkseg>
  </trk>
</gpx>